<?xml version='1.0' encoding='UTF-8'?><gpx version="1.1" creator="JPX - https://github.com/jenetics/jpx" xmlns="http://www.topografix.com/GPX/1/1"><trk><trkseg><trkpt lat="48.45058" lon="-4.2286166"><ele>103.00000000000001</ele><time>2026-04-23T07:42:16.676Z</time></trkpt><trkpt lat="48.4505067" lon="-4.228645"><ele>103.0</ele><time>2026-04-23T07:43:37.677Z</time></trkpt><trkpt lat="48.45043" lon="-4.228725"><ele>103.0</ele><time>2026-04-23T07:43:39.677Z</time></trkpt><trkpt lat="48.4503517" lon="-4.228805"><ele>103.0</ele><time>2026-04-23T07:43:41.677Z</time></trkpt><trkpt lat="48.4503033" lon="-4.2288783"><ele>103.00000000000001</ele><time>2026-04-23T07:43:43.678Z</time></trkpt><trkpt lat="48.4502383" lon="-4.2289217"><ele>103.0</ele><time>2026-04-23T07:43:46.677Z</time></trkpt><trkpt lat="48.450305" lon="-4.2288317"><ele>103.00000000000001</ele><time>2026-04-23T07:43:51.672Z</time></trkpt><trkpt lat="48.4503983" lon="-4.2287717"><ele>103.0</ele><time>2026-04-23T07:43:53.679Z</time></trkpt><trkpt lat="48.4504717" lon="-4.228715"><ele>103.0</ele><time>2026-04-23T07:43:55.677Z</time></trkpt><trkpt lat="48.4505367" lon="-4.22867"><ele>103.0</ele><time>2026-04-23T07:43:57.676Z</time></trkpt><trkpt lat="48.4506017" lon="-4.228625"><ele>103.00000000000001</ele><time>2026-04-23T07:44:00.676Z</time></trkpt><trkpt lat="48.4505917" lon="-4.228515"><ele>103.0</ele><time>2026-04-23T07:46:42.673Z</time></trkpt><trkpt lat="48.4506333" lon="-4.22839"><ele>103.0</ele><time>2026-04-23T07:46:44.672Z</time></trkpt><trkpt lat="48.4506567" lon="-4.2282367"><ele>103.0</ele><time>2026-04-23T07:46:46.675Z</time></trkpt><trkpt lat="48.4506667" lon="-4.2280733"><ele>103.0</ele><time>2026-04-23T07:46:48.676Z</time></trkpt><trkpt lat="48.4506617" lon="-4.2279217"><ele>103.0</ele><time>2026-04-23T07:46:50.676Z</time></trkpt><trkpt lat="48.4506333" lon="-4.2277967"><ele>103.0</ele><time>2026-04-23T07:46:52.675Z</time></trkpt><trkpt lat="48.4505717" lon="-4.227715"><ele>103.66666666666667</ele><time>2026-04-23T07:46:54.672Z</time></trkpt><trkpt lat="48.4505" lon="-4.22771"><ele>104.33333333333334</ele><time>2026-04-23T07:46:55.679Z</time></trkpt><trkpt lat="48.4504267" lon="-4.2277117"><ele>105.0</ele><time>2026-04-23T07:46:56.673Z</time></trkpt><trkpt lat="48.45036" lon="-4.2277167"><ele>105.66666666666666</ele><time>2026-04-23T07:46:57.672Z</time></trkpt><trkpt lat="48.4502433" lon="-4.2277233"><ele>106.33333333333333</ele><time>2026-04-23T07:46:59.672Z</time></trkpt><trkpt lat="48.4501367" lon="-4.227735"><ele>107.0</ele><time>2026-04-23T07:47:01.671Z</time></trkpt><trkpt lat="48.4500333" lon="-4.2278117"><ele>107.19999999999999</ele><time>2026-04-23T07:47:03.67Z</time></trkpt><trkpt lat="48.4499417" lon="-4.2279267"><ele>107.39999999999999</ele><time>2026-04-23T07:47:05.672Z</time></trkpt><trkpt lat="48.4498583" lon="-4.228035"><ele>107.60000000000001</ele><time>2026-04-23T07:47:07.672Z</time></trkpt><trkpt lat="48.4497867" lon="-4.2281333"><ele>107.80000000000001</ele><time>2026-04-23T07:47:09.672Z</time></trkpt><trkpt lat="48.4497017" lon="-4.2281717"><ele>108.0</ele><time>2026-04-23T07:47:11.67Z</time></trkpt><trkpt lat="48.44962" lon="-4.2281533"><ele>108.33333333333333</ele><time>2026-04-23T07:47:13.673Z</time></trkpt><trkpt lat="48.4495283" lon="-4.22812"><ele>108.66666666666666</ele><time>2026-04-23T07:47:15.674Z</time></trkpt><trkpt lat="48.4494733" lon="-4.2280683"><ele>109.0</ele><time>2026-04-23T07:47:16.675Z</time></trkpt><trkpt lat="48.4494167" lon="-4.2280017"><ele>109.33333333333333</ele><time>2026-04-23T07:47:17.677Z</time></trkpt><trkpt lat="48.44936" lon="-4.227925"><ele>109.66666666666666</ele><time>2026-04-23T07:47:18.68Z</time></trkpt><trkpt lat="48.4493" lon="-4.227835"><ele>110.0</ele><time>2026-04-23T07:47:19.674Z</time></trkpt><trkpt lat="48.4492483" lon="-4.2277467"><ele>109.99999999999999</ele><time>2026-04-23T07:47:20.678Z</time></trkpt><trkpt lat="48.4492" lon="-4.2276567"><ele>110.0</ele><time>2026-04-23T07:47:21.675Z</time></trkpt><trkpt lat="48.4491467" lon="-4.2275683"><ele>110.0</ele><time>2026-04-23T07:47:22.678Z</time></trkpt><trkpt lat="48.4490967" lon="-4.2274883"><ele>110.0</ele><time>2026-04-23T07:47:23.675Z</time></trkpt><trkpt lat="48.4490517" lon="-4.22741"><ele>110.0</ele><time>2026-04-23T07:47:24.675Z</time></trkpt><trkpt lat="48.4490033" lon="-4.227335"><ele>109.99999999999999</ele><time>2026-04-23T07:47:25.677Z</time></trkpt><trkpt lat="48.448955" lon="-4.22726"><ele>110.0</ele><time>2026-04-23T07:47:26.677Z</time></trkpt><trkpt lat="48.4489083" lon="-4.2271867"><ele>110.33333333333333</ele><time>2026-04-23T07:47:27.674Z</time></trkpt><trkpt lat="48.448835" lon="-4.22707"><ele>110.66666666666666</ele><time>2026-04-23T07:47:29.674Z</time></trkpt><trkpt lat="48.448775" lon="-4.2270117"><ele>111.0</ele><time>2026-04-23T07:47:31.68Z</time></trkpt><trkpt lat="48.4487133" lon="-4.2269483"><ele>111.33333333333334</ele><time>2026-04-23T07:47:35.678Z</time></trkpt><trkpt lat="48.44877" lon="-4.2268717"><ele>111.66666666666667</ele><time>2026-04-23T07:47:37.677Z</time></trkpt><trkpt lat="48.4488483" lon="-4.22682"><ele>112.0</ele><time>2026-04-23T07:47:38.672Z</time></trkpt><trkpt lat="48.4489367" lon="-4.2267567"><ele>112.75</ele><time>2026-04-23T07:47:39.681Z</time></trkpt><trkpt lat="48.4490317" lon="-4.2266833"><ele>113.5</ele><time>2026-04-23T07:47:40.676Z</time></trkpt><trkpt lat="48.449125" lon="-4.2266033"><ele>114.25</ele><time>2026-04-23T07:47:41.68Z</time></trkpt><trkpt lat="48.449225" lon="-4.2265083"><ele>115.0</ele><time>2026-04-23T07:47:42.677Z</time></trkpt><trkpt lat="48.4493267" lon="-4.2264"><ele>115.0</ele><time>2026-04-23T07:47:43.675Z</time></trkpt><trkpt lat="48.4494283" lon="-4.226285"><ele>115.0</ele><time>2026-04-23T07:47:44.678Z</time></trkpt><trkpt lat="48.4495283" lon="-4.22617"><ele>115.0</ele><time>2026-04-23T07:47:45.676Z</time></trkpt><trkpt lat="48.44962" lon="-4.2260517"><ele>115.0</ele><time>2026-04-23T07:47:46.675Z</time></trkpt><trkpt lat="48.44971" lon="-4.225925"><ele>115.5</ele><time>2026-04-23T07:47:47.677Z</time></trkpt><trkpt lat="48.4497933" lon="-4.225795"><ele>116.0</ele><time>2026-04-23T07:47:48.68Z</time></trkpt><trkpt lat="48.4498717" lon="-4.22566"><ele>116.5</ele><time>2026-04-23T07:47:49.671Z</time></trkpt><trkpt lat="48.449945" lon="-4.22552"><ele>117.0</ele><time>2026-04-23T07:47:50.673Z</time></trkpt><trkpt lat="48.450015" lon="-4.225385"><ele>117.0</ele><time>2026-04-23T07:47:51.676Z</time></trkpt><trkpt lat="48.4500817" lon="-4.2252467"><ele>117.0</ele><time>2026-04-23T07:47:52.674Z</time></trkpt><trkpt lat="48.4501567" lon="-4.2251067"><ele>117.0</ele><time>2026-04-23T07:47:53.679Z</time></trkpt><trkpt lat="48.45023" lon="-4.2249683"><ele>117.0</ele><time>2026-04-23T07:47:54.675Z</time></trkpt><trkpt lat="48.450305" lon="-4.2248333"><ele>117.0</ele><time>2026-04-23T07:47:55.675Z</time></trkpt><trkpt lat="48.4503817" lon="-4.2247017"><ele>117.0</ele><time>2026-04-23T07:47:56.678Z</time></trkpt><trkpt lat="48.4504617" lon="-4.224575"><ele>117.0</ele><time>2026-04-23T07:47:57.676Z</time></trkpt><trkpt lat="48.450545" lon="-4.2244467"><ele>117.0</ele><time>2026-04-23T07:47:58.676Z</time></trkpt><trkpt lat="48.4506333" lon="-4.22432"><ele>118.0</ele><time>2026-04-23T07:47:59.675Z</time></trkpt><trkpt lat="48.450725" lon="-4.2241967"><ele>119.0</ele><time>2026-04-23T07:48:00.673Z</time></trkpt><trkpt lat="48.45082" lon="-4.224075"><ele>120.0</ele><time>2026-04-23T07:48:01.677Z</time></trkpt><trkpt lat="48.4509133" lon="-4.2239567"><ele>121.0</ele><time>2026-04-23T07:48:02.675Z</time></trkpt><trkpt lat="48.4510067" lon="-4.223845"><ele>121.0</ele><time>2026-04-23T07:48:03.674Z</time></trkpt><trkpt lat="48.4511" lon="-4.2237367"><ele>121.0</ele><time>2026-04-23T07:48:04.674Z</time></trkpt><trkpt lat="48.4511933" lon="-4.2236283"><ele>121.0</ele><time>2026-04-23T07:48:05.672Z</time></trkpt><trkpt lat="48.4512867" lon="-4.2235217"><ele>121.0</ele><time>2026-04-23T07:48:06.674Z</time></trkpt><trkpt lat="48.451375" lon="-4.223425"><ele>121.25</ele><time>2026-04-23T07:48:07.677Z</time></trkpt><trkpt lat="48.4514567" lon="-4.2233383"><ele>121.5</ele><time>2026-04-23T07:48:08.675Z</time></trkpt><trkpt lat="48.45155" lon="-4.2232517"><ele>121.75</ele><time>2026-04-23T07:48:09.675Z</time></trkpt><trkpt lat="48.4516567" lon="-4.223155"><ele>122.0</ele><time>2026-04-23T07:48:10.677Z</time></trkpt><trkpt lat="48.451775" lon="-4.2230583"><ele>122.25</ele><time>2026-04-23T07:48:11.675Z</time></trkpt><trkpt lat="48.4519033" lon="-4.22297"><ele>122.5</ele><time>2026-04-23T07:48:12.672Z</time></trkpt><trkpt lat="48.45204" lon="-4.2228817"><ele>122.75</ele><time>2026-04-23T07:48:13.676Z</time></trkpt><trkpt lat="48.452175" lon="-4.2227917"><ele>123.0</ele><time>2026-04-23T07:48:14.677Z</time></trkpt><trkpt lat="48.4523" lon="-4.222705"><ele>123.0</ele><time>2026-04-23T07:48:15.68Z</time></trkpt><trkpt lat="48.4524217" lon="-4.2226183"><ele>123.0</ele><time>2026-04-23T07:48:16.675Z</time></trkpt><trkpt lat="48.45254" lon="-4.2225367"><ele>123.0</ele><time>2026-04-23T07:48:17.674Z</time></trkpt><trkpt lat="48.452655" lon="-4.222455"><ele>123.0</ele><time>2026-04-23T07:48:18.678Z</time></trkpt><trkpt lat="48.4527717" lon="-4.2223717"><ele>122.75</ele><time>2026-04-23T07:48:19.676Z</time></trkpt><trkpt lat="48.452885" lon="-4.2222883"><ele>122.5</ele><time>2026-04-23T07:48:20.674Z</time></trkpt><trkpt lat="48.4529967" lon="-4.2222033"><ele>122.25</ele><time>2026-04-23T07:48:21.677Z</time></trkpt><trkpt lat="48.45311" lon="-4.22212"><ele>122.0</ele><time>2026-04-23T07:48:22.675Z</time></trkpt><trkpt lat="48.4532183" lon="-4.2220333"><ele>122.0</ele><time>2026-04-23T07:48:23.674Z</time></trkpt><trkpt lat="48.4533233" lon="-4.2219417"><ele>122.0</ele><time>2026-04-23T07:48:24.676Z</time></trkpt><trkpt lat="48.4534283" lon="-4.2218483"><ele>122.0</ele><time>2026-04-23T07:48:25.674Z</time></trkpt><trkpt lat="48.45353" lon="-4.2217517"><ele>122.0</ele><time>2026-04-23T07:48:26.675Z</time></trkpt><trkpt lat="48.4536267" lon="-4.2216533"><ele>122.0</ele><time>2026-04-23T07:48:27.673Z</time></trkpt><trkpt lat="48.4537233" lon="-4.2215533"><ele>122.0</ele><time>2026-04-23T07:48:28.679Z</time></trkpt><trkpt lat="48.45382" lon="-4.2214533"><ele>122.0</ele><time>2026-04-23T07:48:29.671Z</time></trkpt><trkpt lat="48.45392" lon="-4.2213517"><ele>122.0</ele><time>2026-04-23T07:48:30.678Z</time></trkpt><trkpt lat="48.4540183" lon="-4.221245"><ele>122.25</ele><time>2026-04-23T07:48:31.674Z</time></trkpt><trkpt lat="48.45411" lon="-4.2211317"><ele>122.5</ele><time>2026-04-23T07:48:32.675Z</time></trkpt><trkpt lat="48.4541967" lon="-4.22101"><ele>122.75</ele><time>2026-04-23T07:48:33.678Z</time></trkpt><trkpt lat="48.45428" lon="-4.2208833"><ele>123.0</ele><time>2026-04-23T07:48:34.672Z</time></trkpt><trkpt lat="48.454355" lon="-4.22075"><ele>123.25</ele><time>2026-04-23T07:48:35.675Z</time></trkpt><trkpt lat="48.4544233" lon="-4.22061"><ele>123.5</ele><time>2026-04-23T07:48:36.676Z</time></trkpt><trkpt lat="48.4544867" lon="-4.2204617"><ele>123.75</ele><time>2026-04-23T07:48:37.673Z</time></trkpt><trkpt lat="48.4545467" lon="-4.2203117"><ele>124.0</ele><time>2026-04-23T07:48:38.679Z</time></trkpt><trkpt lat="48.4546033" lon="-4.220165"><ele>123.6</ele><time>2026-04-23T07:48:39.674Z</time></trkpt><trkpt lat="48.454655" lon="-4.2200233"><ele>123.2</ele><time>2026-04-23T07:48:40.674Z</time></trkpt><trkpt lat="48.4547017" lon="-4.2198933"><ele>122.79999999999998</ele><time>2026-04-23T07:48:41.674Z</time></trkpt><trkpt lat="48.4547433" lon="-4.2197683"><ele>122.39999999999999</ele><time>2026-04-23T07:48:42.674Z</time></trkpt><trkpt lat="48.4547767" lon="-4.2196483"><ele>122.0</ele><time>2026-04-23T07:48:43.677Z</time></trkpt><trkpt lat="48.454785" lon="-4.219525"><ele>122.0</ele><time>2026-04-23T07:48:44.672Z</time></trkpt><trkpt lat="48.4547667" lon="-4.2194217"><ele>121.99999999999999</ele><time>2026-04-23T07:48:45.674Z</time></trkpt><trkpt lat="48.4547433" lon="-4.2193333"><ele>121.99999999999999</ele><time>2026-04-23T07:48:46.672Z</time></trkpt><trkpt lat="48.45471" lon="-4.21919"><ele>122.0</ele><time>2026-04-23T07:48:48.675Z</time></trkpt><trkpt lat="48.4546933" lon="-4.2190467"><ele>122.0</ele><time>2026-04-23T07:48:50.676Z</time></trkpt><trkpt lat="48.4546783" lon="-4.218865"><ele>122.14285714285712</ele><time>2026-04-23T07:48:52.677Z</time></trkpt><trkpt lat="48.4546783" lon="-4.2187667"><ele>122.28571428571428</ele><time>2026-04-23T07:48:53.682Z</time></trkpt><trkpt lat="48.454675" lon="-4.2186667"><ele>122.42857142857143</ele><time>2026-04-23T07:48:54.678Z</time></trkpt><trkpt lat="48.4546717" lon="-4.2185583"><ele>122.57142857142857</ele><time>2026-04-23T07:48:55.674Z</time></trkpt><trkpt lat="48.4546683" lon="-4.21844"><ele>122.71428571428572</ele><time>2026-04-23T07:48:56.677Z</time></trkpt><trkpt lat="48.4546683" lon="-4.218325"><ele>122.85714285714288</ele><time>2026-04-23T07:48:57.677Z</time></trkpt><trkpt lat="48.4546683" lon="-4.2182183"><ele>123.00000000000001</ele><time>2026-04-23T07:48:58.675Z</time></trkpt><trkpt lat="48.454665" lon="-4.21812"><ele>123.00000000000001</ele><time>2026-04-23T07:48:59.677Z</time></trkpt><trkpt lat="48.454665" lon="-4.21802"><ele>123.0</ele><time>2026-04-23T07:49:00.677Z</time></trkpt><trkpt lat="48.45467" lon="-4.2179117"><ele>123.00000000000001</ele><time>2026-04-23T07:49:01.675Z</time></trkpt><trkpt lat="48.4546833" lon="-4.2178033"><ele>123.00000000000001</ele><time>2026-04-23T07:49:02.681Z</time></trkpt><trkpt lat="48.4546967" lon="-4.2176917"><ele>123.0</ele><time>2026-04-23T07:49:03.677Z</time></trkpt><trkpt lat="48.4547133" lon="-4.2175783"><ele>123.00000000000001</ele><time>2026-04-23T07:49:04.675Z</time></trkpt><trkpt lat="48.45473" lon="-4.2174633"><ele>123.00000000000001</ele><time>2026-04-23T07:49:05.678Z</time></trkpt><trkpt lat="48.454755" lon="-4.2173433"><ele>122.83333333333333</ele><time>2026-04-23T07:49:06.677Z</time></trkpt><trkpt lat="48.4547783" lon="-4.2172217"><ele>122.66666666666666</ele><time>2026-04-23T07:49:07.676Z</time></trkpt><trkpt lat="48.4548083" lon="-4.21709"><ele>122.5</ele><time>2026-04-23T07:49:08.676Z</time></trkpt><trkpt lat="48.4548417" lon="-4.2169567"><ele>122.33333333333333</ele><time>2026-04-23T07:49:09.679Z</time></trkpt><trkpt lat="48.4548567" lon="-4.2168317"><ele>122.16666666666666</ele><time>2026-04-23T07:49:10.675Z</time></trkpt><trkpt lat="48.454875" lon="-4.2167167"><ele>122.0</ele><time>2026-04-23T07:49:11.676Z</time></trkpt><trkpt lat="48.4548917" lon="-4.216605"><ele>121.99999999999999</ele><time>2026-04-23T07:49:12.674Z</time></trkpt><trkpt lat="48.4549067" lon="-4.2164917"><ele>122.0</ele><time>2026-04-23T07:49:13.675Z</time></trkpt><trkpt lat="48.4549233" lon="-4.21638"><ele>122.0</ele><time>2026-04-23T07:49:14.68Z</time></trkpt><trkpt lat="48.4549367" lon="-4.2162683"><ele>122.0</ele><time>2026-04-23T07:49:15.673Z</time></trkpt><trkpt lat="48.45495" lon="-4.2161533"><ele>121.99999999999999</ele><time>2026-04-23T07:49:16.675Z</time></trkpt><trkpt lat="48.4549633" lon="-4.2160317"><ele>122.0</ele><time>2026-04-23T07:49:17.676Z</time></trkpt><trkpt lat="48.4549733" lon="-4.2159133"><ele>122.16666666666666</ele><time>2026-04-23T07:49:18.677Z</time></trkpt><trkpt lat="48.45498" lon="-4.2158"><ele>122.33333333333333</ele><time>2026-04-23T07:49:19.675Z</time></trkpt><trkpt lat="48.45498" lon="-4.21569"><ele>122.5</ele><time>2026-04-23T07:49:20.681Z</time></trkpt><trkpt lat="48.45498" lon="-4.2155733"><ele>122.66666666666666</ele><time>2026-04-23T07:49:21.677Z</time></trkpt><trkpt lat="48.454975" lon="-4.2154533"><ele>122.83333333333333</ele><time>2026-04-23T07:49:22.675Z</time></trkpt><trkpt lat="48.4549683" lon="-4.215335"><ele>123.0</ele><time>2026-04-23T07:49:23.679Z</time></trkpt><trkpt lat="48.4549617" lon="-4.2152167"><ele>123.0</ele><time>2026-04-23T07:49:24.68Z</time></trkpt><trkpt lat="48.45496" lon="-4.2150933"><ele>123.0</ele><time>2026-04-23T07:49:25.679Z</time></trkpt><trkpt lat="48.454955" lon="-4.21497"><ele>123.0</ele><time>2026-04-23T07:49:26.675Z</time></trkpt><trkpt lat="48.4549583" lon="-4.2148433"><ele>123.0</ele><time>2026-04-23T07:49:27.677Z</time></trkpt><trkpt lat="48.4549717" lon="-4.214725"><ele>123.0</ele><time>2026-04-23T07:49:28.677Z</time></trkpt><trkpt lat="48.454985" lon="-4.2145933"><ele>123.0</ele><time>2026-04-23T07:49:29.673Z</time></trkpt><trkpt lat="48.4549933" lon="-4.2144683"><ele>123.0</ele><time>2026-04-23T07:49:30.678Z</time></trkpt><trkpt lat="48.4550067" lon="-4.214345"><ele>123.0</ele><time>2026-04-23T07:49:31.675Z</time></trkpt><trkpt lat="48.4550233" lon="-4.2142167"><ele>123.0</ele><time>2026-04-23T07:49:32.682Z</time></trkpt><trkpt lat="48.4550367" lon="-4.2140933"><ele>123.0</ele><time>2026-04-23T07:49:33.675Z</time></trkpt><trkpt lat="48.45505" lon="-4.21397"><ele>123.0</ele><time>2026-04-23T07:49:34.674Z</time></trkpt><trkpt lat="48.4550633" lon="-4.2138467"><ele>123.0</ele><time>2026-04-23T07:49:35.674Z</time></trkpt><trkpt lat="48.45507" lon="-4.2137317"><ele>122.85714285714288</ele><time>2026-04-23T07:49:36.677Z</time></trkpt><trkpt lat="48.455075" lon="-4.2136133"><ele>122.71428571428572</ele><time>2026-04-23T07:49:37.674Z</time></trkpt><trkpt lat="48.455085" lon="-4.213495"><ele>122.57142857142857</ele><time>2026-04-23T07:49:38.68Z</time></trkpt><trkpt lat="48.455095" lon="-4.2133867"><ele>122.42857142857143</ele><time>2026-04-23T07:49:39.676Z</time></trkpt><trkpt lat="48.4551033" lon="-4.2132833"><ele>122.28571428571428</ele><time>2026-04-23T07:49:40.679Z</time></trkpt><trkpt lat="48.4551033" lon="-4.2131817"><ele>122.14285714285712</ele><time>2026-04-23T07:49:41.676Z</time></trkpt><trkpt lat="48.45511" lon="-4.2130733"><ele>121.99999999999999</ele><time>2026-04-23T07:49:42.677Z</time></trkpt><trkpt lat="48.4551083" lon="-4.2129567"><ele>121.99999999999999</ele><time>2026-04-23T07:49:43.675Z</time></trkpt><trkpt lat="48.455105" lon="-4.2128483"><ele>122.0</ele><time>2026-04-23T07:49:44.675Z</time></trkpt><trkpt lat="48.4551033" lon="-4.2127433"><ele>121.99999999999999</ele><time>2026-04-23T07:49:45.675Z</time></trkpt><trkpt lat="48.4550967" lon="-4.2126233"><ele>121.99999999999999</ele><time>2026-04-23T07:49:46.676Z</time></trkpt><trkpt lat="48.4550933" lon="-4.2125167"><ele>122.0</ele><time>2026-04-23T07:49:47.676Z</time></trkpt><trkpt lat="48.455095" lon="-4.212395"><ele>121.99999999999999</ele><time>2026-04-23T07:49:48.678Z</time></trkpt><trkpt lat="48.455095" lon="-4.2122833"><ele>121.99999999999999</ele><time>2026-04-23T07:49:49.675Z</time></trkpt><trkpt lat="48.4550933" lon="-4.2121683"><ele>122.28571428571428</ele><time>2026-04-23T07:49:50.679Z</time></trkpt><trkpt lat="48.455085" lon="-4.212045"><ele>122.57142857142857</ele><time>2026-04-23T07:49:51.676Z</time></trkpt><trkpt lat="48.4550833" lon="-4.2119233"><ele>122.85714285714286</ele><time>2026-04-23T07:49:52.678Z</time></trkpt><trkpt lat="48.4550833" lon="-4.211805"><ele>123.14285714285714</ele><time>2026-04-23T07:49:53.673Z</time></trkpt><trkpt lat="48.45508" lon="-4.2117083"><ele>123.42857142857144</ele><time>2026-04-23T07:49:54.676Z</time></trkpt><trkpt lat="48.4550783" lon="-4.2116083"><ele>123.71428571428572</ele><time>2026-04-23T07:49:55.676Z</time></trkpt><trkpt lat="48.4550833" lon="-4.2115033"><ele>124.0</ele><time>2026-04-23T07:49:56.676Z</time></trkpt><trkpt lat="48.4550883" lon="-4.211395"><ele>124.14285714285715</ele><time>2026-04-23T07:49:57.676Z</time></trkpt><trkpt lat="48.4550967" lon="-4.2112883"><ele>124.2857142857143</ele><time>2026-04-23T07:49:58.676Z</time></trkpt><trkpt lat="48.4550983" lon="-4.2111783"><ele>124.42857142857143</ele><time>2026-04-23T07:49:59.675Z</time></trkpt><trkpt lat="48.4551017" lon="-4.2110667"><ele>124.57142857142858</ele><time>2026-04-23T07:50:00.675Z</time></trkpt><trkpt lat="48.455095" lon="-4.21096"><ele>124.71428571428572</ele><time>2026-04-23T07:50:01.674Z</time></trkpt><trkpt lat="48.4550933" lon="-4.2108533"><ele>124.85714285714286</ele><time>2026-04-23T07:50:02.676Z</time></trkpt><trkpt lat="48.4551083" lon="-4.2107367"><ele>125.0</ele><time>2026-04-23T07:50:03.675Z</time></trkpt><trkpt lat="48.4551217" lon="-4.2106067"><ele>124.99999999999999</ele><time>2026-04-23T07:50:04.676Z</time></trkpt><trkpt lat="48.455125" lon="-4.21048"><ele>125.0</ele><time>2026-04-23T07:50:05.679Z</time></trkpt><trkpt lat="48.455135" lon="-4.2103417"><ele>125.0</ele><time>2026-04-23T07:50:06.673Z</time></trkpt><trkpt lat="48.45514" lon="-4.2102117"><ele>125.0</ele><time>2026-04-23T07:50:07.675Z</time></trkpt><trkpt lat="48.4551483" lon="-4.2100817"><ele>124.99999999999999</ele><time>2026-04-23T07:50:08.681Z</time></trkpt><trkpt lat="48.455165" lon="-4.2099417"><ele>125.0</ele><time>2026-04-23T07:50:09.675Z</time></trkpt><trkpt lat="48.4551783" lon="-4.2097967"><ele>124.99999999999999</ele><time>2026-04-23T07:50:10.675Z</time></trkpt><trkpt lat="48.4551933" lon="-4.209655"><ele>125.0</ele><time>2026-04-23T07:50:11.678Z</time></trkpt><trkpt lat="48.455205" lon="-4.2095233"><ele>125.0</ele><time>2026-04-23T07:50:12.679Z</time></trkpt><trkpt lat="48.4552167" lon="-4.2094033"><ele>125.0</ele><time>2026-04-23T07:50:13.671Z</time></trkpt><trkpt lat="48.4552267" lon="-4.209285"><ele>124.99999999999999</ele><time>2026-04-23T07:50:14.674Z</time></trkpt><trkpt lat="48.4552417" lon="-4.2091567"><ele>125.0</ele><time>2026-04-23T07:50:15.673Z</time></trkpt><trkpt lat="48.4552567" lon="-4.2090217"><ele>125.16666666666666</ele><time>2026-04-23T07:50:16.673Z</time></trkpt><trkpt lat="48.45527" lon="-4.208895"><ele>125.33333333333333</ele><time>2026-04-23T07:50:17.675Z</time></trkpt><trkpt lat="48.4552867" lon="-4.2087633"><ele>125.5</ele><time>2026-04-23T07:50:18.676Z</time></trkpt><trkpt lat="48.4553017" lon="-4.2086483"><ele>125.66666666666666</ele><time>2026-04-23T07:50:19.675Z</time></trkpt><trkpt lat="48.4553217" lon="-4.208495"><ele>125.83333333333333</ele><time>2026-04-23T07:50:21.68Z</time></trkpt><trkpt lat="48.455395" lon="-4.2084583"><ele>126.0</ele><time>2026-04-23T07:50:26.679Z</time></trkpt><trkpt lat="48.4554633" lon="-4.2084433"><ele>126.19999999999999</ele><time>2026-04-23T07:50:28.677Z</time></trkpt><trkpt lat="48.4555467" lon="-4.2084117"><ele>126.39999999999999</ele><time>2026-04-23T07:50:30.68Z</time></trkpt><trkpt lat="48.4556333" lon="-4.208385"><ele>126.6</ele><time>2026-04-23T07:50:32.676Z</time></trkpt><trkpt lat="48.45575" lon="-4.208355"><ele>126.8</ele><time>2026-04-23T07:50:34.676Z</time></trkpt><trkpt lat="48.455865" lon="-4.2083467"><ele>127.0</ele><time>2026-04-23T07:50:36.677Z</time></trkpt><trkpt lat="48.4559717" lon="-4.2083633"><ele>127.0</ele><time>2026-04-23T07:50:38.676Z</time></trkpt><trkpt lat="48.4560417" lon="-4.208385"><ele>127.0</ele><time>2026-04-23T07:50:39.675Z</time></trkpt><trkpt lat="48.456115" lon="-4.2084083"><ele>127.0</ele><time>2026-04-23T07:50:40.677Z</time></trkpt><trkpt lat="48.456185" lon="-4.20843"><ele>127.0</ele><time>2026-04-23T07:50:41.676Z</time></trkpt><trkpt lat="48.4562533" lon="-4.208455"><ele>127.0</ele><time>2026-04-23T07:50:42.681Z</time></trkpt><trkpt lat="48.4563233" lon="-4.2084883"><ele>127.0</ele><time>2026-04-23T07:50:43.678Z</time></trkpt><trkpt lat="48.4563917" lon="-4.2085233"><ele>127.0</ele><time>2026-04-23T07:50:44.676Z</time></trkpt><trkpt lat="48.4564633" lon="-4.2085617"><ele>127.00000000000001</ele><time>2026-04-23T07:50:45.675Z</time></trkpt><trkpt lat="48.4565333" lon="-4.2086"><ele>127.0</ele><time>2026-04-23T07:50:46.677Z</time></trkpt><trkpt lat="48.4565983" lon="-4.2086283"><ele>127.0</ele><time>2026-04-23T07:50:47.678Z</time></trkpt><trkpt lat="48.4566633" lon="-4.2086567"><ele>127.0</ele><time>2026-04-23T07:50:48.673Z</time></trkpt><trkpt lat="48.456725" lon="-4.2086817"><ele>127.00000000000001</ele><time>2026-04-23T07:50:49.674Z</time></trkpt><trkpt lat="48.4568517" lon="-4.2087117"><ele>127.0</ele><time>2026-04-23T07:50:51.676Z</time></trkpt><trkpt lat="48.4569167" lon="-4.2087183"><ele>127.00000000000001</ele><time>2026-04-23T07:50:52.675Z</time></trkpt><trkpt lat="48.45704" lon="-4.208715"><ele>127.0</ele><time>2026-04-23T07:50:54.678Z</time></trkpt><trkpt lat="48.4571067" lon="-4.2087067"><ele>127.0</ele><time>2026-04-23T07:50:55.676Z</time></trkpt><trkpt lat="48.457175" lon="-4.2087067"><ele>127.0</ele><time>2026-04-23T07:50:56.678Z</time></trkpt><trkpt lat="48.457265" lon="-4.2087133"><ele>127.00000000000001</ele><time>2026-04-23T07:50:58.682Z</time></trkpt><trkpt lat="48.4573367" lon="-4.20882"><ele>127.0</ele><time>2026-04-23T07:51:01.679Z</time></trkpt><trkpt lat="48.457385" lon="-4.20895"><ele>127.33333333333334</ele><time>2026-04-23T07:51:03.679Z</time></trkpt><trkpt lat="48.4574583" lon="-4.2090883"><ele>127.66666666666667</ele><time>2026-04-23T07:51:05.675Z</time></trkpt><trkpt lat="48.4575367" lon="-4.20923"><ele>128.0</ele><time>2026-04-23T07:51:07.676Z</time></trkpt><trkpt lat="48.45757" lon="-4.2093133"><ele>128.33333333333334</ele><time>2026-04-23T07:51:08.677Z</time></trkpt><trkpt lat="48.4576133" lon="-4.2093933"><ele>128.66666666666666</ele><time>2026-04-23T07:51:09.678Z</time></trkpt><trkpt lat="48.4576517" lon="-4.2094733"><ele>129.0</ele><time>2026-04-23T07:51:10.677Z</time></trkpt><trkpt lat="48.457685" lon="-4.209555"><ele>129.0</ele><time>2026-04-23T07:51:11.678Z</time></trkpt><trkpt lat="48.4577267" lon="-4.2096383"><ele>129.0</ele><time>2026-04-23T07:51:13.68Z</time></trkpt><trkpt lat="48.4577367" lon="-4.2097333"><ele>129.0</ele><time>2026-04-23T07:51:15.68Z</time></trkpt><trkpt lat="48.4576983" lon="-4.2098933"><ele>129.0</ele><time>2026-04-23T07:51:17.676Z</time></trkpt><trkpt lat="48.4576633" lon="-4.2099817"><ele>129.0</ele><time>2026-04-23T07:51:18.676Z</time></trkpt><trkpt lat="48.4575933" lon="-4.2101767"><ele>128.5</ele><time>2026-04-23T07:51:20.675Z</time></trkpt><trkpt lat="48.4575633" lon="-4.21027"><ele>128.0</ele><time>2026-04-23T07:51:21.676Z</time></trkpt><trkpt lat="48.4575167" lon="-4.2104017"><ele>127.5</ele><time>2026-04-23T07:51:22.68Z</time></trkpt><trkpt lat="48.45748" lon="-4.2105167"><ele>127.0</ele><time>2026-04-23T07:51:23.676Z</time></trkpt><trkpt lat="48.457445" lon="-4.2106283"><ele>126.5</ele><time>2026-04-23T07:51:24.675Z</time></trkpt><trkpt lat="48.457415" lon="-4.2107383"><ele>126.0</ele><time>2026-04-23T07:51:25.676Z</time></trkpt><trkpt lat="48.4573867" lon="-4.210935"><ele>125.71428571428572</ele><time>2026-04-23T07:51:27.677Z</time></trkpt><trkpt lat="48.4573717" lon="-4.2110483"><ele>125.42857142857143</ele><time>2026-04-23T07:51:28.676Z</time></trkpt><trkpt lat="48.45736" lon="-4.2111783"><ele>125.14285714285714</ele><time>2026-04-23T07:51:29.677Z</time></trkpt><trkpt lat="48.4573483" lon="-4.2112783"><ele>124.85714285714286</ele><time>2026-04-23T07:51:30.681Z</time></trkpt><trkpt lat="48.4573283" lon="-4.2113717"><ele>124.57142857142858</ele><time>2026-04-23T07:51:31.675Z</time></trkpt><trkpt lat="48.4572867" lon="-4.2114633"><ele>124.28571428571429</ele><time>2026-04-23T07:51:32.674Z</time></trkpt><trkpt lat="48.457245" lon="-4.211555"><ele>124.0</ele><time>2026-04-23T07:51:33.677Z</time></trkpt><trkpt lat="48.4571983" lon="-4.2116517"><ele>123.66666666666667</ele><time>2026-04-23T07:51:34.678Z</time></trkpt><trkpt lat="48.45715" lon="-4.211745"><ele>123.33333333333334</ele><time>2026-04-23T07:51:35.677Z</time></trkpt><trkpt lat="48.4571033" lon="-4.211835"><ele>123.0</ele><time>2026-04-23T07:51:36.676Z</time></trkpt><trkpt lat="48.4570633" lon="-4.2119117"><ele>122.66666666666666</ele><time>2026-04-23T07:51:37.675Z</time></trkpt><trkpt lat="48.4569933" lon="-4.212035"><ele>122.33333333333333</ele><time>2026-04-23T07:51:39.679Z</time></trkpt><trkpt lat="48.4569133" lon="-4.21215"><ele>122.0</ele><time>2026-04-23T07:51:41.678Z</time></trkpt><trkpt lat="48.4568683" lon="-4.2122483"><ele>122.0</ele><time>2026-04-23T07:51:43.677Z</time></trkpt><trkpt lat="48.4568333" lon="-4.2123367"><ele>121.99999999999999</ele><time>2026-04-23T07:51:45.673Z</time></trkpt><trkpt lat="48.4568517" lon="-4.2124633"><ele>121.99999999999999</ele><time>2026-04-23T07:51:48.678Z</time></trkpt><trkpt lat="48.456905" lon="-4.2125967"><ele>122.0</ele><time>2026-04-23T07:51:50.676Z</time></trkpt><trkpt lat="48.4569883" lon="-4.21274"><ele>122.0</ele><time>2026-04-23T07:51:52.676Z</time></trkpt><trkpt lat="48.4570317" lon="-4.212815"><ele>121.99999999999999</ele><time>2026-04-23T07:51:53.678Z</time></trkpt><trkpt lat="48.457075" lon="-4.2129"><ele>122.0</ele><time>2026-04-23T07:51:54.675Z</time></trkpt><trkpt lat="48.45712" lon="-4.212985"><ele>121.99999999999999</ele><time>2026-04-23T07:51:55.679Z</time></trkpt><trkpt lat="48.4571667" lon="-4.2130667"><ele>121.99999999999999</ele><time>2026-04-23T07:51:56.675Z</time></trkpt><trkpt lat="48.457215" lon="-4.2131517"><ele>122.0</ele><time>2026-04-23T07:51:57.679Z</time></trkpt><trkpt lat="48.4572617" lon="-4.21324"><ele>121.99999999999999</ele><time>2026-04-23T07:51:58.676Z</time></trkpt><trkpt lat="48.4573067" lon="-4.2133333"><ele>121.99999999999999</ele><time>2026-04-23T07:51:59.674Z</time></trkpt><trkpt lat="48.45735" lon="-4.2134217"><ele>121.42857142857142</ele><time>2026-04-23T07:52:00.676Z</time></trkpt><trkpt lat="48.457395" lon="-4.2135067"><ele>120.85714285714286</ele><time>2026-04-23T07:52:01.676Z</time></trkpt><trkpt lat="48.4574383" lon="-4.21359"><ele>120.28571428571428</ele><time>2026-04-23T07:52:02.673Z</time></trkpt><trkpt lat="48.4574783" lon="-4.2136717"><ele>119.71428571428571</ele><time>2026-04-23T07:52:03.675Z</time></trkpt><trkpt lat="48.4575167" lon="-4.2137583"><ele>119.14285714285714</ele><time>2026-04-23T07:52:04.677Z</time></trkpt><trkpt lat="48.4575567" lon="-4.21385"><ele>118.57142857142857</ele><time>2026-04-23T07:52:05.673Z</time></trkpt><trkpt lat="48.4576" lon="-4.21394"><ele>118.0</ele><time>2026-04-23T07:52:06.686Z</time></trkpt><trkpt lat="48.4576467" lon="-4.21402"><ele>117.83333333333334</ele><time>2026-04-23T07:52:07.676Z</time></trkpt><trkpt lat="48.45769" lon="-4.2140967"><ele>117.66666666666667</ele><time>2026-04-23T07:52:08.676Z</time></trkpt><trkpt lat="48.457735" lon="-4.214165"><ele>117.5</ele><time>2026-04-23T07:52:09.676Z</time></trkpt><trkpt lat="48.45781" lon="-4.2142717"><ele>117.33333333333334</ele><time>2026-04-23T07:52:11.679Z</time></trkpt><trkpt lat="48.457835" lon="-4.2143817"><ele>117.16666666666667</ele><time>2026-04-23T07:52:14.679Z</time></trkpt><trkpt lat="48.4578" lon="-4.214525"><ele>117.0</ele><time>2026-04-23T07:52:16.676Z</time></trkpt><trkpt lat="48.4577633" lon="-4.2146217"><ele>117.0</ele><time>2026-04-23T07:52:17.676Z</time></trkpt><trkpt lat="48.457725" lon="-4.21472"><ele>117.0</ele><time>2026-04-23T07:52:18.676Z</time></trkpt><trkpt lat="48.4576817" lon="-4.2148283"><ele>117.0</ele><time>2026-04-23T07:52:19.676Z</time></trkpt><trkpt lat="48.4576317" lon="-4.2149367"><ele>117.0</ele><time>2026-04-23T07:52:20.674Z</time></trkpt><trkpt lat="48.4575833" lon="-4.21504"><ele>117.0</ele><time>2026-04-23T07:52:21.674Z</time></trkpt><trkpt lat="48.4575333" lon="-4.215145"><ele>117.0</ele><time>2026-04-23T07:52:22.676Z</time></trkpt><trkpt lat="48.45748" lon="-4.2152517"><ele>117.0</ele><time>2026-04-23T07:52:23.677Z</time></trkpt><trkpt lat="48.4574217" lon="-4.2153717"><ele>116.99999999999999</ele><time>2026-04-23T07:52:24.681Z</time></trkpt><trkpt lat="48.4573567" lon="-4.2155033"><ele>116.99999999999999</ele><time>2026-04-23T07:52:25.676Z</time></trkpt><trkpt lat="48.4572883" lon="-4.2156417"><ele>117.0</ele><time>2026-04-23T07:52:26.674Z</time></trkpt><trkpt lat="48.457215" lon="-4.2157783"><ele>117.0</ele><time>2026-04-23T07:52:27.678Z</time></trkpt><trkpt lat="48.45714" lon="-4.2159067"><ele>117.39999999999999</ele><time>2026-04-23T07:52:28.676Z</time></trkpt><trkpt lat="48.457065" lon="-4.216025"><ele>117.79999999999998</ele><time>2026-04-23T07:52:29.677Z</time></trkpt><trkpt lat="48.4569883" lon="-4.2161367"><ele>118.2</ele><time>2026-04-23T07:52:30.679Z</time></trkpt><trkpt lat="48.4569083" lon="-4.2162467"><ele>118.6</ele><time>2026-04-23T07:52:31.673Z</time></trkpt><trkpt lat="48.45682" lon="-4.21636"><ele>119.0</ele><time>2026-04-23T07:52:32.679Z</time></trkpt><trkpt lat="48.4567267" lon="-4.216475"><ele>118.75</ele><time>2026-04-23T07:52:33.673Z</time></trkpt><trkpt lat="48.45663" lon="-4.21659"><ele>118.5</ele><time>2026-04-23T07:52:34.675Z</time></trkpt><trkpt lat="48.4565283" lon="-4.2167083"><ele>118.25</ele><time>2026-04-23T07:52:35.676Z</time></trkpt><trkpt lat="48.456425" lon="-4.2168267"><ele>118.0</ele><time>2026-04-23T07:52:36.675Z</time></trkpt><trkpt lat="48.456325" lon="-4.216945"><ele>118.75</ele><time>2026-04-23T07:52:37.673Z</time></trkpt><trkpt lat="48.456225" lon="-4.2170567"><ele>119.5</ele><time>2026-04-23T07:52:38.677Z</time></trkpt><trkpt lat="48.4561267" lon="-4.217165"><ele>120.25</ele><time>2026-04-23T07:52:39.674Z</time></trkpt><trkpt lat="48.4560333" lon="-4.2172717"><ele>121.0</ele><time>2026-04-23T07:52:40.676Z</time></trkpt><trkpt lat="48.4559467" lon="-4.217375"><ele>121.0</ele><time>2026-04-23T07:52:41.677Z</time></trkpt><trkpt lat="48.45586" lon="-4.2174833"><ele>121.0</ele><time>2026-04-23T07:52:42.675Z</time></trkpt><trkpt lat="48.4557717" lon="-4.2175983"><ele>121.0</ele><time>2026-04-23T07:52:43.676Z</time></trkpt><trkpt lat="48.4556833" lon="-4.2177183"><ele>121.0</ele><time>2026-04-23T07:52:44.683Z</time></trkpt><trkpt lat="48.455605" lon="-4.21784"><ele>121.0</ele><time>2026-04-23T07:52:45.679Z</time></trkpt><trkpt lat="48.4555367" lon="-4.2179633"><ele>121.0</ele><time>2026-04-23T07:52:46.675Z</time></trkpt><trkpt lat="48.455475" lon="-4.2180867"><ele>121.0</ele><time>2026-04-23T07:52:47.681Z</time></trkpt><trkpt lat="48.4554117" lon="-4.21822"><ele>121.0</ele><time>2026-04-23T07:52:48.676Z</time></trkpt><trkpt lat="48.4553483" lon="-4.2183667"><ele>121.0</ele><time>2026-04-23T07:52:49.675Z</time></trkpt><trkpt lat="48.455285" lon="-4.218525"><ele>121.25</ele><time>2026-04-23T07:52:50.676Z</time></trkpt><trkpt lat="48.45522" lon="-4.2186867"><ele>121.5</ele><time>2026-04-23T07:52:51.677Z</time></trkpt><trkpt lat="48.455155" lon="-4.2188467"><ele>121.75</ele><time>2026-04-23T07:52:52.676Z</time></trkpt><trkpt lat="48.45509" lon="-4.219005"><ele>122.0</ele><time>2026-04-23T07:52:53.677Z</time></trkpt><trkpt lat="48.45503" lon="-4.21915"><ele>121.99999999999999</ele><time>2026-04-23T07:52:54.676Z</time></trkpt><trkpt lat="48.45498" lon="-4.2192717"><ele>122.0</ele><time>2026-04-23T07:52:55.679Z</time></trkpt><trkpt lat="48.454945" lon="-4.219365"><ele>122.0</ele><time>2026-04-23T07:52:56.676Z</time></trkpt><trkpt lat="48.4548967" lon="-4.2194683"><ele>122.0</ele><time>2026-04-23T07:52:58.674Z</time></trkpt><trkpt lat="48.4548133" lon="-4.2195033"><ele>121.99999999999999</ele><time>2026-04-23T07:53:01.677Z</time></trkpt><trkpt lat="48.454765" lon="-4.2193967"><ele>122.0</ele><time>2026-04-23T07:53:03.677Z</time></trkpt><trkpt lat="48.4547183" lon="-4.21926"><ele>121.99999999999999</ele><time>2026-04-23T07:53:05.676Z</time></trkpt><trkpt lat="48.4546983" lon="-4.219125"><ele>122.0</ele><time>2026-04-23T07:53:07.672Z</time></trkpt><trkpt lat="48.4546917" lon="-4.2189533"><ele>122.0</ele><time>2026-04-23T07:53:09.673Z</time></trkpt><trkpt lat="48.4546867" lon="-4.218855"><ele>122.0</ele><time>2026-04-23T07:53:10.678Z</time></trkpt><trkpt lat="48.45468" lon="-4.218755"><ele>121.99999999999999</ele><time>2026-04-23T07:53:11.674Z</time></trkpt><trkpt lat="48.454675" lon="-4.2186467"><ele>122.0</ele><time>2026-04-23T07:53:12.676Z</time></trkpt><trkpt lat="48.4546683" lon="-4.2185217"><ele>122.16666666666666</ele><time>2026-04-23T07:53:13.674Z</time></trkpt><trkpt lat="48.4546633" lon="-4.2183917"><ele>122.33333333333333</ele><time>2026-04-23T07:53:14.683Z</time></trkpt><trkpt lat="48.4546617" lon="-4.21827"><ele>122.5</ele><time>2026-04-23T07:53:15.673Z</time></trkpt><trkpt lat="48.4546617" lon="-4.2181533"><ele>122.66666666666666</ele><time>2026-04-23T07:53:16.674Z</time></trkpt><trkpt lat="48.4546617" lon="-4.218035"><ele>122.83333333333333</ele><time>2026-04-23T07:53:17.677Z</time></trkpt><trkpt lat="48.454665" lon="-4.2179083"><ele>123.0</ele><time>2026-04-23T07:53:18.677Z</time></trkpt><trkpt lat="48.4546817" lon="-4.2177717"><ele>123.0</ele><time>2026-04-23T07:53:19.689Z</time></trkpt><trkpt lat="48.4547033" lon="-4.2176417"><ele>123.0</ele><time>2026-04-23T07:53:20.678Z</time></trkpt><trkpt lat="48.454725" lon="-4.2175133"><ele>123.0</ele><time>2026-04-23T07:53:21.677Z</time></trkpt><trkpt lat="48.4547433" lon="-4.2173917"><ele>123.0</ele><time>2026-04-23T07:53:22.675Z</time></trkpt><trkpt lat="48.4547683" lon="-4.2172633"><ele>123.0</ele><time>2026-04-23T07:53:23.675Z</time></trkpt><trkpt lat="48.4547967" lon="-4.21713"><ele>123.0</ele><time>2026-04-23T07:53:24.676Z</time></trkpt><trkpt lat="48.4548217" lon="-4.2169967"><ele>123.0</ele><time>2026-04-23T07:53:25.676Z</time></trkpt><trkpt lat="48.4548517" lon="-4.216865"><ele>123.0</ele><time>2026-04-23T07:53:26.678Z</time></trkpt><trkpt lat="48.4548783" lon="-4.2167333"><ele>123.0</ele><time>2026-04-23T07:53:27.677Z</time></trkpt><trkpt lat="48.4549" lon="-4.2166017"><ele>123.0</ele><time>2026-04-23T07:53:28.677Z</time></trkpt><trkpt lat="48.4549183" lon="-4.2164733"><ele>123.0</ele><time>2026-04-23T07:53:29.674Z</time></trkpt><trkpt lat="48.4549367" lon="-4.2163567"><ele>123.0</ele><time>2026-04-23T07:53:30.675Z</time></trkpt><trkpt lat="48.4549517" lon="-4.2162317"><ele>123.0</ele><time>2026-04-23T07:53:31.675Z</time></trkpt><trkpt lat="48.454965" lon="-4.2160967"><ele>123.00000000000001</ele><time>2026-04-23T07:53:32.674Z</time></trkpt><trkpt lat="48.45498" lon="-4.2159517"><ele>123.00000000000001</ele><time>2026-04-23T07:53:33.679Z</time></trkpt><trkpt lat="48.4549883" lon="-4.215805"><ele>123.0</ele><time>2026-04-23T07:53:34.673Z</time></trkpt><trkpt lat="48.45499" lon="-4.2156567"><ele>123.0</ele><time>2026-04-23T07:53:35.673Z</time></trkpt><trkpt lat="48.4549867" lon="-4.2154967"><ele>123.0</ele><time>2026-04-23T07:53:36.674Z</time></trkpt><trkpt lat="48.4549833" lon="-4.2153267"><ele>123.00000000000001</ele><time>2026-04-23T07:53:37.675Z</time></trkpt><trkpt lat="48.4549783" lon="-4.2151617"><ele>123.00000000000001</ele><time>2026-04-23T07:53:38.679Z</time></trkpt><trkpt lat="48.45498" lon="-4.2149983"><ele>123.0</ele><time>2026-04-23T07:53:39.672Z</time></trkpt><trkpt lat="48.4549817" lon="-4.2148433"><ele>123.0</ele><time>2026-04-23T07:53:40.677Z</time></trkpt><trkpt lat="48.4549817" lon="-4.214685"><ele>123.0</ele><time>2026-04-23T07:53:41.673Z</time></trkpt><trkpt lat="48.454985" lon="-4.2145333"><ele>123.00000000000001</ele><time>2026-04-23T07:53:42.673Z</time></trkpt><trkpt lat="48.4549883" lon="-4.2143883"><ele>123.00000000000001</ele><time>2026-04-23T07:53:43.678Z</time></trkpt><trkpt lat="48.4550017" lon="-4.2142517"><ele>123.0</ele><time>2026-04-23T07:53:44.677Z</time></trkpt><trkpt lat="48.4550217" lon="-4.2141"><ele>123.0</ele><time>2026-04-23T07:53:45.676Z</time></trkpt><trkpt lat="48.4550383" lon="-4.2139533"><ele>122.80000000000001</ele><time>2026-04-23T07:53:46.674Z</time></trkpt><trkpt lat="48.455055" lon="-4.21381"><ele>122.60000000000001</ele><time>2026-04-23T07:53:47.677Z</time></trkpt><trkpt lat="48.455065" lon="-4.2136717"><ele>122.39999999999999</ele><time>2026-04-23T07:53:48.675Z</time></trkpt><trkpt lat="48.4550733" lon="-4.2135267"><ele>122.19999999999999</ele><time>2026-04-23T07:53:49.679Z</time></trkpt><trkpt lat="48.4550817" lon="-4.2133783"><ele>122.0</ele><time>2026-04-23T07:53:50.676Z</time></trkpt><trkpt lat="48.4550867" lon="-4.2132267"><ele>122.0</ele><time>2026-04-23T07:53:51.677Z</time></trkpt><trkpt lat="48.45509" lon="-4.2130767"><ele>121.99999999999999</ele><time>2026-04-23T07:53:52.676Z</time></trkpt><trkpt lat="48.45509" lon="-4.2129267"><ele>121.99999999999999</ele><time>2026-04-23T07:53:53.674Z</time></trkpt><trkpt lat="48.45509" lon="-4.2127833"><ele>122.0</ele><time>2026-04-23T07:53:54.68Z</time></trkpt><trkpt lat="48.4550883" lon="-4.2126467"><ele>122.0</ele><time>2026-04-23T07:53:55.68Z</time></trkpt><trkpt lat="48.4550867" lon="-4.2125083"><ele>122.0</ele><time>2026-04-23T07:53:56.68Z</time></trkpt><trkpt lat="48.4550833" lon="-4.2123617"><ele>121.99999999999999</ele><time>2026-04-23T07:53:57.676Z</time></trkpt><trkpt lat="48.4550767" lon="-4.2122217"><ele>121.99999999999999</ele><time>2026-04-23T07:53:58.674Z</time></trkpt><trkpt lat="48.455075" lon="-4.21207"><ele>122.0</ele><time>2026-04-23T07:53:59.676Z</time></trkpt><trkpt lat="48.4550717" lon="-4.2119267"><ele>122.0</ele><time>2026-04-23T07:54:00.674Z</time></trkpt><trkpt lat="48.455065" lon="-4.2117883"><ele>122.33333333333333</ele><time>2026-04-23T07:54:01.673Z</time></trkpt><trkpt lat="48.45507" lon="-4.2116517"><ele>122.66666666666666</ele><time>2026-04-23T07:54:02.68Z</time></trkpt><trkpt lat="48.45508" lon="-4.2115317"><ele>123.0</ele><time>2026-04-23T07:54:03.673Z</time></trkpt><trkpt lat="48.4550867" lon="-4.2114133"><ele>123.33333333333334</ele><time>2026-04-23T07:54:04.675Z</time></trkpt><trkpt lat="48.45509" lon="-4.2113117"><ele>123.66666666666667</ele><time>2026-04-23T07:54:05.674Z</time></trkpt><trkpt lat="48.4551" lon="-4.2111517"><ele>124.0</ele><time>2026-04-23T07:54:07.673Z</time></trkpt><trkpt lat="48.455115" lon="-4.210975"><ele>124.14285714285715</ele><time>2026-04-23T07:54:09.676Z</time></trkpt><trkpt lat="48.4551267" lon="-4.2108817"><ele>124.2857142857143</ele><time>2026-04-23T07:54:10.678Z</time></trkpt><trkpt lat="48.455135" lon="-4.2107767"><ele>124.42857142857143</ele><time>2026-04-23T07:54:11.677Z</time></trkpt><trkpt lat="48.45514" lon="-4.210675"><ele>124.57142857142858</ele><time>2026-04-23T07:54:12.673Z</time></trkpt><trkpt lat="48.45515" lon="-4.2105667"><ele>124.71428571428572</ele><time>2026-04-23T07:54:13.677Z</time></trkpt><trkpt lat="48.4551633" lon="-4.2104433"><ele>124.85714285714286</ele><time>2026-04-23T07:54:14.675Z</time></trkpt><trkpt lat="48.4551767" lon="-4.2103233"><ele>125.0</ele><time>2026-04-23T07:54:15.674Z</time></trkpt><trkpt lat="48.455185" lon="-4.210215"><ele>125.0</ele><time>2026-04-23T07:54:16.673Z</time></trkpt><trkpt lat="48.455195" lon="-4.2101017"><ele>125.0</ele><time>2026-04-23T07:54:17.671Z</time></trkpt><trkpt lat="48.455205" lon="-4.21"><ele>125.0</ele><time>2026-04-23T07:54:18.679Z</time></trkpt><trkpt lat="48.4552083" lon="-4.2098933"><ele>125.0</ele><time>2026-04-23T07:54:19.673Z</time></trkpt><trkpt lat="48.4552167" lon="-4.2097917"><ele>125.0</ele><time>2026-04-23T07:54:20.676Z</time></trkpt><trkpt lat="48.45522" lon="-4.2096867"><ele>125.0</ele><time>2026-04-23T07:54:21.676Z</time></trkpt><trkpt lat="48.4552233" lon="-4.2095917"><ele>125.0</ele><time>2026-04-23T07:54:22.675Z</time></trkpt><trkpt lat="48.45523" lon="-4.209495"><ele>124.99999999999999</ele><time>2026-04-23T07:54:23.676Z</time></trkpt><trkpt lat="48.45524" lon="-4.2093933"><ele>125.0</ele><time>2026-04-23T07:54:24.676Z</time></trkpt><trkpt lat="48.4552483" lon="-4.20928"><ele>125.0</ele><time>2026-04-23T07:54:25.676Z</time></trkpt><trkpt lat="48.4552567" lon="-4.20918"><ele>125.0</ele><time>2026-04-23T07:54:26.675Z</time></trkpt><trkpt lat="48.4552633" lon="-4.2090083"><ele>124.99999999999999</ele><time>2026-04-23T07:54:28.677Z</time></trkpt><trkpt lat="48.45528" lon="-4.2088867"><ele>125.0</ele><time>2026-04-23T07:54:30.677Z</time></trkpt><trkpt lat="48.4553017" lon="-4.2087883"><ele>125.16666666666666</ele><time>2026-04-23T07:54:32.676Z</time></trkpt><trkpt lat="48.455325" lon="-4.208675"><ele>125.33333333333333</ele><time>2026-04-23T07:54:35.672Z</time></trkpt><trkpt lat="48.4553317" lon="-4.208505"><ele>125.5</ele><time>2026-04-23T07:55:20.677Z</time></trkpt><trkpt lat="48.4553533" lon="-4.2083267"><ele>125.66666666666666</ele><time>2026-04-23T07:55:22.674Z</time></trkpt><trkpt lat="48.45536" lon="-4.20823"><ele>125.83333333333333</ele><time>2026-04-23T07:55:23.677Z</time></trkpt><trkpt lat="48.4553667" lon="-4.2081333"><ele>126.0</ele><time>2026-04-23T07:55:24.678Z</time></trkpt><trkpt lat="48.4553733" lon="-4.20802"><ele>126.14285714285714</ele><time>2026-04-23T07:55:25.676Z</time></trkpt><trkpt lat="48.455395" lon="-4.2079183"><ele>126.28571428571428</ele><time>2026-04-23T07:55:26.673Z</time></trkpt><trkpt lat="48.4554083" lon="-4.2078083"><ele>126.42857142857143</ele><time>2026-04-23T07:55:27.676Z</time></trkpt><trkpt lat="48.4554233" lon="-4.2076883"><ele>126.57142857142857</ele><time>2026-04-23T07:55:28.681Z</time></trkpt><trkpt lat="48.4554417" lon="-4.2075783"><ele>126.71428571428571</ele><time>2026-04-23T07:55:29.674Z</time></trkpt><trkpt lat="48.4554617" lon="-4.2074817"><ele>126.85714285714286</ele><time>2026-04-23T07:55:30.678Z</time></trkpt><trkpt lat="48.4554783" lon="-4.207385"><ele>127.0</ele><time>2026-04-23T07:55:31.675Z</time></trkpt><trkpt lat="48.4554917" lon="-4.2072867"><ele>127.16666666666667</ele><time>2026-04-23T07:55:32.677Z</time></trkpt><trkpt lat="48.4555317" lon="-4.2071333"><ele>127.33333333333334</ele><time>2026-04-23T07:55:34.678Z</time></trkpt><trkpt lat="48.4555533" lon="-4.2070167"><ele>127.5</ele><time>2026-04-23T07:55:36.671Z</time></trkpt><trkpt lat="48.4555667" lon="-4.206875"><ele>127.66666666666666</ele><time>2026-04-23T07:55:39.675Z</time></trkpt><trkpt lat="48.45558" lon="-4.2067767"><ele>127.83333333333333</ele><time>2026-04-23T07:55:41.675Z</time></trkpt><trkpt lat="48.4556083" lon="-4.2066783"><ele>128.0</ele><time>2026-04-23T07:55:43.675Z</time></trkpt><trkpt lat="48.4556417" lon="-4.2065533"><ele>128.16666666666666</ele><time>2026-04-23T07:55:46.673Z</time></trkpt><trkpt lat="48.45566" lon="-4.20642"><ele>128.33333333333331</ele><time>2026-04-23T07:55:49.672Z</time></trkpt><trkpt lat="48.45568" lon="-4.20631"><ele>128.5</ele><time>2026-04-23T07:55:52.674Z</time></trkpt><trkpt lat="48.4557583" lon="-4.2062733"><ele>128.66666666666666</ele><time>2026-04-23T07:56:12.674Z</time></trkpt><trkpt lat="48.4558417" lon="-4.2063367"><ele>128.83333333333334</ele><time>2026-04-23T07:56:15.679Z</time></trkpt><trkpt lat="48.4559217" lon="-4.2063933"><ele>129.0</ele><time>2026-04-23T07:56:17.674Z</time></trkpt><trkpt lat="48.456015" lon="-4.2064567"><ele>129.0</ele><time>2026-04-23T07:56:19.672Z</time></trkpt><trkpt lat="48.45612" lon="-4.2065217"><ele>129.0</ele><time>2026-04-23T07:56:21.675Z</time></trkpt><trkpt lat="48.456225" lon="-4.20658"><ele>129.0</ele><time>2026-04-23T07:56:23.678Z</time></trkpt><trkpt lat="48.4562867" lon="-4.2066117"><ele>129.0</ele><time>2026-04-23T07:56:24.674Z</time></trkpt><trkpt lat="48.45635" lon="-4.2066483"><ele>129.0</ele><time>2026-04-23T07:56:25.674Z</time></trkpt><trkpt lat="48.45642" lon="-4.20669"><ele>129.0</ele><time>2026-04-23T07:56:26.675Z</time></trkpt><trkpt lat="48.4564883" lon="-4.2067333"><ele>128.99999999999997</ele><time>2026-04-23T07:56:27.675Z</time></trkpt><trkpt lat="48.456555" lon="-4.2067717"><ele>129.0</ele><time>2026-04-23T07:56:28.678Z</time></trkpt><trkpt lat="48.4566167" lon="-4.2068117"><ele>129.0</ele><time>2026-04-23T07:56:29.675Z</time></trkpt><trkpt lat="48.456685" lon="-4.2068533"><ele>129.0</ele><time>2026-04-23T07:56:30.684Z</time></trkpt><trkpt lat="48.45675" lon="-4.2068883"><ele>129.0</ele><time>2026-04-23T07:56:31.677Z</time></trkpt><trkpt lat="48.4568167" lon="-4.2069167"><ele>128.99999999999997</ele><time>2026-04-23T07:56:32.674Z</time></trkpt><trkpt lat="48.45688" lon="-4.2069417"><ele>129.0</ele><time>2026-04-23T07:56:33.678Z</time></trkpt><trkpt lat="48.457005" lon="-4.206985"><ele>129.0</ele><time>2026-04-23T07:56:35.676Z</time></trkpt><trkpt lat="48.4571283" lon="-4.20702"><ele>129.0</ele><time>2026-04-23T07:56:37.675Z</time></trkpt><trkpt lat="48.457205" lon="-4.2070467"><ele>129.0</ele><time>2026-04-23T07:56:38.674Z</time></trkpt><trkpt lat="48.4572767" lon="-4.207075"><ele>129.0</ele><time>2026-04-23T07:56:39.677Z</time></trkpt><trkpt lat="48.4573517" lon="-4.2071083"><ele>129.0</ele><time>2026-04-23T07:56:40.679Z</time></trkpt><trkpt lat="48.4574217" lon="-4.2071417"><ele>129.0</ele><time>2026-04-23T07:56:41.679Z</time></trkpt><trkpt lat="48.4574883" lon="-4.2071833"><ele>129.0</ele><time>2026-04-23T07:56:42.678Z</time></trkpt><trkpt lat="48.4575467" lon="-4.2072217"><ele>129.0</ele><time>2026-04-23T07:56:43.676Z</time></trkpt><trkpt lat="48.4576633" lon="-4.2072933"><ele>129.0</ele><time>2026-04-23T07:56:45.679Z</time></trkpt><trkpt lat="48.4577467" lon="-4.2073517"><ele>129.0</ele><time>2026-04-23T07:56:47.676Z</time></trkpt><trkpt lat="48.4578067" lon="-4.20739"><ele>129.0</ele><time>2026-04-23T07:56:50.675Z</time></trkpt><trkpt lat="48.45773" lon="-4.2073317"><ele>129.0</ele><time>2026-04-23T07:57:41.678Z</time></trkpt><trkpt lat="48.45767" lon="-4.2072917"><ele>129.0</ele><time>2026-04-23T07:57:43.678Z</time></trkpt><trkpt lat="48.4575983" lon="-4.207255"><ele>129.0</ele><time>2026-04-23T07:57:45.679Z</time></trkpt><trkpt lat="48.4575183" lon="-4.20721"><ele>129.0</ele><time>2026-04-23T07:57:47.676Z</time></trkpt><trkpt lat="48.4574267" lon="-4.20717"><ele>129.0</ele><time>2026-04-23T07:57:49.676Z</time></trkpt><trkpt lat="48.4573217" lon="-4.2071183"><ele>129.0</ele><time>2026-04-23T07:57:51.677Z</time></trkpt><trkpt lat="48.4572017" lon="-4.207075"><ele>129.0</ele><time>2026-04-23T07:57:53.676Z</time></trkpt><trkpt lat="48.4570883" lon="-4.20704"><ele>129.0</ele><time>2026-04-23T07:57:55.679Z</time></trkpt><trkpt lat="48.4569733" lon="-4.207005"><ele>129.0</ele><time>2026-04-23T07:57:57.674Z</time></trkpt><trkpt lat="48.456885" lon="-4.2069483"><ele>129.0</ele><time>2026-04-23T07:57:59.677Z</time></trkpt><trkpt lat="48.4567867" lon="-4.2068933"><ele>129.0</ele><time>2026-04-23T07:58:01.675Z</time></trkpt><trkpt lat="48.456685" lon="-4.2068417"><ele>129.0</ele><time>2026-04-23T07:58:03.675Z</time></trkpt><trkpt lat="48.4565783" lon="-4.206785"><ele>129.0</ele><time>2026-04-23T07:58:05.678Z</time></trkpt><trkpt lat="48.4564667" lon="-4.20672"><ele>129.0</ele><time>2026-04-23T07:58:07.676Z</time></trkpt><trkpt lat="48.4563817" lon="-4.206685"><ele>129.0</ele><time>2026-04-23T07:58:09.678Z</time></trkpt><trkpt lat="48.4562967" lon="-4.206635"><ele>129.0</ele><time>2026-04-23T07:58:11.676Z</time></trkpt><trkpt lat="48.4561933" lon="-4.2065717"><ele>129.0</ele><time>2026-04-23T07:58:13.676Z</time></trkpt><trkpt lat="48.4560967" lon="-4.2065"><ele>129.0</ele><time>2026-04-23T07:58:15.679Z</time></trkpt><trkpt lat="48.4559967" lon="-4.20643"><ele>129.0</ele><time>2026-04-23T07:58:17.675Z</time></trkpt><trkpt lat="48.455915" lon="-4.2063967"><ele>129.0</ele><time>2026-04-23T07:58:19.676Z</time></trkpt><trkpt lat="48.4558483" lon="-4.2063717"><ele>129.0</ele><time>2026-04-23T07:58:21.674Z</time></trkpt><trkpt lat="48.45573" lon="-4.2063033"><ele>129.0</ele><time>2026-04-23T07:58:55.672Z</time></trkpt><trkpt lat="48.4556933" lon="-4.2063883"><ele>129.0</ele><time>2026-04-23T07:58:58.675Z</time></trkpt><trkpt lat="48.4556533" lon="-4.206525"><ele>129.0</ele><time>2026-04-23T07:59:00.678Z</time></trkpt><trkpt lat="48.4556133" lon="-4.20672"><ele>129.0</ele><time>2026-04-23T07:59:02.677Z</time></trkpt><trkpt lat="48.4555917" lon="-4.2068383"><ele>129.0</ele><time>2026-04-23T07:59:03.679Z</time></trkpt><trkpt lat="48.4555717" lon="-4.2069617"><ele>128.83333333333334</ele><time>2026-04-23T07:59:04.674Z</time></trkpt><trkpt lat="48.4555517" lon="-4.2070833"><ele>128.66666666666666</ele><time>2026-04-23T07:59:05.675Z</time></trkpt><trkpt lat="48.4555267" lon="-4.20721"><ele>128.5</ele><time>2026-04-23T07:59:06.674Z</time></trkpt><trkpt lat="48.4555017" lon="-4.20734"><ele>128.33333333333331</ele><time>2026-04-23T07:59:07.677Z</time></trkpt><trkpt lat="48.4554733" lon="-4.2074733"><ele>128.16666666666666</ele><time>2026-04-23T07:59:08.674Z</time></trkpt><trkpt lat="48.4554483" lon="-4.20761"><ele>128.0</ele><time>2026-04-23T07:59:09.675Z</time></trkpt><trkpt lat="48.4554267" lon="-4.2077417"><ele>127.83333333333333</ele><time>2026-04-23T07:59:10.677Z</time></trkpt><trkpt lat="48.45541" lon="-4.2078633"><ele>127.66666666666666</ele><time>2026-04-23T07:59:11.678Z</time></trkpt><trkpt lat="48.4553917" lon="-4.20799"><ele>127.5</ele><time>2026-04-23T07:59:12.678Z</time></trkpt><trkpt lat="48.4553717" lon="-4.2081233"><ele>127.33333333333334</ele><time>2026-04-23T07:59:13.674Z</time></trkpt><trkpt lat="48.45535" lon="-4.2082567"><ele>127.16666666666667</ele><time>2026-04-23T07:59:14.677Z</time></trkpt><trkpt lat="48.4553167" lon="-4.2083617"><ele>127.0</ele><time>2026-04-23T07:59:15.676Z</time></trkpt><trkpt lat="48.4553333" lon="-4.2084533"><ele>127.00000000000001</ele><time>2026-04-23T07:59:18.672Z</time></trkpt><trkpt lat="48.45543" lon="-4.2084367"><ele>127.0</ele><time>2026-04-23T07:59:20.677Z</time></trkpt><trkpt lat="48.45555" lon="-4.2084133"><ele>127.0</ele><time>2026-04-23T07:59:22.675Z</time></trkpt><trkpt lat="48.4556117" lon="-4.2083767"><ele>127.0</ele><time>2026-04-23T07:59:23.679Z</time></trkpt><trkpt lat="48.4556783" lon="-4.2083517"><ele>127.00000000000001</ele><time>2026-04-23T07:59:24.676Z</time></trkpt><trkpt lat="48.4557467" lon="-4.2083317"><ele>127.0</ele><time>2026-04-23T07:59:25.678Z</time></trkpt><trkpt lat="48.4558733" lon="-4.2083267"><ele>127.00000000000001</ele><time>2026-04-23T07:59:27.678Z</time></trkpt><trkpt lat="48.4559367" lon="-4.208335"><ele>127.0</ele><time>2026-04-23T07:59:28.674Z</time></trkpt><trkpt lat="48.4560033" lon="-4.2083533"><ele>127.0</ele><time>2026-04-23T07:59:29.675Z</time></trkpt><trkpt lat="48.4560767" lon="-4.2083767"><ele>127.0</ele><time>2026-04-23T07:59:30.678Z</time></trkpt><trkpt lat="48.4561617" lon="-4.208405"><ele>127.00000000000001</ele><time>2026-04-23T07:59:31.676Z</time></trkpt><trkpt lat="48.4562333" lon="-4.20844"><ele>127.0</ele><time>2026-04-23T07:59:32.678Z</time></trkpt><trkpt lat="48.4563117" lon="-4.2084783"><ele>127.00000000000001</ele><time>2026-04-23T07:59:33.673Z</time></trkpt><trkpt lat="48.4563883" lon="-4.20852"><ele>127.0</ele><time>2026-04-23T07:59:34.676Z</time></trkpt><trkpt lat="48.456465" lon="-4.2085633"><ele>127.0</ele><time>2026-04-23T07:59:35.676Z</time></trkpt><trkpt lat="48.456535" lon="-4.2086"><ele>127.0</ele><time>2026-04-23T07:59:36.677Z</time></trkpt><trkpt lat="48.456605" lon="-4.2086317"><ele>127.00000000000001</ele><time>2026-04-23T07:59:37.68Z</time></trkpt><trkpt lat="48.456675" lon="-4.2086583"><ele>127.0</ele><time>2026-04-23T07:59:38.677Z</time></trkpt><trkpt lat="48.45674" lon="-4.208685"><ele>127.0</ele><time>2026-04-23T07:59:39.674Z</time></trkpt><trkpt lat="48.4568083" lon="-4.2087"><ele>127.0</ele><time>2026-04-23T07:59:40.674Z</time></trkpt><trkpt lat="48.4568867" lon="-4.2087083"><ele>127.0</ele><time>2026-04-23T07:59:41.672Z</time></trkpt><trkpt lat="48.456965" lon="-4.20871"><ele>127.0</ele><time>2026-04-23T07:59:42.673Z</time></trkpt><trkpt lat="48.4570417" lon="-4.2087033"><ele>127.0</ele><time>2026-04-23T07:59:43.677Z</time></trkpt><trkpt lat="48.45711" lon="-4.208695"><ele>127.0</ele><time>2026-04-23T07:59:44.675Z</time></trkpt><trkpt lat="48.4571767" lon="-4.20869"><ele>127.0</ele><time>2026-04-23T07:59:45.673Z</time></trkpt><trkpt lat="48.4572867" lon="-4.2087083"><ele>127.19999999999999</ele><time>2026-04-23T07:59:47.675Z</time></trkpt><trkpt lat="48.45736" lon="-4.2087883"><ele>127.39999999999999</ele><time>2026-04-23T07:59:49.679Z</time></trkpt><trkpt lat="48.4574133" lon="-4.20893"><ele>127.60000000000001</ele><time>2026-04-23T07:59:51.676Z</time></trkpt><trkpt lat="48.457475" lon="-4.2091017"><ele>127.80000000000001</ele><time>2026-04-23T07:59:53.675Z</time></trkpt><trkpt lat="48.4575133" lon="-4.20919"><ele>128.0</ele><time>2026-04-23T07:59:54.674Z</time></trkpt><trkpt lat="48.4575533" lon="-4.20928"><ele>128.16666666666666</ele><time>2026-04-23T07:59:55.678Z</time></trkpt><trkpt lat="48.4575967" lon="-4.2093767"><ele>128.33333333333331</ele><time>2026-04-23T07:59:56.676Z</time></trkpt><trkpt lat="48.4576783" lon="-4.2095183"><ele>128.5</ele><time>2026-04-23T07:59:58.675Z</time></trkpt><trkpt lat="48.4577117" lon="-4.209605"><ele>128.66666666666666</ele><time>2026-04-23T07:59:59.678Z</time></trkpt><trkpt lat="48.4577533" lon="-4.2097317"><ele>128.83333333333334</ele><time>2026-04-23T08:00:01.675Z</time></trkpt><trkpt lat="48.45775" lon="-4.209855"><ele>129.0</ele><time>2026-04-23T08:00:03.68Z</time></trkpt><trkpt lat="48.4577283" lon="-4.20995"><ele>128.5</ele><time>2026-04-23T08:00:04.68Z</time></trkpt><trkpt lat="48.45769" lon="-4.21005"><ele>128.0</ele><time>2026-04-23T08:00:05.676Z</time></trkpt><trkpt lat="48.4576417" lon="-4.2101667"><ele>127.5</ele><time>2026-04-23T08:00:06.68Z</time></trkpt><trkpt lat="48.4576033" lon="-4.21027"><ele>127.0</ele><time>2026-04-23T08:00:07.676Z</time></trkpt><trkpt lat="48.4575567" lon="-4.2103833"><ele>126.5</ele><time>2026-04-23T08:00:08.677Z</time></trkpt><trkpt lat="48.45752" lon="-4.2105017"><ele>126.0</ele><time>2026-04-23T08:00:09.676Z</time></trkpt><trkpt lat="48.457495" lon="-4.2105983"><ele>125.66666666666667</ele><time>2026-04-23T08:00:10.68Z</time></trkpt><trkpt lat="48.4574583" lon="-4.21072"><ele>125.33333333333334</ele><time>2026-04-23T08:00:11.675Z</time></trkpt><trkpt lat="48.457425" lon="-4.2108283"><ele>125.0</ele><time>2026-04-23T08:00:12.676Z</time></trkpt><trkpt lat="48.4574033" lon="-4.2109217"><ele>124.66666666666667</ele><time>2026-04-23T08:00:13.674Z</time></trkpt><trkpt lat="48.45738" lon="-4.2110267"><ele>124.33333333333334</ele><time>2026-04-23T08:00:14.675Z</time></trkpt><trkpt lat="48.45736" lon="-4.21115"><ele>124.0</ele><time>2026-04-23T08:00:15.675Z</time></trkpt><trkpt lat="48.4573367" lon="-4.2112767"><ele>124.00000000000001</ele><time>2026-04-23T08:00:16.679Z</time></trkpt><trkpt lat="48.4573083" lon="-4.2113817"><ele>124.0</ele><time>2026-04-23T08:00:17.674Z</time></trkpt><trkpt lat="48.45726" lon="-4.2115483"><ele>124.0</ele><time>2026-04-23T08:00:19.676Z</time></trkpt><trkpt lat="48.457215" lon="-4.2116367"><ele>124.0</ele><time>2026-04-23T08:00:20.676Z</time></trkpt><trkpt lat="48.4571667" lon="-4.2117367"><ele>124.00000000000001</ele><time>2026-04-23T08:00:21.675Z</time></trkpt><trkpt lat="48.4571267" lon="-4.2118317"><ele>124.0</ele><time>2026-04-23T08:00:22.676Z</time></trkpt><trkpt lat="48.45708" lon="-4.2119233"><ele>123.66666666666667</ele><time>2026-04-23T08:00:23.675Z</time></trkpt><trkpt lat="48.4570283" lon="-4.2120017"><ele>123.33333333333334</ele><time>2026-04-23T08:00:24.676Z</time></trkpt><trkpt lat="48.4569583" lon="-4.212115"><ele>123.0</ele><time>2026-04-23T08:00:26.677Z</time></trkpt><trkpt lat="48.4568867" lon="-4.2122383"><ele>122.66666666666666</ele><time>2026-04-23T08:00:28.676Z</time></trkpt><trkpt lat="48.4568517" lon="-4.2123517"><ele>122.33333333333333</ele><time>2026-04-23T08:00:30.678Z</time></trkpt><trkpt lat="48.4568583" lon="-4.2124633"><ele>122.0</ele><time>2026-04-23T08:00:32.686Z</time></trkpt><trkpt lat="48.4568917" lon="-4.2125683"><ele>121.99999999999999</ele><time>2026-04-23T08:00:34.675Z</time></trkpt><trkpt lat="48.45694" lon="-4.212675"><ele>122.0</ele><time>2026-04-23T08:00:36.675Z</time></trkpt><trkpt lat="48.4569867" lon="-4.2127867"><ele>122.0</ele><time>2026-04-23T08:00:38.677Z</time></trkpt><trkpt lat="48.4570417" lon="-4.2128833"><ele>122.0</ele><time>2026-04-23T08:00:40.677Z</time></trkpt><trkpt lat="48.4571033" lon="-4.2129783"><ele>121.99999999999999</ele><time>2026-04-23T08:00:42.678Z</time></trkpt><trkpt lat="48.457165" lon="-4.2130867"><ele>122.0</ele><time>2026-04-23T08:00:44.675Z</time></trkpt><trkpt lat="48.457225" lon="-4.213195"><ele>121.33333333333333</ele><time>2026-04-23T08:00:46.675Z</time></trkpt><trkpt lat="48.457285" lon="-4.2133383"><ele>120.66666666666666</ele><time>2026-04-23T08:00:48.676Z</time></trkpt><trkpt lat="48.4573233" lon="-4.2134217"><ele>120.0</ele><time>2026-04-23T08:00:49.681Z</time></trkpt><trkpt lat="48.4573733" lon="-4.2135167"><ele>119.33333333333334</ele><time>2026-04-23T08:00:50.678Z</time></trkpt><trkpt lat="48.457425" lon="-4.2136183"><ele>118.66666666666667</ele><time>2026-04-23T08:00:51.676Z</time></trkpt><trkpt lat="48.4574767" lon="-4.2137217"><ele>118.0</ele><time>2026-04-23T08:00:52.675Z</time></trkpt><trkpt lat="48.45753" lon="-4.2138267"><ele>118.00000000000001</ele><time>2026-04-23T08:00:53.678Z</time></trkpt><trkpt lat="48.4575833" lon="-4.2139333"><ele>118.0</ele><time>2026-04-23T08:00:54.679Z</time></trkpt><trkpt lat="48.4576367" lon="-4.2140333"><ele>118.0</ele><time>2026-04-23T08:00:55.675Z</time></trkpt><trkpt lat="48.4576883" lon="-4.2141233"><ele>118.0</ele><time>2026-04-23T08:00:56.675Z</time></trkpt><trkpt lat="48.4577367" lon="-4.2141933"><ele>118.00000000000001</ele><time>2026-04-23T08:00:57.679Z</time></trkpt><trkpt lat="48.4578117" lon="-4.21428"><ele>118.0</ele><time>2026-04-23T08:00:59.678Z</time></trkpt><trkpt lat="48.4579" lon="-4.214255"><ele>118.0</ele><time>2026-04-23T08:02:06.674Z</time></trkpt><trkpt lat="48.457975" lon="-4.2141183"><ele>118.00000000000001</ele><time>2026-04-23T08:02:08.675Z</time></trkpt><trkpt lat="48.458025" lon="-4.2140383"><ele>118.00000000000001</ele><time>2026-04-23T08:02:09.675Z</time></trkpt><trkpt lat="48.45808" lon="-4.21395"><ele>118.0</ele><time>2026-04-23T08:02:10.675Z</time></trkpt><trkpt lat="48.4581383" lon="-4.2138517"><ele>118.0</ele><time>2026-04-23T08:02:11.677Z</time></trkpt><trkpt lat="48.4582017" lon="-4.21374"><ele>118.0</ele><time>2026-04-23T08:02:12.674Z</time></trkpt><trkpt lat="48.458275" lon="-4.2136133"><ele>118.0</ele><time>2026-04-23T08:02:13.673Z</time></trkpt><trkpt lat="48.458355" lon="-4.21348"><ele>118.0</ele><time>2026-04-23T08:02:14.675Z</time></trkpt><trkpt lat="48.458445" lon="-4.2133467"><ele>118.0</ele><time>2026-04-23T08:02:15.671Z</time></trkpt><trkpt lat="48.4585483" lon="-4.2132183"><ele>118.25</ele><time>2026-04-23T08:02:16.674Z</time></trkpt><trkpt lat="48.4586583" lon="-4.2131033"><ele>118.5</ele><time>2026-04-23T08:02:17.678Z</time></trkpt><trkpt lat="48.4587733" lon="-4.2129917"><ele>118.75</ele><time>2026-04-23T08:02:18.675Z</time></trkpt><trkpt lat="48.45889" lon="-4.2128733"><ele>119.0</ele><time>2026-04-23T08:02:19.675Z</time></trkpt><trkpt lat="48.4590117" lon="-4.2127583"><ele>119.0</ele><time>2026-04-23T08:02:20.674Z</time></trkpt><trkpt lat="48.4591333" lon="-4.2126517"><ele>119.0</ele><time>2026-04-23T08:02:21.673Z</time></trkpt><trkpt lat="48.4592483" lon="-4.212555"><ele>119.0</ele><time>2026-04-23T08:02:22.675Z</time></trkpt><trkpt lat="48.4593667" lon="-4.2124683"><ele>119.0</ele><time>2026-04-23T08:02:23.674Z</time></trkpt><trkpt lat="48.4594817" lon="-4.2123917"><ele>119.0</ele><time>2026-04-23T08:02:24.675Z</time></trkpt><trkpt lat="48.4595983" lon="-4.2123183"><ele>119.0</ele><time>2026-04-23T08:02:25.673Z</time></trkpt><trkpt lat="48.4597133" lon="-4.2122467"><ele>119.0</ele><time>2026-04-23T08:02:26.681Z</time></trkpt><trkpt lat="48.45983" lon="-4.21217"><ele>119.0</ele><time>2026-04-23T08:02:27.676Z</time></trkpt><trkpt lat="48.4599483" lon="-4.212095"><ele>118.75</ele><time>2026-04-23T08:02:28.675Z</time></trkpt><trkpt lat="48.4600683" lon="-4.2120267"><ele>118.5</ele><time>2026-04-23T08:02:29.677Z</time></trkpt><trkpt lat="48.4601933" lon="-4.211955"><ele>118.25</ele><time>2026-04-23T08:02:30.676Z</time></trkpt><trkpt lat="48.4603183" lon="-4.21188"><ele>118.0</ele><time>2026-04-23T08:02:31.675Z</time></trkpt><trkpt lat="48.460445" lon="-4.2118"><ele>118.0</ele><time>2026-04-23T08:02:32.677Z</time></trkpt><trkpt lat="48.4605733" lon="-4.21172"><ele>118.0</ele><time>2026-04-23T08:02:33.68Z</time></trkpt><trkpt lat="48.4607017" lon="-4.2116333"><ele>118.0</ele><time>2026-04-23T08:02:34.676Z</time></trkpt><trkpt lat="48.4608267" lon="-4.2115433"><ele>118.0</ele><time>2026-04-23T08:02:35.674Z</time></trkpt><trkpt lat="48.4609483" lon="-4.2114417"><ele>118.25</ele><time>2026-04-23T08:02:36.676Z</time></trkpt><trkpt lat="48.4610667" lon="-4.2113367"><ele>118.5</ele><time>2026-04-23T08:02:37.679Z</time></trkpt><trkpt lat="48.46118" lon="-4.2112217"><ele>118.75</ele><time>2026-04-23T08:02:38.679Z</time></trkpt><trkpt lat="48.4612867" lon="-4.2111067"><ele>119.0</ele><time>2026-04-23T08:02:39.676Z</time></trkpt><trkpt lat="48.4613883" lon="-4.210985"><ele>117.5</ele><time>2026-04-23T08:02:40.675Z</time></trkpt><trkpt lat="48.461495" lon="-4.2108583"><ele>116.0</ele><time>2026-04-23T08:02:41.677Z</time></trkpt><trkpt lat="48.4616083" lon="-4.2107317"><ele>114.5</ele><time>2026-04-23T08:02:42.678Z</time></trkpt><trkpt lat="48.4617233" lon="-4.2106083"><ele>113.0</ele><time>2026-04-23T08:02:43.674Z</time></trkpt><trkpt lat="48.4618367" lon="-4.2104933"><ele>113.0</ele><time>2026-04-23T08:02:44.675Z</time></trkpt><trkpt lat="48.46195" lon="-4.210385"><ele>113.0</ele><time>2026-04-23T08:02:45.671Z</time></trkpt><trkpt lat="48.4620667" lon="-4.2102883"><ele>113.0</ele><time>2026-04-23T08:02:46.676Z</time></trkpt><trkpt lat="48.4621717" lon="-4.2102033"><ele>113.0</ele><time>2026-04-23T08:02:47.676Z</time></trkpt><trkpt lat="48.462265" lon="-4.2101317"><ele>112.33333333333333</ele><time>2026-04-23T08:02:48.674Z</time></trkpt><trkpt lat="48.46235" lon="-4.2100817"><ele>111.66666666666666</ele><time>2026-04-23T08:02:49.683Z</time></trkpt><trkpt lat="48.46242" lon="-4.2100417"><ele>111.0</ele><time>2026-04-23T08:02:50.676Z</time></trkpt><trkpt lat="48.4625183" lon="-4.2099783"><ele>110.33333333333334</ele><time>2026-04-23T08:02:52.676Z</time></trkpt><trkpt lat="48.4625517" lon="-4.2098733"><ele>109.66666666666667</ele><time>2026-04-23T08:02:54.675Z</time></trkpt><trkpt lat="48.4625267" lon="-4.2097817"><ele>109.0</ele><time>2026-04-23T08:02:57.673Z</time></trkpt><trkpt lat="48.4624717" lon="-4.2096967"><ele>110.6</ele><time>2026-04-23T08:02:59.674Z</time></trkpt><trkpt lat="48.4624133" lon="-4.2096533"><ele>112.2</ele><time>2026-04-23T08:03:00.676Z</time></trkpt><trkpt lat="48.4623333" lon="-4.20961"><ele>113.79999999999998</ele><time>2026-04-23T08:03:01.675Z</time></trkpt><trkpt lat="48.4622333" lon="-4.2095717"><ele>115.39999999999999</ele><time>2026-04-23T08:03:02.68Z</time></trkpt><trkpt lat="48.4621283" lon="-4.2095233"><ele>117.0</ele><time>2026-04-23T08:03:03.673Z</time></trkpt><trkpt lat="48.462015" lon="-4.2094767"><ele>117.0</ele><time>2026-04-23T08:03:04.674Z</time></trkpt><trkpt lat="48.461895" lon="-4.2094283"><ele>117.0</ele><time>2026-04-23T08:03:05.671Z</time></trkpt><trkpt lat="48.4617783" lon="-4.2093833"><ele>117.0</ele><time>2026-04-23T08:03:06.679Z</time></trkpt><trkpt lat="48.4616683" lon="-4.2093383"><ele>117.0</ele><time>2026-04-23T08:03:07.675Z</time></trkpt><trkpt lat="48.4615583" lon="-4.2092933"><ele>117.0</ele><time>2026-04-23T08:03:08.678Z</time></trkpt><trkpt lat="48.4614433" lon="-4.209245"><ele>117.0</ele><time>2026-04-23T08:03:09.679Z</time></trkpt><trkpt lat="48.4613267" lon="-4.2091967"><ele>117.0</ele><time>2026-04-23T08:03:10.677Z</time></trkpt><trkpt lat="48.461215" lon="-4.20915"><ele>117.0</ele><time>2026-04-23T08:03:11.674Z</time></trkpt><trkpt lat="48.4611083" lon="-4.2091067"><ele>117.39999999999999</ele><time>2026-04-23T08:03:12.675Z</time></trkpt><trkpt lat="48.4610067" lon="-4.209065"><ele>117.79999999999998</ele><time>2026-04-23T08:03:13.672Z</time></trkpt><trkpt lat="48.460905" lon="-4.20902"><ele>118.2</ele><time>2026-04-23T08:03:14.678Z</time></trkpt><trkpt lat="48.4608033" lon="-4.208975"><ele>118.6</ele><time>2026-04-23T08:03:15.677Z</time></trkpt><trkpt lat="48.4607" lon="-4.2089283"><ele>119.0</ele><time>2026-04-23T08:03:16.673Z</time></trkpt><trkpt lat="48.4606017" lon="-4.208885"><ele>119.16666666666666</ele><time>2026-04-23T08:03:17.675Z</time></trkpt><trkpt lat="48.4605117" lon="-4.208845"><ele>119.33333333333333</ele><time>2026-04-23T08:03:18.677Z</time></trkpt><trkpt lat="48.4604267" lon="-4.2088083"><ele>119.5</ele><time>2026-04-23T08:03:19.676Z</time></trkpt><trkpt lat="48.4603433" lon="-4.2087733"><ele>119.66666666666666</ele><time>2026-04-23T08:03:20.675Z</time></trkpt><trkpt lat="48.4602583" lon="-4.20874"><ele>119.83333333333333</ele><time>2026-04-23T08:03:21.676Z</time></trkpt><trkpt lat="48.4601783" lon="-4.208705"><ele>120.0</ele><time>2026-04-23T08:03:22.674Z</time></trkpt><trkpt lat="48.460105" lon="-4.20867"><ele>120.66666666666667</ele><time>2026-04-23T08:03:23.676Z</time></trkpt><trkpt lat="48.46004" lon="-4.208635"><ele>121.33333333333334</ele><time>2026-04-23T08:03:24.678Z</time></trkpt><trkpt lat="48.4599817" lon="-4.208595"><ele>122.0</ele><time>2026-04-23T08:03:25.674Z</time></trkpt><trkpt lat="48.4598867" lon="-4.2084883"><ele>122.66666666666667</ele><time>2026-04-23T08:03:27.679Z</time></trkpt><trkpt lat="48.4598417" lon="-4.2084133"><ele>123.33333333333334</ele><time>2026-04-23T08:03:28.675Z</time></trkpt><trkpt lat="48.4597967" lon="-4.2083117"><ele>124.0</ele><time>2026-04-23T08:03:29.682Z</time></trkpt><trkpt lat="48.4597617" lon="-4.2082"><ele>124.0</ele><time>2026-04-23T08:03:30.673Z</time></trkpt><trkpt lat="48.4597467" lon="-4.2080767"><ele>124.0</ele><time>2026-04-23T08:03:31.673Z</time></trkpt><trkpt lat="48.4597533" lon="-4.2079367"><ele>124.0</ele><time>2026-04-23T08:03:32.676Z</time></trkpt><trkpt lat="48.4597967" lon="-4.2077933"><ele>124.0</ele><time>2026-04-23T08:03:33.674Z</time></trkpt><trkpt lat="48.4598567" lon="-4.2076567"><ele>124.0</ele><time>2026-04-23T08:03:34.677Z</time></trkpt><trkpt lat="48.4599567" lon="-4.2075083"><ele>124.0</ele><time>2026-04-23T08:03:35.676Z</time></trkpt><trkpt lat="48.4600483" lon="-4.20736"><ele>124.0</ele><time>2026-04-23T08:03:36.675Z</time></trkpt><trkpt lat="48.4601383" lon="-4.20721"><ele>124.0</ele><time>2026-04-23T08:03:37.676Z</time></trkpt><trkpt lat="48.4602283" lon="-4.2070533"><ele>124.0</ele><time>2026-04-23T08:03:38.674Z</time></trkpt><trkpt lat="48.46032" lon="-4.206895"><ele>124.0</ele><time>2026-04-23T08:03:39.676Z</time></trkpt><trkpt lat="48.4604067" lon="-4.2067367"><ele>124.0</ele><time>2026-04-23T08:03:40.675Z</time></trkpt><trkpt lat="48.4604917" lon="-4.2065833"><ele>124.0</ele><time>2026-04-23T08:03:41.675Z</time></trkpt><trkpt lat="48.4605783" lon="-4.20643"><ele>124.0</ele><time>2026-04-23T08:03:42.673Z</time></trkpt><trkpt lat="48.4606633" lon="-4.2062767"><ele>123.75</ele><time>2026-04-23T08:03:43.675Z</time></trkpt><trkpt lat="48.4607483" lon="-4.2061217"><ele>123.5</ele><time>2026-04-23T08:03:44.673Z</time></trkpt><trkpt lat="48.460835" lon="-4.2059683"><ele>123.25</ele><time>2026-04-23T08:03:45.674Z</time></trkpt><trkpt lat="48.4609183" lon="-4.2058183"><ele>123.0</ele><time>2026-04-23T08:03:46.673Z</time></trkpt><trkpt lat="48.461" lon="-4.2056733"><ele>123.25</ele><time>2026-04-23T08:03:47.672Z</time></trkpt><trkpt lat="48.4610783" lon="-4.2055333"><ele>123.5</ele><time>2026-04-23T08:03:48.679Z</time></trkpt><trkpt lat="48.461155" lon="-4.2053967"><ele>123.75</ele><time>2026-04-23T08:03:49.673Z</time></trkpt><trkpt lat="48.4612283" lon="-4.205265"><ele>124.0</ele><time>2026-04-23T08:03:50.677Z</time></trkpt><trkpt lat="48.4613017" lon="-4.205135"><ele>123.25</ele><time>2026-04-23T08:03:51.676Z</time></trkpt><trkpt lat="48.4613783" lon="-4.2050033"><ele>122.5</ele><time>2026-04-23T08:03:52.672Z</time></trkpt><trkpt lat="48.4614567" lon="-4.2048667"><ele>121.75</ele><time>2026-04-23T08:03:53.674Z</time></trkpt><trkpt lat="48.461535" lon="-4.2047317"><ele>121.0</ele><time>2026-04-23T08:03:54.673Z</time></trkpt><trkpt lat="48.4616133" lon="-4.2046"><ele>121.0</ele><time>2026-04-23T08:03:55.675Z</time></trkpt><trkpt lat="48.4616833" lon="-4.20448"><ele>121.0</ele><time>2026-04-23T08:03:56.672Z</time></trkpt><trkpt lat="48.461745" lon="-4.2043683"><ele>121.0</ele><time>2026-04-23T08:03:57.674Z</time></trkpt><trkpt lat="48.4618067" lon="-4.2042533"><ele>121.0</ele><time>2026-04-23T08:03:58.674Z</time></trkpt><trkpt lat="48.4618717" lon="-4.20413"><ele>121.0</ele><time>2026-04-23T08:03:59.674Z</time></trkpt><trkpt lat="48.4619333" lon="-4.2040067"><ele>121.0</ele><time>2026-04-23T08:04:00.671Z</time></trkpt><trkpt lat="48.4619983" lon="-4.2038917"><ele>121.0</ele><time>2026-04-23T08:04:01.671Z</time></trkpt><trkpt lat="48.4620667" lon="-4.2037883"><ele>121.0</ele><time>2026-04-23T08:04:02.672Z</time></trkpt><trkpt lat="48.462135" lon="-4.2036983"><ele>121.0</ele><time>2026-04-23T08:04:03.674Z</time></trkpt><trkpt lat="48.462205" lon="-4.2036233"><ele>121.0</ele><time>2026-04-23T08:04:04.673Z</time></trkpt><trkpt lat="48.4622767" lon="-4.2035567"><ele>120.00000000000001</ele><time>2026-04-23T08:04:05.672Z</time></trkpt><trkpt lat="48.4623467" lon="-4.203495"><ele>119.0</ele><time>2026-04-23T08:04:06.677Z</time></trkpt><trkpt lat="48.4624167" lon="-4.2034333"><ele>118.0</ele><time>2026-04-23T08:04:07.671Z</time></trkpt><trkpt lat="48.462485" lon="-4.2033717"><ele>117.0</ele><time>2026-04-23T08:04:08.676Z</time></trkpt><trkpt lat="48.4625467" lon="-4.2033167"><ele>116.00000000000001</ele><time>2026-04-23T08:04:09.672Z</time></trkpt><trkpt lat="48.4626433" lon="-4.20323"><ele>115.0</ele><time>2026-04-23T08:04:11.672Z</time></trkpt><trkpt lat="48.4627083" lon="-4.203175"><ele>114.83333333333334</ele><time>2026-04-23T08:04:13.672Z</time></trkpt><trkpt lat="48.4628133" lon="-4.20308"><ele>114.66666666666667</ele><time>2026-04-23T08:04:32.671Z</time></trkpt><trkpt lat="48.462835" lon="-4.2029467"><ele>114.5</ele><time>2026-04-23T08:05:57.671Z</time></trkpt><trkpt lat="48.4628283" lon="-4.2028367"><ele>114.33333333333334</ele><time>2026-04-23T08:05:59.675Z</time></trkpt><trkpt lat="48.4628133" lon="-4.2027317"><ele>114.16666666666667</ele><time>2026-04-23T08:06:01.677Z</time></trkpt><trkpt lat="48.4628017" lon="-4.2026317"><ele>114.0</ele><time>2026-04-23T08:06:03.678Z</time></trkpt><trkpt lat="48.4627983" lon="-4.2025283"><ele>114.0</ele><time>2026-04-23T08:06:05.673Z</time></trkpt><trkpt lat="48.4628" lon="-4.2023917"><ele>114.0</ele><time>2026-04-23T08:06:07.685Z</time></trkpt><trkpt lat="48.4627967" lon="-4.20229"><ele>114.0</ele><time>2026-04-23T08:06:08.675Z</time></trkpt><trkpt lat="48.4627983" lon="-4.2021767"><ele>114.0</ele><time>2026-04-23T08:06:09.672Z</time></trkpt><trkpt lat="48.4628033" lon="-4.20204"><ele>114.0</ele><time>2026-04-23T08:06:10.674Z</time></trkpt><trkpt lat="48.4628083" lon="-4.2018917"><ele>114.0</ele><time>2026-04-23T08:06:11.669Z</time></trkpt><trkpt lat="48.4628183" lon="-4.2017317"><ele>113.4</ele><time>2026-04-23T08:06:12.672Z</time></trkpt><trkpt lat="48.4628267" lon="-4.20157"><ele>112.80000000000001</ele><time>2026-04-23T08:06:13.673Z</time></trkpt><trkpt lat="48.4628333" lon="-4.2014167"><ele>112.19999999999999</ele><time>2026-04-23T08:06:14.677Z</time></trkpt><trkpt lat="48.4628383" lon="-4.20127"><ele>111.6</ele><time>2026-04-23T08:06:15.672Z</time></trkpt><trkpt lat="48.4628467" lon="-4.201135"><ele>111.0</ele><time>2026-04-23T08:06:16.678Z</time></trkpt><trkpt lat="48.46286" lon="-4.2010133"><ele>110.6</ele><time>2026-04-23T08:06:17.674Z</time></trkpt><trkpt lat="48.4628767" lon="-4.2009033"><ele>110.19999999999999</ele><time>2026-04-23T08:06:18.673Z</time></trkpt><trkpt lat="48.462905" lon="-4.20073"><ele>109.80000000000001</ele><time>2026-04-23T08:06:20.672Z</time></trkpt><trkpt lat="48.4629467" lon="-4.200615"><ele>109.4</ele><time>2026-04-23T08:06:22.676Z</time></trkpt><trkpt lat="48.4628567" lon="-4.20059"><ele>109.0</ele><time>2026-04-23T08:06:36.673Z</time></trkpt><trkpt lat="48.4627567" lon="-4.20055"><ele>108.83333333333334</ele><time>2026-04-23T08:06:38.677Z</time></trkpt><trkpt lat="48.4626933" lon="-4.2004867"><ele>108.66666666666667</ele><time>2026-04-23T08:06:39.675Z</time></trkpt><trkpt lat="48.4626333" lon="-4.20043"><ele>108.5</ele><time>2026-04-23T08:06:40.675Z</time></trkpt><trkpt lat="48.46257" lon="-4.2003783"><ele>108.33333333333334</ele><time>2026-04-23T08:06:41.675Z</time></trkpt><trkpt lat="48.4625033" lon="-4.20033"><ele>108.16666666666667</ele><time>2026-04-23T08:06:42.678Z</time></trkpt><trkpt lat="48.4624283" lon="-4.20027"><ele>108.0</ele><time>2026-04-23T08:06:43.674Z</time></trkpt><trkpt lat="48.46235" lon="-4.2002067"><ele>108.0</ele><time>2026-04-23T08:06:44.674Z</time></trkpt><trkpt lat="48.4622683" lon="-4.2001417"><ele>108.00000000000001</ele><time>2026-04-23T08:06:45.673Z</time></trkpt><trkpt lat="48.4621833" lon="-4.2000767"><ele>108.00000000000001</ele><time>2026-04-23T08:06:46.672Z</time></trkpt><trkpt lat="48.462095" lon="-4.200005"><ele>108.0</ele><time>2026-04-23T08:06:47.683Z</time></trkpt><trkpt lat="48.462" lon="-4.1999233"><ele>108.0</ele><time>2026-04-23T08:06:48.675Z</time></trkpt><trkpt lat="48.4619017" lon="-4.1998383"><ele>109.0</ele><time>2026-04-23T08:06:49.677Z</time></trkpt><trkpt lat="48.4618083" lon="-4.1997583"><ele>110.00000000000001</ele><time>2026-04-23T08:06:50.674Z</time></trkpt><trkpt lat="48.46172" lon="-4.1996783"><ele>111.00000000000001</ele><time>2026-04-23T08:06:51.673Z</time></trkpt><trkpt lat="48.4616333" lon="-4.1996017"><ele>112.0</ele><time>2026-04-23T08:06:52.676Z</time></trkpt><trkpt lat="48.4615433" lon="-4.1995283"><ele>113.0</ele><time>2026-04-23T08:06:53.673Z</time></trkpt><trkpt lat="48.4614517" lon="-4.199455"><ele>113.0</ele><time>2026-04-23T08:06:54.673Z</time></trkpt><trkpt lat="48.4613583" lon="-4.1993783"><ele>113.00000000000001</ele><time>2026-04-23T08:06:55.68Z</time></trkpt><trkpt lat="48.4612667" lon="-4.19929"><ele>113.00000000000001</ele><time>2026-04-23T08:06:56.672Z</time></trkpt><trkpt lat="48.4611783" lon="-4.1992017"><ele>113.0</ele><time>2026-04-23T08:06:57.674Z</time></trkpt><trkpt lat="48.4610933" lon="-4.19911"><ele>113.0</ele><time>2026-04-23T08:06:58.677Z</time></trkpt><trkpt lat="48.4610083" lon="-4.1990183"><ele>113.80000000000001</ele><time>2026-04-23T08:06:59.677Z</time></trkpt><trkpt lat="48.460925" lon="-4.1989267"><ele>114.60000000000001</ele><time>2026-04-23T08:07:00.677Z</time></trkpt><trkpt lat="48.4608433" lon="-4.198835"><ele>115.39999999999999</ele><time>2026-04-23T08:07:01.677Z</time></trkpt><trkpt lat="48.4607617" lon="-4.1987433"><ele>116.19999999999999</ele><time>2026-04-23T08:07:02.674Z</time></trkpt><trkpt lat="48.4606817" lon="-4.1986517"><ele>117.0</ele><time>2026-04-23T08:07:03.674Z</time></trkpt><trkpt lat="48.4606017" lon="-4.198565"><ele>117.0</ele><time>2026-04-23T08:07:04.674Z</time></trkpt><trkpt lat="48.4605183" lon="-4.1984767"><ele>116.99999999999999</ele><time>2026-04-23T08:07:05.678Z</time></trkpt><trkpt lat="48.4604317" lon="-4.1983983"><ele>116.99999999999999</ele><time>2026-04-23T08:07:06.672Z</time></trkpt><trkpt lat="48.46034" lon="-4.1983283"><ele>117.0</ele><time>2026-04-23T08:07:07.678Z</time></trkpt><trkpt lat="48.46025" lon="-4.19827"><ele>117.0</ele><time>2026-04-23T08:07:08.674Z</time></trkpt><trkpt lat="48.460155" lon="-4.1982217"><ele>117.0</ele><time>2026-04-23T08:07:09.68Z</time></trkpt><trkpt lat="48.46006" lon="-4.1981817"><ele>116.99999999999999</ele><time>2026-04-23T08:07:10.671Z</time></trkpt><trkpt lat="48.459965" lon="-4.1981467"><ele>116.99999999999999</ele><time>2026-04-23T08:07:11.676Z</time></trkpt><trkpt lat="48.4598717" lon="-4.1981133"><ele>117.0</ele><time>2026-04-23T08:07:12.676Z</time></trkpt><trkpt lat="48.459775" lon="-4.19808"><ele>117.0</ele><time>2026-04-23T08:07:13.674Z</time></trkpt><trkpt lat="48.45968" lon="-4.1980417"><ele>116.33333333333333</ele><time>2026-04-23T08:07:14.682Z</time></trkpt><trkpt lat="48.45959" lon="-4.1980083"><ele>115.66666666666666</ele><time>2026-04-23T08:07:15.676Z</time></trkpt><trkpt lat="48.4595083" lon="-4.1979767"><ele>115.0</ele><time>2026-04-23T08:07:16.675Z</time></trkpt><trkpt lat="48.45943" lon="-4.19794"><ele>114.33333333333333</ele><time>2026-04-23T08:07:17.674Z</time></trkpt><trkpt lat="48.4593517" lon="-4.1979067"><ele>113.66666666666666</ele><time>2026-04-23T08:07:18.676Z</time></trkpt><trkpt lat="48.4592733" lon="-4.1978867"><ele>113.0</ele><time>2026-04-23T08:07:19.674Z</time></trkpt><trkpt lat="48.4591883" lon="-4.1978767"><ele>113.0</ele><time>2026-04-23T08:07:20.672Z</time></trkpt><trkpt lat="48.4590967" lon="-4.19788"><ele>113.00000000000001</ele><time>2026-04-23T08:07:21.675Z</time></trkpt><trkpt lat="48.4589967" lon="-4.1978983"><ele>113.00000000000001</ele><time>2026-04-23T08:07:22.673Z</time></trkpt><trkpt lat="48.4589" lon="-4.1979167"><ele>113.0</ele><time>2026-04-23T08:07:23.674Z</time></trkpt><trkpt lat="48.4588133" lon="-4.197935"><ele>113.0</ele><time>2026-04-23T08:07:24.674Z</time></trkpt><trkpt lat="48.4587283" lon="-4.1979517"><ele>111.99999999999999</ele><time>2026-04-23T08:07:25.68Z</time></trkpt><trkpt lat="48.4586433" lon="-4.1979667"><ele>111.0</ele><time>2026-04-23T08:07:26.673Z</time></trkpt><trkpt lat="48.4585633" lon="-4.1979767"><ele>110.0</ele><time>2026-04-23T08:07:27.675Z</time></trkpt><trkpt lat="48.45848" lon="-4.1979817"><ele>109.0</ele><time>2026-04-23T08:07:28.675Z</time></trkpt><trkpt lat="48.4583883" lon="-4.19798"><ele>107.99999999999999</ele><time>2026-04-23T08:07:29.674Z</time></trkpt><trkpt lat="48.4582983" lon="-4.1979733"><ele>107.0</ele><time>2026-04-23T08:07:30.678Z</time></trkpt><trkpt lat="48.4582067" lon="-4.197965"><ele>106.99999999999999</ele><time>2026-04-23T08:07:31.674Z</time></trkpt><trkpt lat="48.4581167" lon="-4.1979467"><ele>107.0</ele><time>2026-04-23T08:07:32.673Z</time></trkpt><trkpt lat="48.4580317" lon="-4.19793"><ele>107.0</ele><time>2026-04-23T08:07:33.678Z</time></trkpt><trkpt lat="48.457945" lon="-4.1979117"><ele>107.0</ele><time>2026-04-23T08:07:34.674Z</time></trkpt><trkpt lat="48.4578567" lon="-4.1978967"><ele>106.99999999999999</ele><time>2026-04-23T08:07:35.672Z</time></trkpt><trkpt lat="48.4577667" lon="-4.19788"><ele>107.0</ele><time>2026-04-23T08:07:36.673Z</time></trkpt><trkpt lat="48.4576783" lon="-4.1978683"><ele>105.8</ele><time>2026-04-23T08:07:37.678Z</time></trkpt><trkpt lat="48.4575833" lon="-4.1978467"><ele>104.6</ele><time>2026-04-23T08:07:38.674Z</time></trkpt><trkpt lat="48.45749" lon="-4.1978267"><ele>103.39999999999999</ele><time>2026-04-23T08:07:39.675Z</time></trkpt><trkpt lat="48.4573967" lon="-4.1978083"><ele>102.19999999999999</ele><time>2026-04-23T08:07:40.674Z</time></trkpt><trkpt lat="48.457305" lon="-4.19779"><ele>101.0</ele><time>2026-04-23T08:07:41.674Z</time></trkpt><trkpt lat="48.457215" lon="-4.1977717"><ele>100.99999999999999</ele><time>2026-04-23T08:07:42.673Z</time></trkpt><trkpt lat="48.4571267" lon="-4.1977533"><ele>101.0</ele><time>2026-04-23T08:07:43.675Z</time></trkpt><trkpt lat="48.4570433" lon="-4.197735"><ele>101.0</ele><time>2026-04-23T08:07:44.679Z</time></trkpt><trkpt lat="48.45696" lon="-4.1977133"><ele>101.0</ele><time>2026-04-23T08:07:45.675Z</time></trkpt><trkpt lat="48.4568833" lon="-4.1976883"><ele>100.99999999999999</ele><time>2026-04-23T08:07:46.674Z</time></trkpt><trkpt lat="48.4568017" lon="-4.1976517"><ele>101.0</ele><time>2026-04-23T08:07:47.673Z</time></trkpt><trkpt lat="48.456725" lon="-4.1976017"><ele>100.33333333333333</ele><time>2026-04-23T08:07:48.677Z</time></trkpt><trkpt lat="48.4566583" lon="-4.1975617"><ele>99.66666666666666</ele><time>2026-04-23T08:07:49.676Z</time></trkpt><trkpt lat="48.4565917" lon="-4.19749"><ele>99.0</ele><time>2026-04-23T08:07:50.676Z</time></trkpt><trkpt lat="48.4565383" lon="-4.1974233"><ele>98.33333333333334</ele><time>2026-04-23T08:07:51.673Z</time></trkpt><trkpt lat="48.4564633" lon="-4.19731"><ele>97.66666666666667</ele><time>2026-04-23T08:07:53.672Z</time></trkpt><trkpt lat="48.4563933" lon="-4.1971933"><ele>97.0</ele><time>2026-04-23T08:07:55.675Z</time></trkpt><trkpt lat="48.4563417" lon="-4.1970667"><ele>96.00000000000001</ele><time>2026-04-23T08:07:57.673Z</time></trkpt><trkpt lat="48.4563033" lon="-4.1968967"><ele>95.0</ele><time>2026-04-23T08:07:59.673Z</time></trkpt><trkpt lat="48.456285" lon="-4.1968"><ele>94.0</ele><time>2026-04-23T08:08:00.678Z</time></trkpt><trkpt lat="48.4562683" lon="-4.196695"><ele>93.0</ele><time>2026-04-23T08:08:01.672Z</time></trkpt><trkpt lat="48.4562517" lon="-4.1965917"><ele>92.0</ele><time>2026-04-23T08:08:02.676Z</time></trkpt><trkpt lat="48.4562333" lon="-4.1964883"><ele>91.0</ele><time>2026-04-23T08:08:03.676Z</time></trkpt><trkpt lat="48.4562167" lon="-4.19639"><ele>89.83333333333333</ele><time>2026-04-23T08:08:04.674Z</time></trkpt><trkpt lat="48.456205" lon="-4.1962917"><ele>88.66666666666666</ele><time>2026-04-23T08:08:05.678Z</time></trkpt><trkpt lat="48.456195" lon="-4.1961967"><ele>87.5</ele><time>2026-04-23T08:08:06.673Z</time></trkpt><trkpt lat="48.4561883" lon="-4.1960967"><ele>86.33333333333333</ele><time>2026-04-23T08:08:07.672Z</time></trkpt><trkpt lat="48.4561983" lon="-4.1959183"><ele>85.16666666666667</ele><time>2026-04-23T08:08:09.672Z</time></trkpt><trkpt lat="48.4562167" lon="-4.195825"><ele>84.0</ele><time>2026-04-23T08:08:10.674Z</time></trkpt><trkpt lat="48.4562483" lon="-4.195715"><ele>82.60000000000001</ele><time>2026-04-23T08:08:11.672Z</time></trkpt><trkpt lat="48.4562983" lon="-4.195585"><ele>81.2</ele><time>2026-04-23T08:08:12.674Z</time></trkpt><trkpt lat="48.4563533" lon="-4.1954583"><ele>79.80000000000001</ele><time>2026-04-23T08:08:13.673Z</time></trkpt><trkpt lat="48.4564167" lon="-4.1953167"><ele>78.4</ele><time>2026-04-23T08:08:14.676Z</time></trkpt><trkpt lat="48.4564833" lon="-4.195175"><ele>77.0</ele><time>2026-04-23T08:08:15.677Z</time></trkpt><trkpt lat="48.4565467" lon="-4.1950383"><ele>77.0</ele><time>2026-04-23T08:08:16.674Z</time></trkpt><trkpt lat="48.4566083" lon="-4.194905"><ele>77.0</ele><time>2026-04-23T08:08:17.674Z</time></trkpt><trkpt lat="48.4566667" lon="-4.194785"><ele>77.0</ele><time>2026-04-23T08:08:18.675Z</time></trkpt><trkpt lat="48.4567317" lon="-4.194665"><ele>77.0</ele><time>2026-04-23T08:08:19.673Z</time></trkpt><trkpt lat="48.4567983" lon="-4.19454"><ele>77.0</ele><time>2026-04-23T08:08:20.674Z</time></trkpt><trkpt lat="48.4568633" lon="-4.19441"><ele>76.0</ele><time>2026-04-23T08:08:21.677Z</time></trkpt><trkpt lat="48.4569283" lon="-4.1942767"><ele>75.0</ele><time>2026-04-23T08:08:22.672Z</time></trkpt><trkpt lat="48.4569867" lon="-4.19415"><ele>74.0</ele><time>2026-04-23T08:08:23.673Z</time></trkpt><trkpt lat="48.4570433" lon="-4.1940283"><ele>73.0</ele><time>2026-04-23T08:08:24.675Z</time></trkpt><trkpt lat="48.4571" lon="-4.1939167"><ele>72.0</ele><time>2026-04-23T08:08:25.678Z</time></trkpt><trkpt lat="48.457155" lon="-4.1938067"><ele>72.0</ele><time>2026-04-23T08:08:26.673Z</time></trkpt><trkpt lat="48.4572117" lon="-4.193695"><ele>72.0</ele><time>2026-04-23T08:08:27.676Z</time></trkpt><trkpt lat="48.4572633" lon="-4.193595"><ele>72.0</ele><time>2026-04-23T08:08:28.675Z</time></trkpt><trkpt lat="48.457325" lon="-4.1935017"><ele>72.0</ele><time>2026-04-23T08:08:29.674Z</time></trkpt><trkpt lat="48.4573933" lon="-4.1934117"><ele>72.0</ele><time>2026-04-23T08:08:30.677Z</time></trkpt><trkpt lat="48.45747" lon="-4.1933283"><ele>72.0</ele><time>2026-04-23T08:08:31.674Z</time></trkpt><trkpt lat="48.45755" lon="-4.1932617"><ele>72.0</ele><time>2026-04-23T08:08:32.677Z</time></trkpt><trkpt lat="48.457625" lon="-4.1932167"><ele>72.0</ele><time>2026-04-23T08:08:33.676Z</time></trkpt><trkpt lat="48.4577083" lon="-4.19318"><ele>72.0</ele><time>2026-04-23T08:08:34.674Z</time></trkpt><trkpt lat="48.4577967" lon="-4.1931517"><ele>72.0</ele><time>2026-04-23T08:08:35.677Z</time></trkpt><trkpt lat="48.4578817" lon="-4.1931333"><ele>72.0</ele><time>2026-04-23T08:08:36.677Z</time></trkpt><trkpt lat="48.4579667" lon="-4.193125"><ele>72.0</ele><time>2026-04-23T08:08:37.674Z</time></trkpt><trkpt lat="48.4580417" lon="-4.193125"><ele>72.0</ele><time>2026-04-23T08:08:38.679Z</time></trkpt><trkpt lat="48.4581117" lon="-4.1931217"><ele>72.0</ele><time>2026-04-23T08:08:39.674Z</time></trkpt><trkpt lat="48.4582283" lon="-4.1930983"><ele>72.0</ele><time>2026-04-23T08:08:41.675Z</time></trkpt><trkpt lat="48.4583233" lon="-4.19308"><ele>72.0</ele><time>2026-04-23T08:08:43.68Z</time></trkpt><trkpt lat="48.458385" lon="-4.19304"><ele>72.0</ele><time>2026-04-23T08:08:45.676Z</time></trkpt><trkpt lat="48.4584867" lon="-4.1930183"><ele>72.0</ele><time>2026-04-23T08:08:48.675Z</time></trkpt><trkpt lat="48.458545" lon="-4.1930617"><ele>72.0</ele><time>2026-04-23T08:08:49.676Z</time></trkpt><trkpt lat="48.4586283" lon="-4.1931333"><ele>72.0</ele><time>2026-04-23T08:08:50.674Z</time></trkpt><trkpt lat="48.4587417" lon="-4.193215"><ele>72.0</ele><time>2026-04-23T08:08:51.674Z</time></trkpt><trkpt lat="48.4589067" lon="-4.19327"><ele>75.66666666666667</ele><time>2026-04-23T08:08:52.674Z</time></trkpt><trkpt lat="48.4590783" lon="-4.1932917"><ele>79.33333333333334</ele><time>2026-04-23T08:08:53.675Z</time></trkpt><trkpt lat="48.459265" lon="-4.1933133"><ele>83.0</ele><time>2026-04-23T08:08:54.678Z</time></trkpt><trkpt lat="48.4594583" lon="-4.1933233"><ele>81.33333333333334</ele><time>2026-04-23T08:08:55.677Z</time></trkpt><trkpt lat="48.45965" lon="-4.19334"><ele>79.66666666666667</ele><time>2026-04-23T08:08:56.676Z</time></trkpt><trkpt lat="48.4598367" lon="-4.193355"><ele>78.0</ele><time>2026-04-23T08:08:57.674Z</time></trkpt><trkpt lat="48.46002" lon="-4.19339"><ele>78.0</ele><time>2026-04-23T08:08:58.673Z</time></trkpt><trkpt lat="48.4602017" lon="-4.193435"><ele>78.0</ele><time>2026-04-23T08:08:59.674Z</time></trkpt><trkpt lat="48.460395" lon="-4.193515"><ele>78.0</ele><time>2026-04-23T08:09:00.676Z</time></trkpt><trkpt lat="48.4605883" lon="-4.193635"><ele>75.33333333333333</ele><time>2026-04-23T08:09:01.674Z</time></trkpt><trkpt lat="48.4607833" lon="-4.19376"><ele>72.66666666666666</ele><time>2026-04-23T08:09:02.676Z</time></trkpt><trkpt lat="48.46098" lon="-4.19388"><ele>70.0</ele><time>2026-04-23T08:09:03.677Z</time></trkpt><trkpt lat="48.4611783" lon="-4.1939967"><ele>71.5</ele><time>2026-04-23T08:09:04.674Z</time></trkpt><trkpt lat="48.46139" lon="-4.1941067"><ele>73.0</ele><time>2026-04-23T08:09:05.679Z</time></trkpt><trkpt lat="48.4616183" lon="-4.194195"><ele>73.0</ele><time>2026-04-23T08:09:06.675Z</time></trkpt><trkpt lat="48.4618417" lon="-4.1942767"><ele>73.0</ele><time>2026-04-23T08:09:07.675Z</time></trkpt><trkpt lat="48.4620467" lon="-4.19437"><ele>73.0</ele><time>2026-04-23T08:09:08.677Z</time></trkpt><trkpt lat="48.4622467" lon="-4.1944783"><ele>69.0</ele><time>2026-04-23T08:09:09.679Z</time></trkpt><trkpt lat="48.4624433" lon="-4.1946283"><ele>65.0</ele><time>2026-04-23T08:09:10.676Z</time></trkpt><trkpt lat="48.462635" lon="-4.1948317"><ele>66.0</ele><time>2026-04-23T08:09:11.674Z</time></trkpt><trkpt lat="48.4628267" lon="-4.1950483"><ele>67.0</ele><time>2026-04-23T08:09:12.677Z</time></trkpt><trkpt lat="48.4630083" lon="-4.195255"><ele>67.0</ele><time>2026-04-23T08:09:13.676Z</time></trkpt><trkpt lat="48.4631817" lon="-4.1954517"><ele>67.0</ele><time>2026-04-23T08:09:14.671Z</time></trkpt><trkpt lat="48.463345" lon="-4.195635"><ele>67.0</ele><time>2026-04-23T08:09:15.672Z</time></trkpt><trkpt lat="48.4635017" lon="-4.1958083"><ele>66.0</ele><time>2026-04-23T08:09:16.674Z</time></trkpt><trkpt lat="48.4636483" lon="-4.1959817"><ele>65.0</ele><time>2026-04-23T08:09:17.674Z</time></trkpt><trkpt lat="48.4637883" lon="-4.1961467"><ele>64.0</ele><time>2026-04-23T08:09:18.675Z</time></trkpt><trkpt lat="48.4639233" lon="-4.1963083"><ele>64.0</ele><time>2026-04-23T08:09:19.678Z</time></trkpt><trkpt lat="48.46405" lon="-4.1964683"><ele>64.0</ele><time>2026-04-23T08:09:20.672Z</time></trkpt><trkpt lat="48.4641667" lon="-4.196645"><ele>64.0</ele><time>2026-04-23T08:09:21.673Z</time></trkpt><trkpt lat="48.46427" lon="-4.196825"><ele>67.0</ele><time>2026-04-23T08:09:22.675Z</time></trkpt><trkpt lat="48.4643617" lon="-4.1970083"><ele>70.0</ele><time>2026-04-23T08:09:23.675Z</time></trkpt><trkpt lat="48.4644383" lon="-4.1971867"><ele>73.0</ele><time>2026-04-23T08:09:24.675Z</time></trkpt><trkpt lat="48.4644983" lon="-4.1973983"><ele>76.0</ele><time>2026-04-23T08:09:25.679Z</time></trkpt><trkpt lat="48.4645317" lon="-4.1976167"><ele>78.5</ele><time>2026-04-23T08:09:26.675Z</time></trkpt><trkpt lat="48.4645433" lon="-4.1978433"><ele>81.0</ele><time>2026-04-23T08:09:27.673Z</time></trkpt><trkpt lat="48.4645517" lon="-4.1980633"><ele>83.5</ele><time>2026-04-23T08:09:28.675Z</time></trkpt><trkpt lat="48.464555" lon="-4.198285"><ele>86.0</ele><time>2026-04-23T08:09:29.675Z</time></trkpt><trkpt lat="48.4645667" lon="-4.1985083"><ele>87.0</ele><time>2026-04-23T08:09:30.674Z</time></trkpt><trkpt lat="48.464585" lon="-4.198735"><ele>88.0</ele><time>2026-04-23T08:09:31.671Z</time></trkpt><trkpt lat="48.464615" lon="-4.1989517"><ele>89.0</ele><time>2026-04-23T08:09:32.676Z</time></trkpt><trkpt lat="48.46464" lon="-4.19917"><ele>90.0</ele><time>2026-04-23T08:09:33.674Z</time></trkpt><trkpt lat="48.4646617" lon="-4.19939"><ele>83.75</ele><time>2026-04-23T08:09:34.678Z</time></trkpt><trkpt lat="48.4646867" lon="-4.1995983"><ele>77.5</ele><time>2026-04-23T08:09:35.676Z</time></trkpt><trkpt lat="48.4647067" lon="-4.199805"><ele>71.25</ele><time>2026-04-23T08:09:36.674Z</time></trkpt><trkpt lat="48.4647133" lon="-4.2000133"><ele>65.0</ele><time>2026-04-23T08:09:37.674Z</time></trkpt><trkpt lat="48.46471" lon="-4.2002183"><ele>65.0</ele><time>2026-04-23T08:09:38.674Z</time></trkpt><trkpt lat="48.4646933" lon="-4.200425"><ele>65.0</ele><time>2026-04-23T08:09:39.673Z</time></trkpt><trkpt lat="48.464655" lon="-4.2006333"><ele>65.0</ele><time>2026-04-23T08:09:40.676Z</time></trkpt><trkpt lat="48.4646183" lon="-4.2008467"><ele>65.0</ele><time>2026-04-23T08:09:41.673Z</time></trkpt><trkpt lat="48.46458" lon="-4.2010583"><ele>70.5</ele><time>2026-04-23T08:09:42.677Z</time></trkpt><trkpt lat="48.4645417" lon="-4.2012667"><ele>76.0</ele><time>2026-04-23T08:09:43.673Z</time></trkpt><trkpt lat="48.464505" lon="-4.2014717"><ele>81.5</ele><time>2026-04-23T08:09:44.675Z</time></trkpt><trkpt lat="48.464465" lon="-4.2016683"><ele>87.0</ele><time>2026-04-23T08:09:45.674Z</time></trkpt><trkpt lat="48.4644317" lon="-4.2018733"><ele>87.25</ele><time>2026-04-23T08:09:46.673Z</time></trkpt><trkpt lat="48.464405" lon="-4.202085"><ele>87.5</ele><time>2026-04-23T08:09:47.675Z</time></trkpt><trkpt lat="48.46439" lon="-4.2022967"><ele>87.75</ele><time>2026-04-23T08:09:48.673Z</time></trkpt><trkpt lat="48.4644033" lon="-4.202515"><ele>88.0</ele><time>2026-04-23T08:09:49.676Z</time></trkpt><trkpt lat="48.46445" lon="-4.2027317"><ele>89.0</ele><time>2026-04-23T08:09:50.673Z</time></trkpt><trkpt lat="48.4645217" lon="-4.2029433"><ele>90.0</ele><time>2026-04-23T08:09:51.675Z</time></trkpt><trkpt lat="48.46461" lon="-4.2031333"><ele>91.0</ele><time>2026-04-23T08:09:52.676Z</time></trkpt><trkpt lat="48.4647" lon="-4.2033033"><ele>85.75</ele><time>2026-04-23T08:09:53.673Z</time></trkpt><trkpt lat="48.46479" lon="-4.2034567"><ele>80.5</ele><time>2026-04-23T08:09:54.674Z</time></trkpt><trkpt lat="48.4648833" lon="-4.2036"><ele>75.25</ele><time>2026-04-23T08:09:55.676Z</time></trkpt><trkpt lat="48.4649783" lon="-4.2037333"><ele>70.0</ele><time>2026-04-23T08:09:56.673Z</time></trkpt><trkpt lat="48.4650717" lon="-4.2038667"><ele>74.5</ele><time>2026-04-23T08:09:57.674Z</time></trkpt><trkpt lat="48.465165" lon="-4.2040033"><ele>79.0</ele><time>2026-04-23T08:09:58.675Z</time></trkpt><trkpt lat="48.4652567" lon="-4.2041517"><ele>83.5</ele><time>2026-04-23T08:09:59.673Z</time></trkpt><trkpt lat="48.465345" lon="-4.2042983"><ele>88.0</ele><time>2026-04-23T08:10:00.674Z</time></trkpt><trkpt lat="48.46544" lon="-4.2044367"><ele>84.5</ele><time>2026-04-23T08:10:01.674Z</time></trkpt><trkpt lat="48.46553" lon="-4.2045867"><ele>81.0</ele><time>2026-04-23T08:10:02.673Z</time></trkpt><trkpt lat="48.4656167" lon="-4.2047417"><ele>77.5</ele><time>2026-04-23T08:10:03.675Z</time></trkpt><trkpt lat="48.4657017" lon="-4.2048967"><ele>74.0</ele><time>2026-04-23T08:10:04.676Z</time></trkpt><trkpt lat="48.465775" lon="-4.2050617"><ele>74.0</ele><time>2026-04-23T08:10:05.675Z</time></trkpt><trkpt lat="48.465845" lon="-4.2052317"><ele>74.0</ele><time>2026-04-23T08:10:06.676Z</time></trkpt><trkpt lat="48.4659083" lon="-4.2054067"><ele>74.0</ele><time>2026-04-23T08:10:07.675Z</time></trkpt><trkpt lat="48.4659683" lon="-4.205585"><ele>74.0</ele><time>2026-04-23T08:10:08.675Z</time></trkpt><trkpt lat="48.46603" lon="-4.2057633"><ele>76.5</ele><time>2026-04-23T08:10:09.674Z</time></trkpt><trkpt lat="48.46609" lon="-4.205945"><ele>79.0</ele><time>2026-04-23T08:10:10.682Z</time></trkpt><trkpt lat="48.4661533" lon="-4.2061233"><ele>81.5</ele><time>2026-04-23T08:10:11.673Z</time></trkpt><trkpt lat="48.4662117" lon="-4.2063067"><ele>84.0</ele><time>2026-04-23T08:10:12.675Z</time></trkpt><trkpt lat="48.4662667" lon="-4.2064933"><ele>80.0</ele><time>2026-04-23T08:10:13.672Z</time></trkpt><trkpt lat="48.4663183" lon="-4.2066817"><ele>76.0</ele><time>2026-04-23T08:10:14.676Z</time></trkpt><trkpt lat="48.4663633" lon="-4.2068617"><ele>72.0</ele><time>2026-04-23T08:10:15.675Z</time></trkpt><trkpt lat="48.4663983" lon="-4.2070467"><ele>68.0</ele><time>2026-04-23T08:10:16.676Z</time></trkpt><trkpt lat="48.4664233" lon="-4.2072283"><ele>69.0</ele><time>2026-04-23T08:10:17.674Z</time></trkpt><trkpt lat="48.4664517" lon="-4.2073967"><ele>70.0</ele><time>2026-04-23T08:10:18.673Z</time></trkpt><trkpt lat="48.4664783" lon="-4.2075467"><ele>71.0</ele><time>2026-04-23T08:10:19.671Z</time></trkpt><trkpt lat="48.4665067" lon="-4.2076783"><ele>72.0</ele><time>2026-04-23T08:10:20.679Z</time></trkpt><trkpt lat="48.4665367" lon="-4.2077917"><ele>73.0</ele><time>2026-04-23T08:10:21.671Z</time></trkpt><trkpt lat="48.4665717" lon="-4.2078733"><ele>73.0</ele><time>2026-04-23T08:10:22.674Z</time></trkpt><trkpt lat="48.4666583" lon="-4.2079267"><ele>73.0</ele><time>2026-04-23T08:10:24.674Z</time></trkpt><trkpt lat="48.466745" lon="-4.20778"><ele>73.0</ele><time>2026-04-23T08:10:26.672Z</time></trkpt><trkpt lat="48.4667817" lon="-4.20768"><ele>73.0</ele><time>2026-04-23T08:10:27.676Z</time></trkpt><trkpt lat="48.4668117" lon="-4.20757"><ele>73.0</ele><time>2026-04-23T08:10:28.674Z</time></trkpt><trkpt lat="48.4668417" lon="-4.2074633"><ele>73.0</ele><time>2026-04-23T08:10:29.674Z</time></trkpt><trkpt lat="48.4668717" lon="-4.2073633"><ele>73.0</ele><time>2026-04-23T08:10:30.677Z</time></trkpt><trkpt lat="48.4669083" lon="-4.2072667"><ele>73.0</ele><time>2026-04-23T08:10:31.675Z</time></trkpt><trkpt lat="48.4669517" lon="-4.20717"><ele>73.0</ele><time>2026-04-23T08:10:32.672Z</time></trkpt><trkpt lat="48.466995" lon="-4.207075"><ele>73.0</ele><time>2026-04-23T08:10:33.675Z</time></trkpt><trkpt lat="48.4670467" lon="-4.20698"><ele>73.0</ele><time>2026-04-23T08:10:34.68Z</time></trkpt><trkpt lat="48.4671017" lon="-4.2068867"><ele>69.66666666666666</ele><time>2026-04-23T08:10:35.677Z</time></trkpt><trkpt lat="48.4671567" lon="-4.2067967"><ele>66.33333333333333</ele><time>2026-04-23T08:10:36.672Z</time></trkpt><trkpt lat="48.4672167" lon="-4.2067117"><ele>63.0</ele><time>2026-04-23T08:10:37.674Z</time></trkpt><trkpt lat="48.4672783" lon="-4.20663"><ele>59.66666666666667</ele><time>2026-04-23T08:10:38.676Z</time></trkpt><trkpt lat="48.4673433" lon="-4.206555"><ele>56.333333333333336</ele><time>2026-04-23T08:10:39.676Z</time></trkpt><trkpt lat="48.4674117" lon="-4.2064817"><ele>53.0</ele><time>2026-04-23T08:10:40.674Z</time></trkpt><trkpt lat="48.46748" lon="-4.2064133"><ele>52.0</ele><time>2026-04-23T08:10:41.678Z</time></trkpt><trkpt lat="48.4675483" lon="-4.20635"><ele>51.0</ele><time>2026-04-23T08:10:42.676Z</time></trkpt><trkpt lat="48.4676133" lon="-4.206285"><ele>50.0</ele><time>2026-04-23T08:10:43.674Z</time></trkpt><trkpt lat="48.467675" lon="-4.2062217"><ele>49.0</ele><time>2026-04-23T08:10:44.676Z</time></trkpt><trkpt lat="48.467735" lon="-4.2061633"><ele>48.0</ele><time>2026-04-23T08:10:45.672Z</time></trkpt><trkpt lat="48.467795" lon="-4.206105"><ele>47.0</ele><time>2026-04-23T08:10:46.674Z</time></trkpt><trkpt lat="48.4678567" lon="-4.2060467"><ele>46.0</ele><time>2026-04-23T08:10:47.676Z</time></trkpt><trkpt lat="48.4679167" lon="-4.2059933"><ele>45.0</ele><time>2026-04-23T08:10:48.672Z</time></trkpt><trkpt lat="48.4679767" lon="-4.2059383"><ele>44.0</ele><time>2026-04-23T08:10:49.675Z</time></trkpt><trkpt lat="48.468045" lon="-4.205875"><ele>43.0</ele><time>2026-04-23T08:10:50.673Z</time></trkpt><trkpt lat="48.4681117" lon="-4.2058"><ele>42.0</ele><time>2026-04-23T08:10:51.674Z</time></trkpt><trkpt lat="48.4681817" lon="-4.205725"><ele>41.0</ele><time>2026-04-23T08:10:52.676Z</time></trkpt><trkpt lat="48.46825" lon="-4.2056583"><ele>40.0</ele><time>2026-04-23T08:10:53.671Z</time></trkpt><trkpt lat="48.4683167" lon="-4.2055967"><ele>39.333333333333336</ele><time>2026-04-23T08:10:54.671Z</time></trkpt><trkpt lat="48.4683783" lon="-4.2055417"><ele>38.66666666666667</ele><time>2026-04-23T08:10:55.671Z</time></trkpt><trkpt lat="48.468435" lon="-4.2054883"><ele>38.0</ele><time>2026-04-23T08:10:56.677Z</time></trkpt><trkpt lat="48.4684883" lon="-4.2054333"><ele>37.333333333333336</ele><time>2026-04-23T08:10:57.672Z</time></trkpt><trkpt lat="48.4685967" lon="-4.2053383"><ele>36.666666666666664</ele><time>2026-04-23T08:10:59.672Z</time></trkpt><trkpt lat="48.4686633" lon="-4.2052933"><ele>36.0</ele><time>2026-04-23T08:11:00.671Z</time></trkpt><trkpt lat="48.468735" lon="-4.205245"><ele>36.166666666666664</ele><time>2026-04-23T08:11:01.673Z</time></trkpt><trkpt lat="48.4688083" lon="-4.2051933"><ele>36.333333333333336</ele><time>2026-04-23T08:11:02.675Z</time></trkpt><trkpt lat="48.46888" lon="-4.2051383"><ele>36.5</ele><time>2026-04-23T08:11:03.674Z</time></trkpt><trkpt lat="48.4689533" lon="-4.2050833"><ele>36.66666666666667</ele><time>2026-04-23T08:11:04.67Z</time></trkpt><trkpt lat="48.469025" lon="-4.20503"><ele>36.833333333333336</ele><time>2026-04-23T08:11:05.672Z</time></trkpt><trkpt lat="48.46909" lon="-4.20498"><ele>37.0</ele><time>2026-04-23T08:11:06.68Z</time></trkpt><trkpt lat="48.4691517" lon="-4.2049317"><ele>37.0</ele><time>2026-04-23T08:11:07.673Z</time></trkpt><trkpt lat="48.4692067" lon="-4.2048767"><ele>37.0</ele><time>2026-04-23T08:11:08.681Z</time></trkpt><trkpt lat="48.4693067" lon="-4.2047783"><ele>37.0</ele><time>2026-04-23T08:11:10.672Z</time></trkpt><trkpt lat="48.46943" lon="-4.2047017"><ele>37.0</ele><time>2026-04-23T08:11:12.671Z</time></trkpt><trkpt lat="48.4695167" lon="-4.20465"><ele>37.0</ele><time>2026-04-23T08:11:13.67Z</time></trkpt><trkpt lat="48.46961" lon="-4.20459"><ele>36.5</ele><time>2026-04-23T08:11:14.677Z</time></trkpt><trkpt lat="48.46972" lon="-4.2045133"><ele>36.0</ele><time>2026-04-23T08:11:15.67Z</time></trkpt><trkpt lat="48.4698383" lon="-4.2044333"><ele>35.5</ele><time>2026-04-23T08:11:16.674Z</time></trkpt><trkpt lat="48.4699567" lon="-4.20435"><ele>35.0</ele><time>2026-04-23T08:11:17.676Z</time></trkpt><trkpt lat="48.4700683" lon="-4.2042733"><ele>35.0</ele><time>2026-04-23T08:11:18.675Z</time></trkpt><trkpt lat="48.4701733" lon="-4.2042033"><ele>35.0</ele><time>2026-04-23T08:11:19.673Z</time></trkpt><trkpt lat="48.4702867" lon="-4.2041317"><ele>35.0</ele><time>2026-04-23T08:11:20.674Z</time></trkpt><trkpt lat="48.4703967" lon="-4.2040617"><ele>35.0</ele><time>2026-04-23T08:11:21.677Z</time></trkpt><trkpt lat="48.4705067" lon="-4.2039933"><ele>38.0</ele><time>2026-04-23T08:11:22.676Z</time></trkpt><trkpt lat="48.4706117" lon="-4.2039217"><ele>41.0</ele><time>2026-04-23T08:11:23.673Z</time></trkpt><trkpt lat="48.4707183" lon="-4.2038517"><ele>44.0</ele><time>2026-04-23T08:11:24.675Z</time></trkpt><trkpt lat="48.4708317" lon="-4.2037967"><ele>47.0</ele><time>2026-04-23T08:11:25.67Z</time></trkpt><trkpt lat="48.470955" lon="-4.2037467"><ele>47.0</ele><time>2026-04-23T08:11:26.671Z</time></trkpt><trkpt lat="48.4710783" lon="-4.203715"><ele>47.0</ele><time>2026-04-23T08:11:27.674Z</time></trkpt><trkpt lat="48.4712083" lon="-4.2036917"><ele>47.0</ele><time>2026-04-23T08:11:28.67Z</time></trkpt><trkpt lat="48.471335" lon="-4.2036783"><ele>47.0</ele><time>2026-04-23T08:11:29.672Z</time></trkpt><trkpt lat="48.4714583" lon="-4.203675"><ele>46.75</ele><time>2026-04-23T08:11:30.674Z</time></trkpt><trkpt lat="48.4715783" lon="-4.2036833"><ele>46.5</ele><time>2026-04-23T08:11:31.676Z</time></trkpt><trkpt lat="48.4717" lon="-4.203695"><ele>46.25</ele><time>2026-04-23T08:11:32.672Z</time></trkpt><trkpt lat="48.47182" lon="-4.20372"><ele>46.0</ele><time>2026-04-23T08:11:33.673Z</time></trkpt><trkpt lat="48.47193" lon="-4.2037483"><ele>46.0</ele><time>2026-04-23T08:11:34.672Z</time></trkpt><trkpt lat="48.4720233" lon="-4.2037733"><ele>46.0</ele><time>2026-04-23T08:11:35.676Z</time></trkpt><trkpt lat="48.4721033" lon="-4.20379"><ele>46.0</ele><time>2026-04-23T08:11:36.674Z</time></trkpt><trkpt lat="48.472215" lon="-4.2038117"><ele>46.0</ele><time>2026-04-23T08:11:38.675Z</time></trkpt><trkpt lat="48.472305" lon="-4.2038333"><ele>46.0</ele><time>2026-04-23T08:11:40.674Z</time></trkpt><trkpt lat="48.4723633" lon="-4.203915"><ele>46.16666666666667</ele><time>2026-04-23T08:11:42.672Z</time></trkpt><trkpt lat="48.4723867" lon="-4.2040833"><ele>46.333333333333336</ele><time>2026-04-23T08:11:44.679Z</time></trkpt><trkpt lat="48.4723967" lon="-4.2041833"><ele>46.5</ele><time>2026-04-23T08:11:45.673Z</time></trkpt><trkpt lat="48.4724083" lon="-4.20429"><ele>46.666666666666664</ele><time>2026-04-23T08:11:46.674Z</time></trkpt><trkpt lat="48.4724167" lon="-4.2044083"><ele>46.83333333333333</ele><time>2026-04-23T08:11:47.675Z</time></trkpt><trkpt lat="48.47242" lon="-4.20454"><ele>47.0</ele><time>2026-04-23T08:11:48.675Z</time></trkpt><trkpt lat="48.4724283" lon="-4.2046817"><ele>46.2</ele><time>2026-04-23T08:11:49.676Z</time></trkpt><trkpt lat="48.47244" lon="-4.2048317"><ele>45.400000000000006</ele><time>2026-04-23T08:11:50.675Z</time></trkpt><trkpt lat="48.47246" lon="-4.204995"><ele>44.599999999999994</ele><time>2026-04-23T08:11:51.675Z</time></trkpt><trkpt lat="48.4724817" lon="-4.205165"><ele>43.8</ele><time>2026-04-23T08:11:52.676Z</time></trkpt><trkpt lat="48.472505" lon="-4.2053333"><ele>43.0</ele><time>2026-04-23T08:11:53.677Z</time></trkpt><trkpt lat="48.4725283" lon="-4.2055033"><ele>41.199999999999996</ele><time>2026-04-23T08:11:54.679Z</time></trkpt><trkpt lat="48.4725517" lon="-4.2056683"><ele>39.4</ele><time>2026-04-23T08:11:55.672Z</time></trkpt><trkpt lat="48.4725783" lon="-4.2058317"><ele>37.599999999999994</ele><time>2026-04-23T08:11:56.67Z</time></trkpt><trkpt lat="48.4726083" lon="-4.2059917"><ele>35.8</ele><time>2026-04-23T08:11:57.672Z</time></trkpt><trkpt lat="48.47265" lon="-4.20615"><ele>34.0</ele><time>2026-04-23T08:11:58.674Z</time></trkpt><trkpt lat="48.4727067" lon="-4.2062983"><ele>34.0</ele><time>2026-04-23T08:11:59.675Z</time></trkpt><trkpt lat="48.4727817" lon="-4.2064183"><ele>34.0</ele><time>2026-04-23T08:12:00.676Z</time></trkpt><trkpt lat="48.472875" lon="-4.206515"><ele>34.0</ele><time>2026-04-23T08:12:01.672Z</time></trkpt><trkpt lat="48.4729783" lon="-4.206585"><ele>34.0</ele><time>2026-04-23T08:12:02.676Z</time></trkpt><trkpt lat="48.4730883" lon="-4.2066283"><ele>34.0</ele><time>2026-04-23T08:12:03.674Z</time></trkpt><trkpt lat="48.4731983" lon="-4.206635"><ele>34.2</ele><time>2026-04-23T08:12:04.678Z</time></trkpt><trkpt lat="48.4733033" lon="-4.20657"><ele>34.4</ele><time>2026-04-23T08:12:05.674Z</time></trkpt><trkpt lat="48.4733783" lon="-4.20646"><ele>34.6</ele><time>2026-04-23T08:12:06.672Z</time></trkpt><trkpt lat="48.4734217" lon="-4.2063233"><ele>34.8</ele><time>2026-04-23T08:12:07.673Z</time></trkpt><trkpt lat="48.473445" lon="-4.2061683"><ele>35.0</ele><time>2026-04-23T08:12:08.675Z</time></trkpt><trkpt lat="48.4734567" lon="-4.2060067"><ele>35.0</ele><time>2026-04-23T08:12:09.678Z</time></trkpt><trkpt lat="48.4734667" lon="-4.2058483"><ele>35.0</ele><time>2026-04-23T08:12:10.671Z</time></trkpt><trkpt lat="48.4734833" lon="-4.2057"><ele>35.0</ele><time>2026-04-23T08:12:11.674Z</time></trkpt><trkpt lat="48.4734983" lon="-4.2055617"><ele>35.0</ele><time>2026-04-23T08:12:12.677Z</time></trkpt><trkpt lat="48.4735217" lon="-4.205435"><ele>35.0</ele><time>2026-04-23T08:12:13.674Z</time></trkpt><trkpt lat="48.4735633" lon="-4.2053217"><ele>35.5</ele><time>2026-04-23T08:12:14.675Z</time></trkpt><trkpt lat="48.4736233" lon="-4.205235"><ele>36.0</ele><time>2026-04-23T08:12:15.671Z</time></trkpt><trkpt lat="48.473695" lon="-4.205185"><ele>36.5</ele><time>2026-04-23T08:12:16.675Z</time></trkpt><trkpt lat="48.4737717" lon="-4.2052117"><ele>37.0</ele><time>2026-04-23T08:12:17.674Z</time></trkpt><trkpt lat="48.4738433" lon="-4.20528"><ele>37.5</ele><time>2026-04-23T08:12:18.673Z</time></trkpt><trkpt lat="48.4739133" lon="-4.205335"><ele>38.0</ele><time>2026-04-23T08:12:19.674Z</time></trkpt><trkpt lat="48.4739767" lon="-4.2053717"><ele>34.0</ele><time>2026-04-23T08:12:20.675Z</time></trkpt><trkpt lat="48.474095" lon="-4.2053967"><ele>29.999999999999996</ele><time>2026-04-23T08:12:22.672Z</time></trkpt><trkpt lat="48.474175" lon="-4.205295"><ele>26.0</ele><time>2026-04-23T08:12:24.676Z</time></trkpt><trkpt lat="48.47422" lon="-4.2051183"><ele>22.0</ele><time>2026-04-23T08:12:26.674Z</time></trkpt><trkpt lat="48.474245" lon="-4.205015"><ele>18.0</ele><time>2026-04-23T08:12:27.674Z</time></trkpt><trkpt lat="48.4742717" lon="-4.20491"><ele>18.0</ele><time>2026-04-23T08:12:28.674Z</time></trkpt><trkpt lat="48.4742983" lon="-4.2048117"><ele>18.0</ele><time>2026-04-23T08:12:29.674Z</time></trkpt><trkpt lat="48.4743317" lon="-4.2047267"><ele>18.0</ele><time>2026-04-23T08:12:30.67Z</time></trkpt><trkpt lat="48.47443" lon="-4.204645"><ele>18.0</ele><time>2026-04-23T08:12:32.675Z</time></trkpt><trkpt lat="48.474555" lon="-4.2046683"><ele>18.0</ele><time>2026-04-23T08:12:34.672Z</time></trkpt><trkpt lat="48.4746217" lon="-4.2046917"><ele>18.0</ele><time>2026-04-23T08:12:35.677Z</time></trkpt><trkpt lat="48.474685" lon="-4.204685"><ele>17.6</ele><time>2026-04-23T08:12:36.671Z</time></trkpt><trkpt lat="48.4747467" lon="-4.2046567"><ele>17.200000000000003</ele><time>2026-04-23T08:12:37.672Z</time></trkpt><trkpt lat="48.4748583" lon="-4.2045883"><ele>16.8</ele><time>2026-04-23T08:12:39.678Z</time></trkpt><trkpt lat="48.47495" lon="-4.2045567"><ele>16.400000000000002</ele><time>2026-04-23T08:12:41.671Z</time></trkpt><trkpt lat="48.4750367" lon="-4.2044567"><ele>16.0</ele><time>2026-04-23T08:12:51.671Z</time></trkpt><trkpt lat="48.4750583" lon="-4.20436"><ele>16.0</ele><time>2026-04-23T08:12:52.672Z</time></trkpt><trkpt lat="48.47508" lon="-4.20425"><ele>16.0</ele><time>2026-04-23T08:12:53.673Z</time></trkpt><trkpt lat="48.4751117" lon="-4.2041483"><ele>16.0</ele><time>2026-04-23T08:12:54.679Z</time></trkpt><trkpt lat="48.4751483" lon="-4.2040317"><ele>16.0</ele><time>2026-04-23T08:12:55.677Z</time></trkpt><trkpt lat="48.4752" lon="-4.2038867"><ele>16.0</ele><time>2026-04-23T08:12:56.674Z</time></trkpt><trkpt lat="48.4752567" lon="-4.2037267"><ele>16.0</ele><time>2026-04-23T08:12:57.675Z</time></trkpt><trkpt lat="48.475315" lon="-4.2035533"><ele>16.0</ele><time>2026-04-23T08:12:58.676Z</time></trkpt><trkpt lat="48.47538" lon="-4.20336"><ele>16.0</ele><time>2026-04-23T08:12:59.678Z</time></trkpt><trkpt lat="48.4754483" lon="-4.20315"><ele>16.0</ele><time>2026-04-23T08:13:00.674Z</time></trkpt><trkpt lat="48.47552" lon="-4.202935"><ele>17.333333333333332</ele><time>2026-04-23T08:13:01.675Z</time></trkpt><trkpt lat="48.4755933" lon="-4.2027083"><ele>18.666666666666668</ele><time>2026-04-23T08:13:02.677Z</time></trkpt><trkpt lat="48.4756667" lon="-4.20247"><ele>20.0</ele><time>2026-04-23T08:13:03.674Z</time></trkpt><trkpt lat="48.4757317" lon="-4.2022317"><ele>20.0</ele><time>2026-04-23T08:13:04.675Z</time></trkpt><trkpt lat="48.4757933" lon="-4.2019867"><ele>20.0</ele><time>2026-04-23T08:13:05.673Z</time></trkpt><trkpt lat="48.475855" lon="-4.2017283"><ele>20.0</ele><time>2026-04-23T08:13:06.675Z</time></trkpt><trkpt lat="48.4759083" lon="-4.2014583"><ele>19.0</ele><time>2026-04-23T08:13:07.675Z</time></trkpt><trkpt lat="48.4759633" lon="-4.20118"><ele>18.0</ele><time>2026-04-23T08:13:08.676Z</time></trkpt><trkpt lat="48.47602" lon="-4.2008967"><ele>17.0</ele><time>2026-04-23T08:13:09.673Z</time></trkpt><trkpt lat="48.476085" lon="-4.2006117"><ele>17.0</ele><time>2026-04-23T08:13:10.675Z</time></trkpt><trkpt lat="48.4761583" lon="-4.2003267"><ele>17.0</ele><time>2026-04-23T08:13:11.673Z</time></trkpt><trkpt lat="48.47624" lon="-4.2000483"><ele>17.0</ele><time>2026-04-23T08:13:12.679Z</time></trkpt><trkpt lat="48.4763283" lon="-4.19977"><ele>19.333333333333336</ele><time>2026-04-23T08:13:13.677Z</time></trkpt><trkpt lat="48.4764167" lon="-4.19949"><ele>21.666666666666668</ele><time>2026-04-23T08:13:14.674Z</time></trkpt><trkpt lat="48.4765033" lon="-4.1992117"><ele>24.0</ele><time>2026-04-23T08:13:15.674Z</time></trkpt><trkpt lat="48.4765967" lon="-4.1989317"><ele>24.0</ele><time>2026-04-23T08:13:16.675Z</time></trkpt><trkpt lat="48.4766833" lon="-4.1986517"><ele>24.0</ele><time>2026-04-23T08:13:17.673Z</time></trkpt><trkpt lat="48.4767617" lon="-4.19836"><ele>24.0</ele><time>2026-04-23T08:13:18.677Z</time></trkpt><trkpt lat="48.4768367" lon="-4.19808"><ele>23.0</ele><time>2026-04-23T08:13:19.673Z</time></trkpt><trkpt lat="48.4769033" lon="-4.1977983"><ele>22.0</ele><time>2026-04-23T08:13:20.678Z</time></trkpt><trkpt lat="48.4769767" lon="-4.19752"><ele>21.0</ele><time>2026-04-23T08:13:21.674Z</time></trkpt><trkpt lat="48.4770433" lon="-4.1972467"><ele>24.0</ele><time>2026-04-23T08:13:22.674Z</time></trkpt><trkpt lat="48.47711" lon="-4.1969733"><ele>27.0</ele><time>2026-04-23T08:13:23.679Z</time></trkpt><trkpt lat="48.4771733" lon="-4.1966983"><ele>30.0</ele><time>2026-04-23T08:13:24.676Z</time></trkpt><trkpt lat="48.4772333" lon="-4.1964267"><ele>30.0</ele><time>2026-04-23T08:13:25.673Z</time></trkpt><trkpt lat="48.4772883" lon="-4.1961483"><ele>30.0</ele><time>2026-04-23T08:13:26.676Z</time></trkpt><trkpt lat="48.4773433" lon="-4.1958683"><ele>30.0</ele><time>2026-04-23T08:13:27.676Z</time></trkpt><trkpt lat="48.4773967" lon="-4.1955917"><ele>27.666666666666668</ele><time>2026-04-23T08:13:28.672Z</time></trkpt><trkpt lat="48.47746" lon="-4.1953233"><ele>25.333333333333336</ele><time>2026-04-23T08:13:29.679Z</time></trkpt><trkpt lat="48.4775133" lon="-4.1950583"><ele>23.0</ele><time>2026-04-23T08:13:30.678Z</time></trkpt><trkpt lat="48.4775617" lon="-4.1947933"><ele>22.333333333333336</ele><time>2026-04-23T08:13:31.682Z</time></trkpt><trkpt lat="48.4776083" lon="-4.1945267"><ele>21.666666666666668</ele><time>2026-04-23T08:13:32.673Z</time></trkpt><trkpt lat="48.4776583" lon="-4.1942583"><ele>21.0</ele><time>2026-04-23T08:13:33.682Z</time></trkpt><trkpt lat="48.4777083" lon="-4.1939967"><ele>20.0</ele><time>2026-04-23T08:13:34.671Z</time></trkpt><trkpt lat="48.47776" lon="-4.19373"><ele>19.0</ele><time>2026-04-23T08:13:35.677Z</time></trkpt><trkpt lat="48.4778133" lon="-4.193455"><ele>18.0</ele><time>2026-04-23T08:13:36.675Z</time></trkpt><trkpt lat="48.4778683" lon="-4.193185"><ele>18.333333333333332</ele><time>2026-04-23T08:13:37.676Z</time></trkpt><trkpt lat="48.4779217" lon="-4.1929167"><ele>18.666666666666664</ele><time>2026-04-23T08:13:38.674Z</time></trkpt><trkpt lat="48.477975" lon="-4.1926433"><ele>19.0</ele><time>2026-04-23T08:13:39.676Z</time></trkpt><trkpt lat="48.4780317" lon="-4.1923717"><ele>20.333333333333332</ele><time>2026-04-23T08:13:40.674Z</time></trkpt><trkpt lat="48.4780917" lon="-4.1920967"><ele>21.666666666666668</ele><time>2026-04-23T08:13:41.677Z</time></trkpt><trkpt lat="48.4781517" lon="-4.191815"><ele>23.0</ele><time>2026-04-23T08:13:42.677Z</time></trkpt><trkpt lat="48.4782083" lon="-4.1915333"><ele>22.333333333333336</ele><time>2026-04-23T08:13:43.675Z</time></trkpt><trkpt lat="48.4782567" lon="-4.1912483"><ele>21.666666666666668</ele><time>2026-04-23T08:13:44.675Z</time></trkpt><trkpt lat="48.4782967" lon="-4.1909667"><ele>21.0</ele><time>2026-04-23T08:13:45.673Z</time></trkpt><trkpt lat="48.4783333" lon="-4.1906833"><ele>21.0</ele><time>2026-04-23T08:13:46.673Z</time></trkpt><trkpt lat="48.47837" lon="-4.1904"><ele>21.0</ele><time>2026-04-23T08:13:47.672Z</time></trkpt><trkpt lat="48.4784067" lon="-4.1901167"><ele>21.0</ele><time>2026-04-23T08:13:48.674Z</time></trkpt><trkpt lat="48.4784467" lon="-4.189835"><ele>21.0</ele><time>2026-04-23T08:13:49.675Z</time></trkpt><trkpt lat="48.4784917" lon="-4.1895567"><ele>21.0</ele><time>2026-04-23T08:13:50.675Z</time></trkpt><trkpt lat="48.4785583" lon="-4.18929"><ele>21.0</ele><time>2026-04-23T08:13:51.678Z</time></trkpt><trkpt lat="48.4786433" lon="-4.1890333"><ele>22.0</ele><time>2026-04-23T08:13:52.675Z</time></trkpt><trkpt lat="48.4787417" lon="-4.18879"><ele>23.0</ele><time>2026-04-23T08:13:53.672Z</time></trkpt><trkpt lat="48.4788467" lon="-4.188545"><ele>24.0</ele><time>2026-04-23T08:13:54.677Z</time></trkpt><trkpt lat="48.4789533" lon="-4.1882967"><ele>23.333333333333332</ele><time>2026-04-23T08:13:55.673Z</time></trkpt><trkpt lat="48.47906" lon="-4.1880517"><ele>22.666666666666664</ele><time>2026-04-23T08:13:56.674Z</time></trkpt><trkpt lat="48.47916" lon="-4.18781"><ele>22.0</ele><time>2026-04-23T08:13:57.676Z</time></trkpt><trkpt lat="48.4792567" lon="-4.1875633"><ele>22.666666666666664</ele><time>2026-04-23T08:13:58.674Z</time></trkpt><trkpt lat="48.4793483" lon="-4.18731"><ele>23.333333333333332</ele><time>2026-04-23T08:13:59.676Z</time></trkpt><trkpt lat="48.4794367" lon="-4.1870567"><ele>24.0</ele><time>2026-04-23T08:14:00.674Z</time></trkpt><trkpt lat="48.4795" lon="-4.1867883"><ele>24.0</ele><time>2026-04-23T08:14:01.677Z</time></trkpt><trkpt lat="48.4795467" lon="-4.18652"><ele>24.0</ele><time>2026-04-23T08:14:02.678Z</time></trkpt><trkpt lat="48.4795733" lon="-4.1862433"><ele>24.0</ele><time>2026-04-23T08:14:03.675Z</time></trkpt><trkpt lat="48.479585" lon="-4.18596"><ele>25.333333333333336</ele><time>2026-04-23T08:14:04.674Z</time></trkpt><trkpt lat="48.4795967" lon="-4.1856767"><ele>26.666666666666668</ele><time>2026-04-23T08:14:05.673Z</time></trkpt><trkpt lat="48.4795967" lon="-4.185385"><ele>28.0</ele><time>2026-04-23T08:14:06.673Z</time></trkpt><trkpt lat="48.4796017" lon="-4.1850967"><ele>33.0</ele><time>2026-04-23T08:14:07.671Z</time></trkpt><trkpt lat="48.479605" lon="-4.184805"><ele>38.0</ele><time>2026-04-23T08:14:08.675Z</time></trkpt><trkpt lat="48.4796033" lon="-4.184515"><ele>43.0</ele><time>2026-04-23T08:14:09.673Z</time></trkpt><trkpt lat="48.4796067" lon="-4.18422"><ele>42.333333333333336</ele><time>2026-04-23T08:14:10.676Z</time></trkpt><trkpt lat="48.4796083" lon="-4.18393"><ele>41.666666666666664</ele><time>2026-04-23T08:14:11.673Z</time></trkpt><trkpt lat="48.479615" lon="-4.1836417"><ele>41.0</ele><time>2026-04-23T08:14:12.677Z</time></trkpt><trkpt lat="48.47963" lon="-4.1833533"><ele>40.0</ele><time>2026-04-23T08:14:13.675Z</time></trkpt><trkpt lat="48.4796583" lon="-4.1830733"><ele>39.0</ele><time>2026-04-23T08:14:14.673Z</time></trkpt><trkpt lat="48.4797033" lon="-4.1827967"><ele>38.0</ele><time>2026-04-23T08:14:15.673Z</time></trkpt><trkpt lat="48.4797633" lon="-4.1825233"><ele>35.0</ele><time>2026-04-23T08:14:16.673Z</time></trkpt><trkpt lat="48.4798333" lon="-4.1822533"><ele>32.0</ele><time>2026-04-23T08:14:17.673Z</time></trkpt><trkpt lat="48.47991" lon="-4.181985"><ele>29.0</ele><time>2026-04-23T08:14:18.675Z</time></trkpt><trkpt lat="48.4799833" lon="-4.181715"><ele>27.333333333333332</ele><time>2026-04-23T08:14:19.676Z</time></trkpt><trkpt lat="48.4800567" lon="-4.1814483"><ele>25.666666666666664</ele><time>2026-04-23T08:14:20.675Z</time></trkpt><trkpt lat="48.48013" lon="-4.1811817"><ele>24.0</ele><time>2026-04-23T08:14:21.676Z</time></trkpt><trkpt lat="48.4802083" lon="-4.1809217"><ele>24.0</ele><time>2026-04-23T08:14:22.675Z</time></trkpt><trkpt lat="48.48029" lon="-4.1806733"><ele>24.0</ele><time>2026-04-23T08:14:23.673Z</time></trkpt><trkpt lat="48.4803933" lon="-4.180445"><ele>24.0</ele><time>2026-04-23T08:14:24.675Z</time></trkpt><trkpt lat="48.4805117" lon="-4.1802317"><ele>24.666666666666664</ele><time>2026-04-23T08:14:25.674Z</time></trkpt><trkpt lat="48.48064" lon="-4.18003"><ele>25.333333333333332</ele><time>2026-04-23T08:14:26.678Z</time></trkpt><trkpt lat="48.48079" lon="-4.17985"><ele>26.0</ele><time>2026-04-23T08:14:27.676Z</time></trkpt><trkpt lat="48.4809417" lon="-4.17967"><ele>26.0</ele><time>2026-04-23T08:14:28.674Z</time></trkpt><trkpt lat="48.4811067" lon="-4.1795083"><ele>26.0</ele><time>2026-04-23T08:14:29.673Z</time></trkpt><trkpt lat="48.4812783" lon="-4.1793567"><ele>26.0</ele><time>2026-04-23T08:14:30.676Z</time></trkpt><trkpt lat="48.4814483" lon="-4.1792133"><ele>25.666666666666664</ele><time>2026-04-23T08:14:31.676Z</time></trkpt><trkpt lat="48.4816267" lon="-4.1790883"><ele>25.333333333333336</ele><time>2026-04-23T08:14:32.681Z</time></trkpt><trkpt lat="48.48181" lon="-4.1789867"><ele>25.0</ele><time>2026-04-23T08:14:33.674Z</time></trkpt><trkpt lat="48.482005" lon="-4.1789133"><ele>25.666666666666668</ele><time>2026-04-23T08:14:34.674Z</time></trkpt><trkpt lat="48.4821917" lon="-4.1788167"><ele>26.333333333333336</ele><time>2026-04-23T08:14:35.676Z</time></trkpt><trkpt lat="48.482375" lon="-4.17871"><ele>27.0</ele><time>2026-04-23T08:14:36.673Z</time></trkpt><trkpt lat="48.482555" lon="-4.1785967"><ele>27.0</ele><time>2026-04-23T08:14:37.675Z</time></trkpt><trkpt lat="48.48273" lon="-4.178475"><ele>27.0</ele><time>2026-04-23T08:14:38.673Z</time></trkpt><trkpt lat="48.4828967" lon="-4.1783283"><ele>27.0</ele><time>2026-04-23T08:14:39.678Z</time></trkpt><trkpt lat="48.4830533" lon="-4.1781417"><ele>26.333333333333336</ele><time>2026-04-23T08:14:40.675Z</time></trkpt><trkpt lat="48.4831933" lon="-4.1779367"><ele>25.666666666666668</ele><time>2026-04-23T08:14:41.676Z</time></trkpt><trkpt lat="48.4833283" lon="-4.1777183"><ele>25.0</ele><time>2026-04-23T08:14:42.677Z</time></trkpt><trkpt lat="48.483455" lon="-4.1774933"><ele>24.333333333333336</ele><time>2026-04-23T08:14:43.678Z</time></trkpt><trkpt lat="48.4835883" lon="-4.1772717"><ele>23.666666666666668</ele><time>2026-04-23T08:14:44.675Z</time></trkpt><trkpt lat="48.483715" lon="-4.17705"><ele>23.0</ele><time>2026-04-23T08:14:45.674Z</time></trkpt><trkpt lat="48.4838467" lon="-4.1768367"><ele>22.666666666666668</ele><time>2026-04-23T08:14:46.675Z</time></trkpt><trkpt lat="48.4839917" lon="-4.1766483"><ele>22.333333333333332</ele><time>2026-04-23T08:14:47.676Z</time></trkpt><trkpt lat="48.4841433" lon="-4.1764817"><ele>22.0</ele><time>2026-04-23T08:14:48.679Z</time></trkpt><trkpt lat="48.48431" lon="-4.1763533"><ele>22.0</ele><time>2026-04-23T08:14:49.677Z</time></trkpt><trkpt lat="48.484485" lon="-4.17625"><ele>22.0</ele><time>2026-04-23T08:14:50.677Z</time></trkpt><trkpt lat="48.484665" lon="-4.1761783"><ele>22.0</ele><time>2026-04-23T08:14:51.674Z</time></trkpt><trkpt lat="48.4848483" lon="-4.17612"><ele>22.333333333333332</ele><time>2026-04-23T08:14:52.678Z</time></trkpt><trkpt lat="48.4850333" lon="-4.1760633"><ele>22.666666666666668</ele><time>2026-04-23T08:14:53.676Z</time></trkpt><trkpt lat="48.4852083" lon="-4.1759783"><ele>23.0</ele><time>2026-04-23T08:14:54.673Z</time></trkpt><trkpt lat="48.4853733" lon="-4.17586"><ele>24.666666666666668</ele><time>2026-04-23T08:14:55.677Z</time></trkpt><trkpt lat="48.4855217" lon="-4.1757033"><ele>26.333333333333336</ele><time>2026-04-23T08:14:56.676Z</time></trkpt><trkpt lat="48.4856583" lon="-4.1755133"><ele>28.0</ele><time>2026-04-23T08:14:57.675Z</time></trkpt><trkpt lat="48.4857833" lon="-4.1752983"><ele>28.0</ele><time>2026-04-23T08:14:58.675Z</time></trkpt><trkpt lat="48.4859017" lon="-4.1750717"><ele>28.0</ele><time>2026-04-23T08:14:59.675Z</time></trkpt><trkpt lat="48.4860133" lon="-4.1748383"><ele>28.0</ele><time>2026-04-23T08:15:00.674Z</time></trkpt><trkpt lat="48.4861117" lon="-4.17459"><ele>27.666666666666668</ele><time>2026-04-23T08:15:01.676Z</time></trkpt><trkpt lat="48.4862017" lon="-4.1743383"><ele>27.333333333333336</ele><time>2026-04-23T08:15:02.677Z</time></trkpt><trkpt lat="48.48628" lon="-4.1740767"><ele>27.0</ele><time>2026-04-23T08:15:03.677Z</time></trkpt><trkpt lat="48.486355" lon="-4.17381"><ele>28.0</ele><time>2026-04-23T08:15:04.673Z</time></trkpt><trkpt lat="48.4864083" lon="-4.1735233"><ele>29.0</ele><time>2026-04-23T08:15:05.675Z</time></trkpt><trkpt lat="48.48645" lon="-4.1732317"><ele>30.0</ele><time>2026-04-23T08:15:06.673Z</time></trkpt><trkpt lat="48.4864783" lon="-4.1729383"><ele>30.0</ele><time>2026-04-23T08:15:07.674Z</time></trkpt><trkpt lat="48.4865067" lon="-4.1726433"><ele>30.0</ele><time>2026-04-23T08:15:08.675Z</time></trkpt><trkpt lat="48.4865383" lon="-4.1723467"><ele>30.0</ele><time>2026-04-23T08:15:09.677Z</time></trkpt><trkpt lat="48.4865683" lon="-4.17205"><ele>29.333333333333336</ele><time>2026-04-23T08:15:10.674Z</time></trkpt><trkpt lat="48.4865983" lon="-4.1717533"><ele>28.666666666666668</ele><time>2026-04-23T08:15:11.679Z</time></trkpt><trkpt lat="48.4866283" lon="-4.1714583"><ele>28.0</ele><time>2026-04-23T08:15:12.672Z</time></trkpt><trkpt lat="48.4866583" lon="-4.17116"><ele>27.666666666666668</ele><time>2026-04-23T08:15:13.674Z</time></trkpt><trkpt lat="48.4866933" lon="-4.17086"><ele>27.333333333333336</ele><time>2026-04-23T08:15:14.674Z</time></trkpt><trkpt lat="48.4867283" lon="-4.170555"><ele>27.0</ele><time>2026-04-23T08:15:15.676Z</time></trkpt><trkpt lat="48.4867717" lon="-4.170255"><ele>27.0</ele><time>2026-04-23T08:15:16.678Z</time></trkpt><trkpt lat="48.4868233" lon="-4.1699633"><ele>27.0</ele><time>2026-04-23T08:15:17.678Z</time></trkpt><trkpt lat="48.4868883" lon="-4.16968"><ele>27.0</ele><time>2026-04-23T08:15:18.677Z</time></trkpt><trkpt lat="48.48696" lon="-4.1694033"><ele>26.666666666666664</ele><time>2026-04-23T08:15:19.672Z</time></trkpt><trkpt lat="48.487035" lon="-4.1691283"><ele>26.333333333333332</ele><time>2026-04-23T08:15:20.676Z</time></trkpt><trkpt lat="48.48711" lon="-4.1688533"><ele>26.0</ele><time>2026-04-23T08:15:21.673Z</time></trkpt><trkpt lat="48.487185" lon="-4.16858"><ele>28.333333333333332</ele><time>2026-04-23T08:15:22.676Z</time></trkpt><trkpt lat="48.48726" lon="-4.1683133"><ele>30.666666666666664</ele><time>2026-04-23T08:15:23.678Z</time></trkpt><trkpt lat="48.4873367" lon="-4.168045"><ele>33.0</ele><time>2026-04-23T08:15:24.673Z</time></trkpt><trkpt lat="48.4874117" lon="-4.1677783"><ele>33.0</ele><time>2026-04-23T08:15:25.673Z</time></trkpt><trkpt lat="48.48748" lon="-4.16751"><ele>33.0</ele><time>2026-04-23T08:15:26.676Z</time></trkpt><trkpt lat="48.48755" lon="-4.1672417"><ele>33.0</ele><time>2026-04-23T08:15:27.679Z</time></trkpt><trkpt lat="48.4876167" lon="-4.166975"><ele>32.333333333333336</ele><time>2026-04-23T08:15:28.676Z</time></trkpt><trkpt lat="48.4876833" lon="-4.1667017"><ele>31.666666666666668</ele><time>2026-04-23T08:15:29.675Z</time></trkpt><trkpt lat="48.487745" lon="-4.1664283"><ele>31.0</ele><time>2026-04-23T08:15:30.677Z</time></trkpt><trkpt lat="48.487805" lon="-4.1661533"><ele>30.666666666666668</ele><time>2026-04-23T08:15:31.674Z</time></trkpt><trkpt lat="48.487865" lon="-4.1658783"><ele>30.333333333333336</ele><time>2026-04-23T08:15:32.673Z</time></trkpt><trkpt lat="48.48792" lon="-4.1656033"><ele>30.0</ele><time>2026-04-23T08:15:33.673Z</time></trkpt><trkpt lat="48.4879733" lon="-4.165325"><ele>33.0</ele><time>2026-04-23T08:15:34.679Z</time></trkpt><trkpt lat="48.4880317" lon="-4.1650533"><ele>36.0</ele><time>2026-04-23T08:15:35.676Z</time></trkpt><trkpt lat="48.4880917" lon="-4.164785"><ele>39.0</ele><time>2026-04-23T08:15:36.672Z</time></trkpt><trkpt lat="48.4881583" lon="-4.1645183"><ele>39.0</ele><time>2026-04-23T08:15:37.678Z</time></trkpt><trkpt lat="48.4882167" lon="-4.16425"><ele>39.0</ele><time>2026-04-23T08:15:38.679Z</time></trkpt><trkpt lat="48.4882767" lon="-4.163985"><ele>39.0</ele><time>2026-04-23T08:15:39.673Z</time></trkpt><trkpt lat="48.488335" lon="-4.1637133"><ele>35.0</ele><time>2026-04-23T08:15:40.677Z</time></trkpt><trkpt lat="48.488395" lon="-4.1634433"><ele>31.0</ele><time>2026-04-23T08:15:41.675Z</time></trkpt><trkpt lat="48.4884567" lon="-4.1631817"><ele>27.0</ele><time>2026-04-23T08:15:42.675Z</time></trkpt><trkpt lat="48.48852" lon="-4.1629167"><ele>26.666666666666664</ele><time>2026-04-23T08:15:43.674Z</time></trkpt><trkpt lat="48.4885767" lon="-4.1626517"><ele>26.333333333333332</ele><time>2026-04-23T08:15:44.675Z</time></trkpt><trkpt lat="48.4886233" lon="-4.1623833"><ele>26.0</ele><time>2026-04-23T08:15:45.673Z</time></trkpt><trkpt lat="48.4886533" lon="-4.1621133"><ele>26.0</ele><time>2026-04-23T08:15:46.675Z</time></trkpt><trkpt lat="48.4886717" lon="-4.1618417"><ele>26.0</ele><time>2026-04-23T08:15:47.673Z</time></trkpt><trkpt lat="48.488685" lon="-4.1615717"><ele>26.0</ele><time>2026-04-23T08:15:48.675Z</time></trkpt><trkpt lat="48.4886983" lon="-4.1613"><ele>26.666666666666664</ele><time>2026-04-23T08:15:49.675Z</time></trkpt><trkpt lat="48.488715" lon="-4.161025"><ele>27.333333333333336</ele><time>2026-04-23T08:15:50.676Z</time></trkpt><trkpt lat="48.4887383" lon="-4.160745"><ele>28.0</ele><time>2026-04-23T08:15:51.674Z</time></trkpt><trkpt lat="48.48877" lon="-4.1604683"><ele>32.66666666666667</ele><time>2026-04-23T08:15:52.674Z</time></trkpt><trkpt lat="48.488815" lon="-4.1601933"><ele>37.333333333333336</ele><time>2026-04-23T08:15:53.673Z</time></trkpt><trkpt lat="48.4888667" lon="-4.15992"><ele>42.0</ele><time>2026-04-23T08:15:54.676Z</time></trkpt><trkpt lat="48.4889217" lon="-4.15965"><ele>42.0</ele><time>2026-04-23T08:15:55.674Z</time></trkpt><trkpt lat="48.4889833" lon="-4.1593783"><ele>42.0</ele><time>2026-04-23T08:15:56.677Z</time></trkpt><trkpt lat="48.4890467" lon="-4.1591083"><ele>42.0</ele><time>2026-04-23T08:15:57.675Z</time></trkpt><trkpt lat="48.4891067" lon="-4.1588367"><ele>39.666666666666664</ele><time>2026-04-23T08:15:58.674Z</time></trkpt><trkpt lat="48.4891667" lon="-4.1585617"><ele>37.33333333333333</ele><time>2026-04-23T08:15:59.676Z</time></trkpt><trkpt lat="48.489225" lon="-4.15829"><ele>35.0</ele><time>2026-04-23T08:16:00.677Z</time></trkpt><trkpt lat="48.4892833" lon="-4.1580167"><ele>34.0</ele><time>2026-04-23T08:16:01.674Z</time></trkpt><trkpt lat="48.4893467" lon="-4.1577483"><ele>33.0</ele><time>2026-04-23T08:16:02.675Z</time></trkpt><trkpt lat="48.4894117" lon="-4.1574883"><ele>32.0</ele><time>2026-04-23T08:16:03.673Z</time></trkpt><trkpt lat="48.4894783" lon="-4.157235"><ele>30.333333333333332</ele><time>2026-04-23T08:16:04.675Z</time></trkpt><trkpt lat="48.489545" lon="-4.1569933"><ele>28.666666666666664</ele><time>2026-04-23T08:16:05.673Z</time></trkpt><trkpt lat="48.4896067" lon="-4.156765"><ele>27.0</ele><time>2026-04-23T08:16:06.676Z</time></trkpt><trkpt lat="48.4896617" lon="-4.1565567"><ele>30.25</ele><time>2026-04-23T08:16:07.673Z</time></trkpt><trkpt lat="48.4897117" lon="-4.1563633"><ele>33.5</ele><time>2026-04-23T08:16:08.674Z</time></trkpt><trkpt lat="48.489745" lon="-4.15618"><ele>36.75</ele><time>2026-04-23T08:16:09.674Z</time></trkpt><trkpt lat="48.48975" lon="-4.1559883"><ele>40.0</ele><time>2026-04-23T08:16:10.673Z</time></trkpt><trkpt lat="48.48972" lon="-4.1558033"><ele>42.0</ele><time>2026-04-23T08:16:11.677Z</time></trkpt><trkpt lat="48.4896683" lon="-4.155625"><ele>44.0</ele><time>2026-04-23T08:16:12.677Z</time></trkpt><trkpt lat="48.4896083" lon="-4.1554483"><ele>46.0</ele><time>2026-04-23T08:16:13.675Z</time></trkpt><trkpt lat="48.4895383" lon="-4.1552767"><ele>48.0</ele><time>2026-04-23T08:16:14.681Z</time></trkpt><trkpt lat="48.4894617" lon="-4.1551183"><ele>44.75</ele><time>2026-04-23T08:16:15.677Z</time></trkpt><trkpt lat="48.4893783" lon="-4.15496"><ele>41.5</ele><time>2026-04-23T08:16:16.675Z</time></trkpt><trkpt lat="48.4892867" lon="-4.1548067"><ele>38.25</ele><time>2026-04-23T08:16:17.675Z</time></trkpt><trkpt lat="48.489185" lon="-4.154665"><ele>35.0</ele><time>2026-04-23T08:16:18.679Z</time></trkpt><trkpt lat="48.4890633" lon="-4.154545"><ele>35.0</ele><time>2026-04-23T08:16:19.683Z</time></trkpt><trkpt lat="48.4889283" lon="-4.1544433"><ele>35.0</ele><time>2026-04-23T08:16:20.675Z</time></trkpt><trkpt lat="48.4887817" lon="-4.15435"><ele>35.0</ele><time>2026-04-23T08:16:21.675Z</time></trkpt><trkpt lat="48.4886233" lon="-4.1542567"><ele>33.33333333333333</ele><time>2026-04-23T08:16:22.673Z</time></trkpt><trkpt lat="48.488455" lon="-4.15416"><ele>31.666666666666664</ele><time>2026-04-23T08:16:23.675Z</time></trkpt><trkpt lat="48.488285" lon="-4.154065"><ele>30.0</ele><time>2026-04-23T08:16:24.684Z</time></trkpt><trkpt lat="48.4881117" lon="-4.1539667"><ele>30.0</ele><time>2026-04-23T08:16:25.674Z</time></trkpt><trkpt lat="48.4879367" lon="-4.1538633"><ele>30.0</ele><time>2026-04-23T08:16:26.675Z</time></trkpt><trkpt lat="48.487765" lon="-4.1537567"><ele>30.0</ele><time>2026-04-23T08:16:27.676Z</time></trkpt><trkpt lat="48.487595" lon="-4.1536483"><ele>29.0</ele><time>2026-04-23T08:16:28.674Z</time></trkpt><trkpt lat="48.487435" lon="-4.1535317"><ele>28.0</ele><time>2026-04-23T08:16:29.681Z</time></trkpt><trkpt lat="48.4872817" lon="-4.1533983"><ele>27.0</ele><time>2026-04-23T08:16:30.678Z</time></trkpt><trkpt lat="48.48713" lon="-4.1532383"><ele>27.0</ele><time>2026-04-23T08:16:31.676Z</time></trkpt><trkpt lat="48.4869867" lon="-4.1530633"><ele>27.0</ele><time>2026-04-23T08:16:32.679Z</time></trkpt><trkpt lat="48.4868517" lon="-4.1528767"><ele>27.0</ele><time>2026-04-23T08:16:33.673Z</time></trkpt><trkpt lat="48.48672" lon="-4.15268"><ele>27.0</ele><time>2026-04-23T08:16:34.677Z</time></trkpt><trkpt lat="48.4866" lon="-4.1524667"><ele>27.0</ele><time>2026-04-23T08:16:35.678Z</time></trkpt><trkpt lat="48.4864967" lon="-4.152235"><ele>27.0</ele><time>2026-04-23T08:16:36.671Z</time></trkpt><trkpt lat="48.486405" lon="-4.1519933"><ele>26.0</ele><time>2026-04-23T08:16:37.678Z</time></trkpt><trkpt lat="48.486325" lon="-4.1517517"><ele>25.0</ele><time>2026-04-23T08:16:38.672Z</time></trkpt><trkpt lat="48.4862533" lon="-4.1515117"><ele>24.0</ele><time>2026-04-23T08:16:39.674Z</time></trkpt><trkpt lat="48.4861867" lon="-4.1512733"><ele>24.0</ele><time>2026-04-23T08:16:40.677Z</time></trkpt><trkpt lat="48.48612" lon="-4.151035"><ele>24.0</ele><time>2026-04-23T08:16:41.673Z</time></trkpt><trkpt lat="48.4860583" lon="-4.150795"><ele>24.0</ele><time>2026-04-23T08:16:42.674Z</time></trkpt><trkpt lat="48.4859917" lon="-4.150565"><ele>25.0</ele><time>2026-04-23T08:16:43.672Z</time></trkpt><trkpt lat="48.4859267" lon="-4.1503333"><ele>26.0</ele><time>2026-04-23T08:16:44.674Z</time></trkpt><trkpt lat="48.4858617" lon="-4.1501017"><ele>27.0</ele><time>2026-04-23T08:16:45.675Z</time></trkpt><trkpt lat="48.485795" lon="-4.1498683"><ele>29.666666666666664</ele><time>2026-04-23T08:16:46.672Z</time></trkpt><trkpt lat="48.48573" lon="-4.149635"><ele>32.33333333333333</ele><time>2026-04-23T08:16:47.674Z</time></trkpt><trkpt lat="48.4856683" lon="-4.1494033"><ele>35.0</ele><time>2026-04-23T08:16:48.676Z</time></trkpt><trkpt lat="48.485615" lon="-4.14917"><ele>36.0</ele><time>2026-04-23T08:16:49.675Z</time></trkpt><trkpt lat="48.4855767" lon="-4.148935"><ele>37.0</ele><time>2026-04-23T08:16:50.676Z</time></trkpt><trkpt lat="48.485555" lon="-4.1486917"><ele>38.0</ele><time>2026-04-23T08:16:51.679Z</time></trkpt><trkpt lat="48.4855533" lon="-4.1484483"><ele>37.666666666666664</ele><time>2026-04-23T08:16:52.672Z</time></trkpt><trkpt lat="48.485565" lon="-4.148205"><ele>37.333333333333336</ele><time>2026-04-23T08:16:53.672Z</time></trkpt><trkpt lat="48.4855983" lon="-4.1479633"><ele>37.0</ele><time>2026-04-23T08:16:54.679Z</time></trkpt><trkpt lat="48.485655" lon="-4.14772"><ele>37.0</ele><time>2026-04-23T08:16:55.677Z</time></trkpt><trkpt lat="48.4857183" lon="-4.1474733"><ele>37.0</ele><time>2026-04-23T08:16:56.674Z</time></trkpt><trkpt lat="48.4857833" lon="-4.1472217"><ele>37.0</ele><time>2026-04-23T08:16:57.672Z</time></trkpt><trkpt lat="48.4858467" lon="-4.1469667"><ele>35.333333333333336</ele><time>2026-04-23T08:16:58.679Z</time></trkpt><trkpt lat="48.4858983" lon="-4.146705"><ele>33.666666666666664</ele><time>2026-04-23T08:16:59.671Z</time></trkpt><trkpt lat="48.48593" lon="-4.14644"><ele>32.0</ele><time>2026-04-23T08:17:00.674Z</time></trkpt><trkpt lat="48.4859383" lon="-4.1461667"><ele>31.0</ele><time>2026-04-23T08:17:01.678Z</time></trkpt><trkpt lat="48.485945" lon="-4.1458933"><ele>30.0</ele><time>2026-04-23T08:17:02.677Z</time></trkpt><trkpt lat="48.4859483" lon="-4.14562"><ele>29.0</ele><time>2026-04-23T08:17:03.673Z</time></trkpt><trkpt lat="48.4859567" lon="-4.1453467"><ele>29.0</ele><time>2026-04-23T08:17:04.676Z</time></trkpt><trkpt lat="48.485965" lon="-4.14507"><ele>29.0</ele><time>2026-04-23T08:17:05.672Z</time></trkpt><trkpt lat="48.4859733" lon="-4.1448067"><ele>29.0</ele><time>2026-04-23T08:17:06.678Z</time></trkpt><trkpt lat="48.485995" lon="-4.14455"><ele>29.666666666666664</ele><time>2026-04-23T08:17:07.673Z</time></trkpt><trkpt lat="48.4860317" lon="-4.1443033"><ele>30.333333333333336</ele><time>2026-04-23T08:17:08.674Z</time></trkpt><trkpt lat="48.486095" lon="-4.1440733"><ele>31.0</ele><time>2026-04-23T08:17:09.674Z</time></trkpt><trkpt lat="48.48619" lon="-4.143865"><ele>34.333333333333336</ele><time>2026-04-23T08:17:10.678Z</time></trkpt><trkpt lat="48.4863017" lon="-4.1436817"><ele>37.666666666666664</ele><time>2026-04-23T08:17:11.674Z</time></trkpt><trkpt lat="48.486415" lon="-4.1435117"><ele>41.0</ele><time>2026-04-23T08:17:12.674Z</time></trkpt><trkpt lat="48.4865267" lon="-4.14335"><ele>39.75</ele><time>2026-04-23T08:17:13.676Z</time></trkpt><trkpt lat="48.4866217" lon="-4.1431767"><ele>38.5</ele><time>2026-04-23T08:17:14.675Z</time></trkpt><trkpt lat="48.4867083" lon="-4.142995"><ele>37.25</ele><time>2026-04-23T08:17:15.672Z</time></trkpt><trkpt lat="48.486785" lon="-4.1428"><ele>36.0</ele><time>2026-04-23T08:17:16.676Z</time></trkpt><trkpt lat="48.4868467" lon="-4.1425933"><ele>36.0</ele><time>2026-04-23T08:17:17.675Z</time></trkpt><trkpt lat="48.4869067" lon="-4.14239"><ele>36.0</ele><time>2026-04-23T08:17:18.675Z</time></trkpt><trkpt lat="48.4869617" lon="-4.142185"><ele>36.0</ele><time>2026-04-23T08:17:19.676Z</time></trkpt><trkpt lat="48.4870083" lon="-4.1419817"><ele>36.0</ele><time>2026-04-23T08:17:20.675Z</time></trkpt><trkpt lat="48.4870467" lon="-4.141775"><ele>35.25</ele><time>2026-04-23T08:17:21.675Z</time></trkpt><trkpt lat="48.4870767" lon="-4.14156"><ele>34.5</ele><time>2026-04-23T08:17:22.675Z</time></trkpt><trkpt lat="48.48709" lon="-4.141345"><ele>33.75</ele><time>2026-04-23T08:17:23.677Z</time></trkpt><trkpt lat="48.4870983" lon="-4.1411217"><ele>33.0</ele><time>2026-04-23T08:17:24.678Z</time></trkpt><trkpt lat="48.487095" lon="-4.1408933"><ele>32.333333333333336</ele><time>2026-04-23T08:17:25.675Z</time></trkpt><trkpt lat="48.487085" lon="-4.14066"><ele>31.666666666666668</ele><time>2026-04-23T08:17:26.674Z</time></trkpt><trkpt lat="48.48707" lon="-4.1404267"><ele>31.0</ele><time>2026-04-23T08:17:27.675Z</time></trkpt><trkpt lat="48.487055" lon="-4.1401917"><ele>31.0</ele><time>2026-04-23T08:17:28.672Z</time></trkpt><trkpt lat="48.4870417" lon="-4.1399567"><ele>31.0</ele><time>2026-04-23T08:17:29.673Z</time></trkpt><trkpt lat="48.4870333" lon="-4.139715"><ele>31.0</ele><time>2026-04-23T08:17:30.673Z</time></trkpt><trkpt lat="48.4870267" lon="-4.1394783"><ele>31.0</ele><time>2026-04-23T08:17:31.675Z</time></trkpt><trkpt lat="48.48704" lon="-4.1392367"><ele>31.0</ele><time>2026-04-23T08:17:32.674Z</time></trkpt><trkpt lat="48.48707" lon="-4.1390017"><ele>31.0</ele><time>2026-04-23T08:17:33.673Z</time></trkpt><trkpt lat="48.4871083" lon="-4.1387717"><ele>31.75</ele><time>2026-04-23T08:17:34.674Z</time></trkpt><trkpt lat="48.4871533" lon="-4.138555"><ele>32.5</ele><time>2026-04-23T08:17:35.676Z</time></trkpt><trkpt lat="48.4872017" lon="-4.1383483"><ele>33.25</ele><time>2026-04-23T08:17:36.672Z</time></trkpt><trkpt lat="48.48725" lon="-4.1381517"><ele>34.0</ele><time>2026-04-23T08:17:37.674Z</time></trkpt><trkpt lat="48.4873" lon="-4.13797"><ele>34.0</ele><time>2026-04-23T08:17:38.672Z</time></trkpt><trkpt lat="48.487345" lon="-4.137795"><ele>34.0</ele><time>2026-04-23T08:17:39.675Z</time></trkpt><trkpt lat="48.4873817" lon="-4.1376383"><ele>34.0</ele><time>2026-04-23T08:17:40.672Z</time></trkpt><trkpt lat="48.487415" lon="-4.137505"><ele>34.0</ele><time>2026-04-23T08:17:41.678Z</time></trkpt><trkpt lat="48.48745" lon="-4.1373733"><ele>34.0</ele><time>2026-04-23T08:17:42.671Z</time></trkpt><trkpt lat="48.48748" lon="-4.1372467"><ele>33.833333333333336</ele><time>2026-04-23T08:17:43.672Z</time></trkpt><trkpt lat="48.4875083" lon="-4.1371217"><ele>33.66666666666667</ele><time>2026-04-23T08:17:44.674Z</time></trkpt><trkpt lat="48.4875383" lon="-4.1370067"><ele>33.5</ele><time>2026-04-23T08:17:45.673Z</time></trkpt><trkpt lat="48.4875617" lon="-4.1369067"><ele>33.333333333333336</ele><time>2026-04-23T08:17:46.68Z</time></trkpt><trkpt lat="48.4876017" lon="-4.1367633"><ele>33.166666666666664</ele><time>2026-04-23T08:17:48.671Z</time></trkpt><trkpt lat="48.48764" lon="-4.1368617"><ele>33.0</ele><time>2026-04-23T08:17:53.673Z</time></trkpt><trkpt lat="48.4876167" lon="-4.1369733"><ele>33.0</ele><time>2026-04-23T08:17:55.676Z</time></trkpt><trkpt lat="48.487585" lon="-4.1370767"><ele>33.0</ele><time>2026-04-23T08:17:57.672Z</time></trkpt><trkpt lat="48.4875317" lon="-4.137175"><ele>33.0</ele><time>2026-04-23T08:17:59.672Z</time></trkpt><trkpt lat="48.48748" lon="-4.1373817"><ele>33.0</ele><time>2026-04-23T08:18:01.677Z</time></trkpt><trkpt lat="48.4874517" lon="-4.1375233"><ele>33.0</ele><time>2026-04-23T08:18:02.674Z</time></trkpt><trkpt lat="48.4874167" lon="-4.137675"><ele>33.25</ele><time>2026-04-23T08:18:03.676Z</time></trkpt><trkpt lat="48.48738" lon="-4.1378417"><ele>33.5</ele><time>2026-04-23T08:18:04.672Z</time></trkpt><trkpt lat="48.48734" lon="-4.1380183"><ele>33.75</ele><time>2026-04-23T08:18:05.676Z</time></trkpt><trkpt lat="48.487295" lon="-4.138215"><ele>34.0</ele><time>2026-04-23T08:18:06.677Z</time></trkpt><trkpt lat="48.4872467" lon="-4.1384267"><ele>35.66666666666667</ele><time>2026-04-23T08:18:07.672Z</time></trkpt><trkpt lat="48.487195" lon="-4.1386467"><ele>37.333333333333336</ele><time>2026-04-23T08:18:08.675Z</time></trkpt><trkpt lat="48.4871467" lon="-4.13887"><ele>39.0</ele><time>2026-04-23T08:18:09.678Z</time></trkpt><trkpt lat="48.48711" lon="-4.1390983"><ele>36.666666666666664</ele><time>2026-04-23T08:18:10.672Z</time></trkpt><trkpt lat="48.4870833" lon="-4.1393367"><ele>34.33333333333333</ele><time>2026-04-23T08:18:11.674Z</time></trkpt><trkpt lat="48.4870733" lon="-4.13958"><ele>32.0</ele><time>2026-04-23T08:18:12.674Z</time></trkpt><trkpt lat="48.4870783" lon="-4.1398417"><ele>31.666666666666664</ele><time>2026-04-23T08:18:13.671Z</time></trkpt><trkpt lat="48.48709" lon="-4.1401083"><ele>31.333333333333336</ele><time>2026-04-23T08:18:14.675Z</time></trkpt><trkpt lat="48.4871033" lon="-4.1403767"><ele>31.0</ele><time>2026-04-23T08:18:15.675Z</time></trkpt><trkpt lat="48.487115" lon="-4.1406483"><ele>36.0</ele><time>2026-04-23T08:18:16.675Z</time></trkpt><trkpt lat="48.4871233" lon="-4.1409117"><ele>41.0</ele><time>2026-04-23T08:18:17.675Z</time></trkpt><trkpt lat="48.4871283" lon="-4.1411767"><ele>46.0</ele><time>2026-04-23T08:18:18.673Z</time></trkpt><trkpt lat="48.4871183" lon="-4.1414433"><ele>41.66666666666667</ele><time>2026-04-23T08:18:19.675Z</time></trkpt><trkpt lat="48.4870933" lon="-4.1417033"><ele>37.333333333333336</ele><time>2026-04-23T08:18:20.675Z</time></trkpt><trkpt lat="48.48705" lon="-4.1419583"><ele>33.0</ele><time>2026-04-23T08:18:21.672Z</time></trkpt><trkpt lat="48.4869967" lon="-4.142205"><ele>34.0</ele><time>2026-04-23T08:18:22.675Z</time></trkpt><trkpt lat="48.486935" lon="-4.1424517"><ele>35.0</ele><time>2026-04-23T08:18:23.672Z</time></trkpt><trkpt lat="48.4868633" lon="-4.1426917"><ele>36.0</ele><time>2026-04-23T08:18:24.678Z</time></trkpt><trkpt lat="48.4867817" lon="-4.142925"><ele>36.0</ele><time>2026-04-23T08:18:25.678Z</time></trkpt><trkpt lat="48.48669" lon="-4.1431467"><ele>36.0</ele><time>2026-04-23T08:18:26.673Z</time></trkpt><trkpt lat="48.4865883" lon="-4.1433533"><ele>36.0</ele><time>2026-04-23T08:18:27.67Z</time></trkpt><trkpt lat="48.4864717" lon="-4.143535"><ele>35.0</ele><time>2026-04-23T08:18:28.674Z</time></trkpt><trkpt lat="48.48635" lon="-4.1437067"><ele>34.0</ele><time>2026-04-23T08:18:29.675Z</time></trkpt><trkpt lat="48.4862367" lon="-4.1438917"><ele>33.0</ele><time>2026-04-23T08:18:30.675Z</time></trkpt><trkpt lat="48.4861467" lon="-4.1440983"><ele>32.333333333333336</ele><time>2026-04-23T08:18:31.673Z</time></trkpt><trkpt lat="48.48608" lon="-4.1443183"><ele>31.666666666666668</ele><time>2026-04-23T08:18:32.675Z</time></trkpt><trkpt lat="48.4860417" lon="-4.14456"><ele>31.0</ele><time>2026-04-23T08:18:33.673Z</time></trkpt><trkpt lat="48.4860167" lon="-4.1448133"><ele>30.333333333333336</ele><time>2026-04-23T08:18:34.674Z</time></trkpt><trkpt lat="48.4860067" lon="-4.1450717"><ele>29.666666666666664</ele><time>2026-04-23T08:18:35.673Z</time></trkpt><trkpt lat="48.4860017" lon="-4.1453383"><ele>29.0</ele><time>2026-04-23T08:18:36.676Z</time></trkpt><trkpt lat="48.486" lon="-4.1456033"><ele>28.666666666666664</ele><time>2026-04-23T08:18:37.674Z</time></trkpt><trkpt lat="48.485995" lon="-4.1458633"><ele>28.333333333333336</ele><time>2026-04-23T08:18:38.673Z</time></trkpt><trkpt lat="48.4859833" lon="-4.1461217"><ele>28.0</ele><time>2026-04-23T08:18:39.671Z</time></trkpt><trkpt lat="48.48597" lon="-4.1463767"><ele>29.333333333333336</ele><time>2026-04-23T08:18:40.678Z</time></trkpt><trkpt lat="48.4859533" lon="-4.1466367"><ele>30.666666666666664</ele><time>2026-04-23T08:18:41.673Z</time></trkpt><trkpt lat="48.48592" lon="-4.1468867"><ele>32.0</ele><time>2026-04-23T08:18:42.672Z</time></trkpt><trkpt lat="48.4858683" lon="-4.14713"><ele>32.0</ele><time>2026-04-23T08:18:43.671Z</time></trkpt><trkpt lat="48.4857967" lon="-4.1473717"><ele>32.0</ele><time>2026-04-23T08:18:44.674Z</time></trkpt><trkpt lat="48.48573" lon="-4.1476083"><ele>32.0</ele><time>2026-04-23T08:18:45.67Z</time></trkpt><trkpt lat="48.4856717" lon="-4.14784"><ele>33.25</ele><time>2026-04-23T08:18:46.672Z</time></trkpt><trkpt lat="48.48563" lon="-4.1480683"><ele>34.5</ele><time>2026-04-23T08:18:47.671Z</time></trkpt><trkpt lat="48.4856083" lon="-4.1482883"><ele>35.75</ele><time>2026-04-23T08:18:48.672Z</time></trkpt><trkpt lat="48.4855983" lon="-4.1484967"><ele>37.0</ele><time>2026-04-23T08:18:49.678Z</time></trkpt><trkpt lat="48.4856033" lon="-4.1486867"><ele>37.25</ele><time>2026-04-23T08:18:50.679Z</time></trkpt><trkpt lat="48.4856133" lon="-4.1488667"><ele>37.5</ele><time>2026-04-23T08:18:51.67Z</time></trkpt><trkpt lat="48.4856333" lon="-4.149035"><ele>37.75</ele><time>2026-04-23T08:18:52.674Z</time></trkpt><trkpt lat="48.485665" lon="-4.149195"><ele>38.0</ele><time>2026-04-23T08:18:53.674Z</time></trkpt><trkpt lat="48.4856967" lon="-4.1493517"><ele>37.4</ele><time>2026-04-23T08:18:54.67Z</time></trkpt><trkpt lat="48.4857333" lon="-4.1495017"><ele>36.8</ele><time>2026-04-23T08:18:55.672Z</time></trkpt><trkpt lat="48.4857717" lon="-4.1496367"><ele>36.2</ele><time>2026-04-23T08:18:56.672Z</time></trkpt><trkpt lat="48.4858033" lon="-4.14975"><ele>35.6</ele><time>2026-04-23T08:18:57.675Z</time></trkpt><trkpt lat="48.4858333" lon="-4.1498417"><ele>35.0</ele><time>2026-04-23T08:18:58.67Z</time></trkpt><trkpt lat="48.4859033" lon="-4.1499883"><ele>35.6</ele><time>2026-04-23T08:19:00.676Z</time></trkpt><trkpt lat="48.4859967" lon="-4.1500867"><ele>36.2</ele><time>2026-04-23T08:19:02.676Z</time></trkpt><trkpt lat="48.4860567" lon="-4.150135"><ele>36.8</ele><time>2026-04-23T08:19:03.677Z</time></trkpt><trkpt lat="48.48616" lon="-4.1502183"><ele>37.4</ele><time>2026-04-23T08:19:05.675Z</time></trkpt><trkpt lat="48.4862733" lon="-4.1502067"><ele>38.0</ele><time>2026-04-23T08:19:07.674Z</time></trkpt><trkpt lat="48.4863367" lon="-4.1500883"><ele>38.0</ele><time>2026-04-23T08:19:09.676Z</time></trkpt><trkpt lat="48.4863417" lon="-4.1499783"><ele>38.0</ele><time>2026-04-23T08:19:10.675Z</time></trkpt><trkpt lat="48.486335" lon="-4.14984"><ele>38.0</ele><time>2026-04-23T08:19:11.678Z</time></trkpt><trkpt lat="48.48632" lon="-4.1496967"><ele>38.0</ele><time>2026-04-23T08:19:12.672Z</time></trkpt><trkpt lat="48.48631" lon="-4.1495533"><ele>38.0</ele><time>2026-04-23T08:19:13.676Z</time></trkpt><trkpt lat="48.4862983" lon="-4.14942"><ele>38.0</ele><time>2026-04-23T08:19:14.675Z</time></trkpt><trkpt lat="48.4862833" lon="-4.149295"><ele>39.5</ele><time>2026-04-23T08:19:15.671Z</time></trkpt><trkpt lat="48.4862733" lon="-4.149175"><ele>41.0</ele><time>2026-04-23T08:19:16.675Z</time></trkpt><trkpt lat="48.48627" lon="-4.14906"><ele>42.5</ele><time>2026-04-23T08:19:17.675Z</time></trkpt><trkpt lat="48.4862767" lon="-4.1489517"><ele>44.0</ele><time>2026-04-23T08:19:18.672Z</time></trkpt><trkpt lat="48.4863" lon="-4.1488433"><ele>45.5</ele><time>2026-04-23T08:19:19.675Z</time></trkpt><trkpt lat="48.486355" lon="-4.1487667"><ele>47.0</ele><time>2026-04-23T08:19:20.676Z</time></trkpt><trkpt lat="48.486435" lon="-4.14871"><ele>48.400000000000006</ele><time>2026-04-23T08:19:21.674Z</time></trkpt><trkpt lat="48.4865267" lon="-4.14866"><ele>49.800000000000004</ele><time>2026-04-23T08:19:22.671Z</time></trkpt><trkpt lat="48.4866333" lon="-4.148615"><ele>51.2</ele><time>2026-04-23T08:19:23.674Z</time></trkpt><trkpt lat="48.4867417" lon="-4.1485633"><ele>52.6</ele><time>2026-04-23T08:19:24.677Z</time></trkpt><trkpt lat="48.4868517" lon="-4.1485167"><ele>54.0</ele><time>2026-04-23T08:19:25.68Z</time></trkpt><trkpt lat="48.4869633" lon="-4.1484633"><ele>54.0</ele><time>2026-04-23T08:19:26.676Z</time></trkpt><trkpt lat="48.4870783" lon="-4.1484067"><ele>54.0</ele><time>2026-04-23T08:19:27.68Z</time></trkpt><trkpt lat="48.4871933" lon="-4.1483467"><ele>54.0</ele><time>2026-04-23T08:19:28.675Z</time></trkpt><trkpt lat="48.4873083" lon="-4.1482867"><ele>54.0</ele><time>2026-04-23T08:19:29.675Z</time></trkpt><trkpt lat="48.48742" lon="-4.1482267"><ele>55.800000000000004</ele><time>2026-04-23T08:19:30.676Z</time></trkpt><trkpt lat="48.4875267" lon="-4.1481683"><ele>57.60000000000001</ele><time>2026-04-23T08:19:31.677Z</time></trkpt><trkpt lat="48.48763" lon="-4.148125"><ele>59.4</ele><time>2026-04-23T08:19:32.674Z</time></trkpt><trkpt lat="48.4877333" lon="-4.1481033"><ele>61.2</ele><time>2026-04-23T08:19:33.674Z</time></trkpt><trkpt lat="48.48784" lon="-4.1481083"><ele>63.0</ele><time>2026-04-23T08:19:34.675Z</time></trkpt><trkpt lat="48.4879517" lon="-4.148135"><ele>63.75</ele><time>2026-04-23T08:19:35.674Z</time></trkpt><trkpt lat="48.4880683" lon="-4.148175"><ele>64.5</ele><time>2026-04-23T08:19:36.678Z</time></trkpt><trkpt lat="48.4881933" lon="-4.1482267"><ele>65.25</ele><time>2026-04-23T08:19:37.672Z</time></trkpt><trkpt lat="48.48832" lon="-4.148285"><ele>66.0</ele><time>2026-04-23T08:19:38.674Z</time></trkpt><trkpt lat="48.4884467" lon="-4.14834"><ele>66.0</ele><time>2026-04-23T08:19:39.674Z</time></trkpt><trkpt lat="48.4885733" lon="-4.14839"><ele>66.0</ele><time>2026-04-23T08:19:40.675Z</time></trkpt><trkpt lat="48.4887017" lon="-4.1484333"><ele>66.0</ele><time>2026-04-23T08:19:41.674Z</time></trkpt><trkpt lat="48.48883" lon="-4.1484833"><ele>66.0</ele><time>2026-04-23T08:19:42.679Z</time></trkpt><trkpt lat="48.4889567" lon="-4.1485317"><ele>69.0</ele><time>2026-04-23T08:19:43.674Z</time></trkpt><trkpt lat="48.489085" lon="-4.1485717"><ele>72.0</ele><time>2026-04-23T08:19:44.676Z</time></trkpt><trkpt lat="48.4892117" lon="-4.1486"><ele>75.0</ele><time>2026-04-23T08:19:45.671Z</time></trkpt><trkpt lat="48.48934" lon="-4.148605"><ele>78.0</ele><time>2026-04-23T08:19:46.674Z</time></trkpt><trkpt lat="48.4894733" lon="-4.1485917"><ele>80.0</ele><time>2026-04-23T08:19:47.679Z</time></trkpt><trkpt lat="48.4896133" lon="-4.1485633"><ele>82.0</ele><time>2026-04-23T08:19:48.673Z</time></trkpt><trkpt lat="48.4897567" lon="-4.14853"><ele>84.0</ele><time>2026-04-23T08:19:49.675Z</time></trkpt><trkpt lat="48.4899083" lon="-4.1485017"><ele>86.0</ele><time>2026-04-23T08:19:50.676Z</time></trkpt><trkpt lat="48.4900617" lon="-4.1484783"><ele>86.0</ele><time>2026-04-23T08:19:51.672Z</time></trkpt><trkpt lat="48.490215" lon="-4.148455"><ele>86.0</ele><time>2026-04-23T08:19:52.678Z</time></trkpt><trkpt lat="48.4903683" lon="-4.1484417"><ele>86.0</ele><time>2026-04-23T08:19:53.674Z</time></trkpt><trkpt lat="48.4905233" lon="-4.1484267"><ele>86.25</ele><time>2026-04-23T08:19:54.673Z</time></trkpt><trkpt lat="48.490675" lon="-4.148405"><ele>86.5</ele><time>2026-04-23T08:19:55.673Z</time></trkpt><trkpt lat="48.49082" lon="-4.1483733"><ele>86.75</ele><time>2026-04-23T08:19:56.676Z</time></trkpt><trkpt lat="48.49096" lon="-4.1483367"><ele>87.0</ele><time>2026-04-23T08:19:57.673Z</time></trkpt><trkpt lat="48.491095" lon="-4.1482883"><ele>87.0</ele><time>2026-04-23T08:19:58.675Z</time></trkpt><trkpt lat="48.4912267" lon="-4.1482283"><ele>87.0</ele><time>2026-04-23T08:19:59.672Z</time></trkpt><trkpt lat="48.4913533" lon="-4.1481567"><ele>87.0</ele><time>2026-04-23T08:20:00.673Z</time></trkpt><trkpt lat="48.4914817" lon="-4.14808"><ele>87.0</ele><time>2026-04-23T08:20:01.676Z</time></trkpt><trkpt lat="48.49161" lon="-4.148005"><ele>88.25</ele><time>2026-04-23T08:20:02.673Z</time></trkpt><trkpt lat="48.4917333" lon="-4.14793"><ele>89.5</ele><time>2026-04-23T08:20:03.673Z</time></trkpt><trkpt lat="48.491855" lon="-4.147865"><ele>90.75</ele><time>2026-04-23T08:20:04.673Z</time></trkpt><trkpt lat="48.4919717" lon="-4.1478017"><ele>92.0</ele><time>2026-04-23T08:20:05.675Z</time></trkpt><trkpt lat="48.492085" lon="-4.1477317"><ele>92.25</ele><time>2026-04-23T08:20:06.675Z</time></trkpt><trkpt lat="48.4921983" lon="-4.147655"><ele>92.5</ele><time>2026-04-23T08:20:07.674Z</time></trkpt><trkpt lat="48.4923083" lon="-4.1475817"><ele>92.75</ele><time>2026-04-23T08:20:08.674Z</time></trkpt><trkpt lat="48.4924167" lon="-4.147515"><ele>93.0</ele><time>2026-04-23T08:20:09.674Z</time></trkpt><trkpt lat="48.4925233" lon="-4.1474583"><ele>93.0</ele><time>2026-04-23T08:20:10.673Z</time></trkpt><trkpt lat="48.4926317" lon="-4.14742"><ele>93.0</ele><time>2026-04-23T08:20:11.674Z</time></trkpt><trkpt lat="48.492735" lon="-4.1473933"><ele>93.0</ele><time>2026-04-23T08:20:12.678Z</time></trkpt><trkpt lat="48.4928267" lon="-4.147375"><ele>93.0</ele><time>2026-04-23T08:20:13.675Z</time></trkpt><trkpt lat="48.4929067" lon="-4.1473633"><ele>93.0</ele><time>2026-04-23T08:20:14.674Z</time></trkpt><trkpt lat="48.4929783" lon="-4.1473517"><ele>93.16666666666667</ele><time>2026-04-23T08:20:15.675Z</time></trkpt><trkpt lat="48.4930417" lon="-4.1473417"><ele>93.33333333333333</ele><time>2026-04-23T08:20:16.679Z</time></trkpt><trkpt lat="48.49313" lon="-4.1472883"><ele>93.5</ele><time>2026-04-23T08:20:18.671Z</time></trkpt><trkpt lat="48.4931983" lon="-4.1472117"><ele>93.66666666666666</ele><time>2026-04-23T08:20:20.674Z</time></trkpt><trkpt lat="48.4932583" lon="-4.1471467"><ele>93.83333333333333</ele><time>2026-04-23T08:20:22.679Z</time></trkpt><trkpt lat="48.49332" lon="-4.1470383"><ele>94.0</ele><time>2026-04-23T08:21:12.672Z</time></trkpt><trkpt lat="48.4933833" lon="-4.146905"><ele>94.0</ele><time>2026-04-23T08:21:14.679Z</time></trkpt><trkpt lat="48.4934417" lon="-4.1468133"><ele>94.0</ele><time>2026-04-23T08:21:15.675Z</time></trkpt><trkpt lat="48.493505" lon="-4.1467167"><ele>94.0</ele><time>2026-04-23T08:21:16.672Z</time></trkpt><trkpt lat="48.4935617" lon="-4.1466217"><ele>94.0</ele><time>2026-04-23T08:21:17.676Z</time></trkpt><trkpt lat="48.4936167" lon="-4.146525"><ele>94.0</ele><time>2026-04-23T08:21:18.676Z</time></trkpt><trkpt lat="48.4936717" lon="-4.146425"><ele>94.0</ele><time>2026-04-23T08:21:19.671Z</time></trkpt><trkpt lat="48.4937283" lon="-4.14632"><ele>93.80000000000001</ele><time>2026-04-23T08:21:20.672Z</time></trkpt><trkpt lat="48.4937917" lon="-4.1462217"><ele>93.60000000000001</ele><time>2026-04-23T08:21:21.671Z</time></trkpt><trkpt lat="48.49385" lon="-4.1461167"><ele>93.4</ele><time>2026-04-23T08:21:22.676Z</time></trkpt><trkpt lat="48.49391" lon="-4.1460083"><ele>93.2</ele><time>2026-04-23T08:21:23.674Z</time></trkpt><trkpt lat="48.4939733" lon="-4.1459033"><ele>93.0</ele><time>2026-04-23T08:21:24.677Z</time></trkpt><trkpt lat="48.4940367" lon="-4.1458033"><ele>93.0</ele><time>2026-04-23T08:21:25.674Z</time></trkpt><trkpt lat="48.4940983" lon="-4.1457033"><ele>93.0</ele><time>2026-04-23T08:21:26.673Z</time></trkpt><trkpt lat="48.4941633" lon="-4.1456033"><ele>93.0</ele><time>2026-04-23T08:21:27.671Z</time></trkpt><trkpt lat="48.49423" lon="-4.14551"><ele>93.0</ele><time>2026-04-23T08:21:28.671Z</time></trkpt><trkpt lat="48.4942933" lon="-4.14542"><ele>93.0</ele><time>2026-04-23T08:21:29.674Z</time></trkpt><trkpt lat="48.494345" lon="-4.1453467"><ele>93.0</ele><time>2026-04-23T08:21:30.674Z</time></trkpt><trkpt lat="48.4943867" lon="-4.14527"><ele>93.0</ele><time>2026-04-23T08:21:31.671Z</time></trkpt><trkpt lat="48.4944167" lon="-4.1451683"><ele>93.0</ele><time>2026-04-23T08:21:32.675Z</time></trkpt><trkpt lat="48.494445" lon="-4.1450417"><ele>93.0</ele><time>2026-04-23T08:21:33.675Z</time></trkpt><trkpt lat="48.49446" lon="-4.1449117"><ele>93.0</ele><time>2026-04-23T08:21:34.672Z</time></trkpt><trkpt lat="48.4944683" lon="-4.14479"><ele>93.0</ele><time>2026-04-23T08:21:35.674Z</time></trkpt><trkpt lat="48.49448" lon="-4.144665"><ele>93.0</ele><time>2026-04-23T08:21:36.67Z</time></trkpt><trkpt lat="48.4944967" lon="-4.1445483"><ele>92.83333333333333</ele><time>2026-04-23T08:21:37.672Z</time></trkpt><trkpt lat="48.494515" lon="-4.144435"><ele>92.66666666666667</ele><time>2026-04-23T08:21:38.671Z</time></trkpt><trkpt lat="48.49453" lon="-4.14432"><ele>92.5</ele><time>2026-04-23T08:21:39.67Z</time></trkpt><trkpt lat="48.49454" lon="-4.1442017"><ele>92.33333333333334</ele><time>2026-04-23T08:21:40.674Z</time></trkpt><trkpt lat="48.4945433" lon="-4.1440717"><ele>92.16666666666667</ele><time>2026-04-23T08:21:41.674Z</time></trkpt><trkpt lat="48.4945517" lon="-4.1439383"><ele>92.0</ele><time>2026-04-23T08:21:42.671Z</time></trkpt><trkpt lat="48.4945617" lon="-4.1438133"><ele>92.0</ele><time>2026-04-23T08:21:43.672Z</time></trkpt><trkpt lat="48.4945717" lon="-4.1436867"><ele>92.0</ele><time>2026-04-23T08:21:44.674Z</time></trkpt><trkpt lat="48.494585" lon="-4.1435467"><ele>92.0</ele><time>2026-04-23T08:21:45.677Z</time></trkpt><trkpt lat="48.4946017" lon="-4.1434033"><ele>92.0</ele><time>2026-04-23T08:21:46.677Z</time></trkpt><trkpt lat="48.49462" lon="-4.1432533"><ele>92.0</ele><time>2026-04-23T08:21:47.676Z</time></trkpt><trkpt lat="48.4946467" lon="-4.1430967"><ele>92.0</ele><time>2026-04-23T08:21:48.673Z</time></trkpt><trkpt lat="48.4946717" lon="-4.1429367"><ele>92.0</ele><time>2026-04-23T08:21:49.676Z</time></trkpt><trkpt lat="48.4947" lon="-4.1427767"><ele>92.0</ele><time>2026-04-23T08:21:50.675Z</time></trkpt><trkpt lat="48.494725" lon="-4.1426283"><ele>92.0</ele><time>2026-04-23T08:21:51.673Z</time></trkpt><trkpt lat="48.49475" lon="-4.1424967"><ele>92.0</ele><time>2026-04-23T08:21:52.675Z</time></trkpt><trkpt lat="48.494775" lon="-4.142375"><ele>92.0</ele><time>2026-04-23T08:21:53.671Z</time></trkpt><trkpt lat="48.4947983" lon="-4.1422733"><ele>92.0</ele><time>2026-04-23T08:21:54.677Z</time></trkpt><trkpt lat="48.494815" lon="-4.1421817"><ele>92.0</ele><time>2026-04-23T08:21:55.674Z</time></trkpt><trkpt lat="48.4948383" lon="-4.142015"><ele>92.0</ele><time>2026-04-23T08:21:57.672Z</time></trkpt><trkpt lat="48.494845" lon="-4.1418267"><ele>92.0</ele><time>2026-04-23T08:21:59.677Z</time></trkpt><trkpt lat="48.4948317" lon="-4.1417233"><ele>92.0</ele><time>2026-04-23T08:22:00.677Z</time></trkpt><trkpt lat="48.4948167" lon="-4.14162"><ele>92.14285714285715</ele><time>2026-04-23T08:22:01.675Z</time></trkpt><trkpt lat="48.4948083" lon="-4.14152"><ele>92.28571428571428</ele><time>2026-04-23T08:22:02.679Z</time></trkpt><trkpt lat="48.4948033" lon="-4.14142"><ele>92.42857142857143</ele><time>2026-04-23T08:22:03.677Z</time></trkpt><trkpt lat="48.4947983" lon="-4.14132"><ele>92.57142857142858</ele><time>2026-04-23T08:22:04.673Z</time></trkpt><trkpt lat="48.4947933" lon="-4.1412183"><ele>92.71428571428572</ele><time>2026-04-23T08:22:05.678Z</time></trkpt><trkpt lat="48.494785" lon="-4.1411167"><ele>92.85714285714286</ele><time>2026-04-23T08:22:06.673Z</time></trkpt><trkpt lat="48.4947733" lon="-4.1410017"><ele>93.0</ele><time>2026-04-23T08:22:07.674Z</time></trkpt><trkpt lat="48.4947633" lon="-4.14089"><ele>93.0</ele><time>2026-04-23T08:22:08.674Z</time></trkpt><trkpt lat="48.4947533" lon="-4.1407683"><ele>93.0</ele><time>2026-04-23T08:22:09.675Z</time></trkpt><trkpt lat="48.49474" lon="-4.140645"><ele>93.0</ele><time>2026-04-23T08:22:10.676Z</time></trkpt><trkpt lat="48.4947183" lon="-4.1405267"><ele>93.0</ele><time>2026-04-23T08:22:11.678Z</time></trkpt><trkpt lat="48.4946967" lon="-4.1404067"><ele>93.0</ele><time>2026-04-23T08:22:12.674Z</time></trkpt><trkpt lat="48.4946783" lon="-4.14029"><ele>93.0</ele><time>2026-04-23T08:22:13.68Z</time></trkpt><trkpt lat="48.4946633" lon="-4.1401767"><ele>93.16666666666667</ele><time>2026-04-23T08:22:14.677Z</time></trkpt><trkpt lat="48.4946517" lon="-4.1400617"><ele>93.33333333333333</ele><time>2026-04-23T08:22:15.675Z</time></trkpt><trkpt lat="48.49465" lon="-4.1399417"><ele>93.5</ele><time>2026-04-23T08:22:16.677Z</time></trkpt><trkpt lat="48.4946517" lon="-4.13982"><ele>93.66666666666666</ele><time>2026-04-23T08:22:17.678Z</time></trkpt><trkpt lat="48.494655" lon="-4.1397"><ele>93.83333333333333</ele><time>2026-04-23T08:22:18.676Z</time></trkpt><trkpt lat="48.494665" lon="-4.1395833"><ele>94.0</ele><time>2026-04-23T08:22:19.681Z</time></trkpt><trkpt lat="48.49468" lon="-4.1394683"><ele>94.0</ele><time>2026-04-23T08:22:20.675Z</time></trkpt><trkpt lat="48.4946967" lon="-4.1393633"><ele>94.0</ele><time>2026-04-23T08:22:21.672Z</time></trkpt><trkpt lat="48.494715" lon="-4.1392617"><ele>94.0</ele><time>2026-04-23T08:22:22.677Z</time></trkpt><trkpt lat="48.4947383" lon="-4.1391667"><ele>94.0</ele><time>2026-04-23T08:22:23.677Z</time></trkpt><trkpt lat="48.494765" lon="-4.139055"><ele>94.0</ele><time>2026-04-23T08:22:24.676Z</time></trkpt><trkpt lat="48.494795" lon="-4.1389333"><ele>94.0</ele><time>2026-04-23T08:22:25.681Z</time></trkpt><trkpt lat="48.4948333" lon="-4.1388033"><ele>94.0</ele><time>2026-04-23T08:22:26.682Z</time></trkpt><trkpt lat="48.49488" lon="-4.1386683"><ele>94.0</ele><time>2026-04-23T08:22:27.674Z</time></trkpt><trkpt lat="48.4949367" lon="-4.1385367"><ele>94.0</ele><time>2026-04-23T08:22:28.675Z</time></trkpt><trkpt lat="48.4950017" lon="-4.1384033"><ele>94.0</ele><time>2026-04-23T08:22:29.676Z</time></trkpt><trkpt lat="48.4950667" lon="-4.1382733"><ele>94.0</ele><time>2026-04-23T08:22:30.678Z</time></trkpt><trkpt lat="48.495135" lon="-4.13815"><ele>94.0</ele><time>2026-04-23T08:22:31.677Z</time></trkpt><trkpt lat="48.4952033" lon="-4.13802"><ele>94.0</ele><time>2026-04-23T08:22:32.678Z</time></trkpt><trkpt lat="48.49527" lon="-4.137885"><ele>94.0</ele><time>2026-04-23T08:22:33.677Z</time></trkpt><trkpt lat="48.49534" lon="-4.137755"><ele>94.0</ele><time>2026-04-23T08:22:34.677Z</time></trkpt><trkpt lat="48.4954117" lon="-4.13763"><ele>94.0</ele><time>2026-04-23T08:22:35.679Z</time></trkpt><trkpt lat="48.4954717" lon="-4.1375033"><ele>94.6</ele><time>2026-04-23T08:22:36.676Z</time></trkpt><trkpt lat="48.4955283" lon="-4.1373683"><ele>95.2</ele><time>2026-04-23T08:22:37.674Z</time></trkpt><trkpt lat="48.495585" lon="-4.13724"><ele>95.8</ele><time>2026-04-23T08:22:38.678Z</time></trkpt><trkpt lat="48.49564" lon="-4.1371083"><ele>96.39999999999999</ele><time>2026-04-23T08:22:39.674Z</time></trkpt><trkpt lat="48.4956867" lon="-4.136965"><ele>97.0</ele><time>2026-04-23T08:22:40.676Z</time></trkpt><trkpt lat="48.4957333" lon="-4.1368117"><ele>97.0</ele><time>2026-04-23T08:22:41.674Z</time></trkpt><trkpt lat="48.495775" lon="-4.1366417"><ele>97.0</ele><time>2026-04-23T08:22:42.68Z</time></trkpt><trkpt lat="48.4958167" lon="-4.1364667"><ele>97.0</ele><time>2026-04-23T08:22:43.676Z</time></trkpt><trkpt lat="48.495855" lon="-4.1362867"><ele>97.0</ele><time>2026-04-23T08:22:44.675Z</time></trkpt><trkpt lat="48.495895" lon="-4.13611"><ele>97.0</ele><time>2026-04-23T08:22:45.675Z</time></trkpt><trkpt lat="48.4959333" lon="-4.1359367"><ele>97.0</ele><time>2026-04-23T08:22:46.676Z</time></trkpt><trkpt lat="48.4959717" lon="-4.1357683"><ele>97.0</ele><time>2026-04-23T08:22:47.674Z</time></trkpt><trkpt lat="48.4960067" lon="-4.1356067"><ele>97.0</ele><time>2026-04-23T08:22:48.679Z</time></trkpt><trkpt lat="48.4960383" lon="-4.1354483"><ele>97.0</ele><time>2026-04-23T08:22:49.681Z</time></trkpt><trkpt lat="48.4960733" lon="-4.135295"><ele>97.0</ele><time>2026-04-23T08:22:50.678Z</time></trkpt><trkpt lat="48.4961133" lon="-4.13515"><ele>97.0</ele><time>2026-04-23T08:22:51.683Z</time></trkpt><trkpt lat="48.49616" lon="-4.1350083"><ele>97.0</ele><time>2026-04-23T08:22:52.675Z</time></trkpt><trkpt lat="48.4962167" lon="-4.1348667"><ele>97.0</ele><time>2026-04-23T08:22:53.677Z</time></trkpt><trkpt lat="48.4962817" lon="-4.1347267"><ele>97.5</ele><time>2026-04-23T08:22:54.673Z</time></trkpt><trkpt lat="48.496355" lon="-4.1345867"><ele>98.0</ele><time>2026-04-23T08:22:55.678Z</time></trkpt><trkpt lat="48.4964317" lon="-4.1344467"><ele>98.5</ele><time>2026-04-23T08:22:56.676Z</time></trkpt><trkpt lat="48.4965117" lon="-4.1343033"><ele>99.0</ele><time>2026-04-23T08:22:57.676Z</time></trkpt><trkpt lat="48.496595" lon="-4.1341567"><ele>99.25</ele><time>2026-04-23T08:22:58.677Z</time></trkpt><trkpt lat="48.4966783" lon="-4.1340117"><ele>99.5</ele><time>2026-04-23T08:22:59.681Z</time></trkpt><trkpt lat="48.4967583" lon="-4.1338683"><ele>99.75</ele><time>2026-04-23T08:23:00.678Z</time></trkpt><trkpt lat="48.4968333" lon="-4.13373"><ele>100.0</ele><time>2026-04-23T08:23:01.679Z</time></trkpt><trkpt lat="48.496905" lon="-4.1335933"><ele>100.0</ele><time>2026-04-23T08:23:02.674Z</time></trkpt><trkpt lat="48.4969767" lon="-4.1334583"><ele>100.0</ele><time>2026-04-23T08:23:03.676Z</time></trkpt><trkpt lat="48.4970483" lon="-4.1333233"><ele>100.0</ele><time>2026-04-23T08:23:04.673Z</time></trkpt><trkpt lat="48.497115" lon="-4.133185"><ele>100.0</ele><time>2026-04-23T08:23:05.676Z</time></trkpt><trkpt lat="48.497185" lon="-4.1330417"><ele>100.25</ele><time>2026-04-23T08:23:06.678Z</time></trkpt><trkpt lat="48.497255" lon="-4.132895"><ele>100.5</ele><time>2026-04-23T08:23:07.673Z</time></trkpt><trkpt lat="48.4973217" lon="-4.1327483"><ele>100.75</ele><time>2026-04-23T08:23:08.67Z</time></trkpt><trkpt lat="48.4973883" lon="-4.1326017"><ele>101.0</ele><time>2026-04-23T08:23:09.674Z</time></trkpt><trkpt lat="48.4974533" lon="-4.1324583"><ele>101.0</ele><time>2026-04-23T08:23:10.672Z</time></trkpt><trkpt lat="48.4975167" lon="-4.1323133"><ele>101.0</ele><time>2026-04-23T08:23:11.68Z</time></trkpt><trkpt lat="48.49758" lon="-4.132165"><ele>101.0</ele><time>2026-04-23T08:23:12.675Z</time></trkpt><trkpt lat="48.4976417" lon="-4.1320183"><ele>101.0</ele><time>2026-04-23T08:23:13.671Z</time></trkpt><trkpt lat="48.4976967" lon="-4.1318717"><ele>101.0</ele><time>2026-04-23T08:23:14.677Z</time></trkpt><trkpt lat="48.4977567" lon="-4.1317283"><ele>101.0</ele><time>2026-04-23T08:23:15.674Z</time></trkpt><trkpt lat="48.4978133" lon="-4.1315883"><ele>101.0</ele><time>2026-04-23T08:23:16.673Z</time></trkpt><trkpt lat="48.49787" lon="-4.1314467"><ele>101.0</ele><time>2026-04-23T08:23:17.678Z</time></trkpt><trkpt lat="48.49793" lon="-4.1313083"><ele>101.0</ele><time>2026-04-23T08:23:18.672Z</time></trkpt><trkpt lat="48.4979867" lon="-4.1311733"><ele>100.99999999999999</ele><time>2026-04-23T08:23:19.678Z</time></trkpt><trkpt lat="48.498045" lon="-4.1310433"><ele>101.0</ele><time>2026-04-23T08:23:20.672Z</time></trkpt><trkpt lat="48.498095" lon="-4.1309217"><ele>101.0</ele><time>2026-04-23T08:23:21.672Z</time></trkpt><trkpt lat="48.4981433" lon="-4.130815"><ele>101.0</ele><time>2026-04-23T08:23:22.671Z</time></trkpt><trkpt lat="48.4981867" lon="-4.13072"><ele>100.99999999999999</ele><time>2026-04-23T08:23:23.673Z</time></trkpt><trkpt lat="48.498225" lon="-4.1306417"><ele>101.0</ele><time>2026-04-23T08:23:24.674Z</time></trkpt><trkpt lat="48.4982867" lon="-4.13051"><ele>100.99999999999999</ele><time>2026-04-23T08:23:26.674Z</time></trkpt><trkpt lat="48.4983033" lon="-4.1303783"><ele>101.0</ele><time>2026-04-23T08:23:28.673Z</time></trkpt><trkpt lat="48.498265" lon="-4.1302983"><ele>101.0</ele><time>2026-04-23T08:23:30.671Z</time></trkpt><trkpt lat="48.4982033" lon="-4.130265"><ele>101.0</ele><time>2026-04-23T08:23:32.677Z</time></trkpt><trkpt lat="48.4980867" lon="-4.1302633"><ele>100.99999999999999</ele><time>2026-04-23T08:23:34.674Z</time></trkpt><trkpt lat="48.4980117" lon="-4.130265"><ele>101.0</ele><time>2026-04-23T08:23:35.675Z</time></trkpt><trkpt lat="48.4979317" lon="-4.1302583"><ele>101.33333333333333</ele><time>2026-04-23T08:23:36.674Z</time></trkpt><trkpt lat="48.497855" lon="-4.1302533"><ele>101.66666666666666</ele><time>2026-04-23T08:23:37.674Z</time></trkpt><trkpt lat="48.497775" lon="-4.1302467"><ele>102.0</ele><time>2026-04-23T08:23:38.678Z</time></trkpt><trkpt lat="48.4976933" lon="-4.130245"><ele>102.33333333333334</ele><time>2026-04-23T08:23:39.674Z</time></trkpt><trkpt lat="48.49761" lon="-4.13024"><ele>102.66666666666667</ele><time>2026-04-23T08:23:40.673Z</time></trkpt><trkpt lat="48.497525" lon="-4.13024"><ele>103.0</ele><time>2026-04-23T08:23:41.678Z</time></trkpt><trkpt lat="48.49744" lon="-4.1302367"><ele>103.00000000000001</ele><time>2026-04-23T08:23:42.674Z</time></trkpt><trkpt lat="48.4973533" lon="-4.1302317"><ele>103.0</ele><time>2026-04-23T08:23:43.675Z</time></trkpt><trkpt lat="48.4972683" lon="-4.1302267"><ele>103.0</ele><time>2026-04-23T08:23:44.676Z</time></trkpt><trkpt lat="48.4971833" lon="-4.1302217"><ele>103.0</ele><time>2026-04-23T08:23:45.673Z</time></trkpt><trkpt lat="48.4971" lon="-4.1302167"><ele>103.00000000000001</ele><time>2026-04-23T08:23:46.675Z</time></trkpt><trkpt lat="48.49702" lon="-4.13021"><ele>103.0</ele><time>2026-04-23T08:23:47.675Z</time></trkpt><trkpt lat="48.49694" lon="-4.1302033"><ele>103.00000000000001</ele><time>2026-04-23T08:23:48.68Z</time></trkpt><trkpt lat="48.4968667" lon="-4.1301983"><ele>103.0</ele><time>2026-04-23T08:23:49.676Z</time></trkpt><trkpt lat="48.4968033" lon="-4.1301933"><ele>103.0</ele><time>2026-04-23T08:23:50.676Z</time></trkpt><trkpt lat="48.4967133" lon="-4.13016"><ele>103.0</ele><time>2026-04-23T08:23:52.677Z</time></trkpt><trkpt lat="48.4966517" lon="-4.1300567"><ele>103.00000000000001</ele><time>2026-04-23T08:23:54.675Z</time></trkpt><trkpt lat="48.4966483" lon="-4.1298783"><ele>103.0</ele><time>2026-04-23T08:23:56.674Z</time></trkpt><trkpt lat="48.4966617" lon="-4.129765"><ele>103.60000000000001</ele><time>2026-04-23T08:23:57.673Z</time></trkpt><trkpt lat="48.496675" lon="-4.1296367"><ele>104.2</ele><time>2026-04-23T08:23:58.676Z</time></trkpt><trkpt lat="48.496685" lon="-4.1295083"><ele>104.8</ele><time>2026-04-23T08:23:59.673Z</time></trkpt><trkpt lat="48.4966933" lon="-4.129375"><ele>105.4</ele><time>2026-04-23T08:24:00.676Z</time></trkpt><trkpt lat="48.4966983" lon="-4.1292283"><ele>106.0</ele><time>2026-04-23T08:24:01.673Z</time></trkpt><trkpt lat="48.4967017" lon="-4.12907"><ele>106.19999999999999</ele><time>2026-04-23T08:24:02.677Z</time></trkpt><trkpt lat="48.4967" lon="-4.1289033"><ele>106.39999999999999</ele><time>2026-04-23T08:24:03.673Z</time></trkpt><trkpt lat="48.4966967" lon="-4.1287367"><ele>106.6</ele><time>2026-04-23T08:24:04.678Z</time></trkpt><trkpt lat="48.49669" lon="-4.12857"><ele>106.8</ele><time>2026-04-23T08:24:05.677Z</time></trkpt><trkpt lat="48.4966783" lon="-4.1283983"><ele>107.0</ele><time>2026-04-23T08:24:06.676Z</time></trkpt><trkpt lat="48.4966633" lon="-4.128225"><ele>107.0</ele><time>2026-04-23T08:24:07.678Z</time></trkpt><trkpt lat="48.496645" lon="-4.12805"><ele>107.0</ele><time>2026-04-23T08:24:08.677Z</time></trkpt><trkpt lat="48.4966283" lon="-4.127875"><ele>107.0</ele><time>2026-04-23T08:24:09.679Z</time></trkpt><trkpt lat="48.4966117" lon="-4.127705"><ele>107.0</ele><time>2026-04-23T08:24:10.674Z</time></trkpt><trkpt lat="48.4965967" lon="-4.1275417"><ele>106.6</ele><time>2026-04-23T08:24:11.675Z</time></trkpt><trkpt lat="48.4965833" lon="-4.12739"><ele>106.19999999999999</ele><time>2026-04-23T08:24:12.673Z</time></trkpt><trkpt lat="48.4965683" lon="-4.1272467"><ele>105.8</ele><time>2026-04-23T08:24:13.68Z</time></trkpt><trkpt lat="48.4965583" lon="-4.127105"><ele>105.4</ele><time>2026-04-23T08:24:14.678Z</time></trkpt><trkpt lat="48.496555" lon="-4.12696"><ele>105.0</ele><time>2026-04-23T08:24:15.687Z</time></trkpt><trkpt lat="48.49656" lon="-4.1268117"><ele>105.0</ele><time>2026-04-23T08:24:16.679Z</time></trkpt><trkpt lat="48.4965717" lon="-4.1266533"><ele>105.0</ele><time>2026-04-23T08:24:17.675Z</time></trkpt><trkpt lat="48.4965833" lon="-4.1264883"><ele>105.0</ele><time>2026-04-23T08:24:18.678Z</time></trkpt><trkpt lat="48.4965967" lon="-4.126325"><ele>105.0</ele><time>2026-04-23T08:24:19.675Z</time></trkpt><trkpt lat="48.49661" lon="-4.1261567"><ele>105.0</ele><time>2026-04-23T08:24:20.677Z</time></trkpt><trkpt lat="48.4966233" lon="-4.125985"><ele>104.2</ele><time>2026-04-23T08:24:21.673Z</time></trkpt><trkpt lat="48.4966367" lon="-4.1258117"><ele>103.4</ele><time>2026-04-23T08:24:22.677Z</time></trkpt><trkpt lat="48.49665" lon="-4.12564"><ele>102.6</ele><time>2026-04-23T08:24:23.675Z</time></trkpt><trkpt lat="48.4966617" lon="-4.125475"><ele>101.8</ele><time>2026-04-23T08:24:24.672Z</time></trkpt><trkpt lat="48.4966717" lon="-4.1253117"><ele>101.0</ele><time>2026-04-23T08:24:25.677Z</time></trkpt><trkpt lat="48.4966817" lon="-4.12515"><ele>100.4</ele><time>2026-04-23T08:24:26.67Z</time></trkpt><trkpt lat="48.4966917" lon="-4.1249833"><ele>99.8</ele><time>2026-04-23T08:24:27.67Z</time></trkpt><trkpt lat="48.4967017" lon="-4.12482"><ele>99.2</ele><time>2026-04-23T08:24:28.676Z</time></trkpt><trkpt lat="48.49671" lon="-4.12466"><ele>98.60000000000001</ele><time>2026-04-23T08:24:29.672Z</time></trkpt><trkpt lat="48.4967167" lon="-4.1245"><ele>98.0</ele><time>2026-04-23T08:24:30.671Z</time></trkpt><trkpt lat="48.4967267" lon="-4.1243417"><ele>98.0</ele><time>2026-04-23T08:24:31.672Z</time></trkpt><trkpt lat="48.4967383" lon="-4.1241817"><ele>98.0</ele><time>2026-04-23T08:24:32.671Z</time></trkpt><trkpt lat="48.4967533" lon="-4.124025"><ele>98.0</ele><time>2026-04-23T08:24:33.674Z</time></trkpt><trkpt lat="48.49677" lon="-4.1238683"><ele>98.0</ele><time>2026-04-23T08:24:34.673Z</time></trkpt><trkpt lat="48.49679" lon="-4.123715"><ele>98.0</ele><time>2026-04-23T08:24:35.673Z</time></trkpt><trkpt lat="48.4968067" lon="-4.12357"><ele>98.16666666666666</ele><time>2026-04-23T08:24:36.674Z</time></trkpt><trkpt lat="48.4968167" lon="-4.1234417"><ele>98.33333333333333</ele><time>2026-04-23T08:24:37.673Z</time></trkpt><trkpt lat="48.4968233" lon="-4.12333"><ele>98.5</ele><time>2026-04-23T08:24:38.673Z</time></trkpt><trkpt lat="48.4968183" lon="-4.1231833"><ele>98.66666666666666</ele><time>2026-04-23T08:24:40.675Z</time></trkpt><trkpt lat="48.49675" lon="-4.1231133"><ele>98.83333333333333</ele><time>2026-04-23T08:24:44.677Z</time></trkpt><trkpt lat="48.4966667" lon="-4.1231417"><ele>99.0</ele><time>2026-04-23T08:24:46.673Z</time></trkpt><trkpt lat="48.4965983" lon="-4.12318"><ele>99.0</ele><time>2026-04-23T08:24:47.681Z</time></trkpt><trkpt lat="48.496515" lon="-4.123225"><ele>99.0</ele><time>2026-04-23T08:24:48.679Z</time></trkpt><trkpt lat="48.49642" lon="-4.1232767"><ele>99.0</ele><time>2026-04-23T08:24:49.678Z</time></trkpt><trkpt lat="48.4963267" lon="-4.1233283"><ele>99.0</ele><time>2026-04-23T08:24:50.674Z</time></trkpt><trkpt lat="48.496235" lon="-4.1233633"><ele>99.0</ele><time>2026-04-23T08:24:51.677Z</time></trkpt><trkpt lat="48.4961433" lon="-4.123385"><ele>98.0</ele><time>2026-04-23T08:24:52.672Z</time></trkpt><trkpt lat="48.4960467" lon="-4.12339"><ele>97.0</ele><time>2026-04-23T08:24:53.674Z</time></trkpt><trkpt lat="48.4959517" lon="-4.1233767"><ele>96.0</ele><time>2026-04-23T08:24:54.676Z</time></trkpt><trkpt lat="48.4958617" lon="-4.1233483"><ele>95.0</ele><time>2026-04-23T08:24:55.675Z</time></trkpt><trkpt lat="48.4957783" lon="-4.1233017"><ele>94.0</ele><time>2026-04-23T08:24:56.678Z</time></trkpt><trkpt lat="48.4957017" lon="-4.1232367"><ele>94.2</ele><time>2026-04-23T08:24:57.672Z</time></trkpt><trkpt lat="48.49563" lon="-4.1231517"><ele>94.4</ele><time>2026-04-23T08:24:58.669Z</time></trkpt><trkpt lat="48.4955667" lon="-4.1230317"><ele>94.6</ele><time>2026-04-23T08:24:59.675Z</time></trkpt><trkpt lat="48.49551" lon="-4.1228883"><ele>94.8</ele><time>2026-04-23T08:25:00.672Z</time></trkpt><trkpt lat="48.49546" lon="-4.1227267"><ele>95.0</ele><time>2026-04-23T08:25:01.67Z</time></trkpt><trkpt lat="48.4954217" lon="-4.1225617"><ele>93.8</ele><time>2026-04-23T08:25:02.676Z</time></trkpt><trkpt lat="48.495395" lon="-4.1223967"><ele>92.6</ele><time>2026-04-23T08:25:03.673Z</time></trkpt><trkpt lat="48.495385" lon="-4.1222317"><ele>91.4</ele><time>2026-04-23T08:25:04.675Z</time></trkpt><trkpt lat="48.49538" lon="-4.122065"><ele>90.2</ele><time>2026-04-23T08:25:05.672Z</time></trkpt><trkpt lat="48.4953767" lon="-4.121895"><ele>89.0</ele><time>2026-04-23T08:25:06.673Z</time></trkpt><trkpt lat="48.4953717" lon="-4.1217233"><ele>87.80000000000001</ele><time>2026-04-23T08:25:07.672Z</time></trkpt><trkpt lat="48.495365" lon="-4.1215483"><ele>86.60000000000001</ele><time>2026-04-23T08:25:08.674Z</time></trkpt><trkpt lat="48.4953633" lon="-4.12138"><ele>85.4</ele><time>2026-04-23T08:25:09.67Z</time></trkpt><trkpt lat="48.4953567" lon="-4.1212133"><ele>84.2</ele><time>2026-04-23T08:25:10.676Z</time></trkpt><trkpt lat="48.49535" lon="-4.1210483"><ele>83.0</ele><time>2026-04-23T08:25:11.669Z</time></trkpt><trkpt lat="48.495345" lon="-4.1208817"><ele>81.4</ele><time>2026-04-23T08:25:12.676Z</time></trkpt><trkpt lat="48.4953383" lon="-4.1207183"><ele>79.80000000000001</ele><time>2026-04-23T08:25:13.671Z</time></trkpt><trkpt lat="48.4953317" lon="-4.1205567"><ele>78.2</ele><time>2026-04-23T08:25:14.675Z</time></trkpt><trkpt lat="48.4953267" lon="-4.1203933"><ele>76.6</ele><time>2026-04-23T08:25:15.672Z</time></trkpt><trkpt lat="48.4953183" lon="-4.1202367"><ele>75.0</ele><time>2026-04-23T08:25:16.671Z</time></trkpt><trkpt lat="48.4953133" lon="-4.120095"><ele>75.0</ele><time>2026-04-23T08:25:17.675Z</time></trkpt><trkpt lat="48.4953083" lon="-4.1199667"><ele>75.0</ele><time>2026-04-23T08:25:18.675Z</time></trkpt><trkpt lat="48.495305" lon="-4.1198433"><ele>75.0</ele><time>2026-04-23T08:25:19.672Z</time></trkpt><trkpt lat="48.49531" lon="-4.1197233"><ele>75.0</ele><time>2026-04-23T08:25:20.673Z</time></trkpt><trkpt lat="48.495325" lon="-4.1196033"><ele>75.0</ele><time>2026-04-23T08:25:21.672Z</time></trkpt><trkpt lat="48.4953517" lon="-4.119485"><ele>75.0</ele><time>2026-04-23T08:25:22.675Z</time></trkpt><trkpt lat="48.4953783" lon="-4.1193667"><ele>74.16666666666667</ele><time>2026-04-23T08:25:23.679Z</time></trkpt><trkpt lat="48.4953967" lon="-4.119245"><ele>73.33333333333333</ele><time>2026-04-23T08:25:24.678Z</time></trkpt><trkpt lat="48.495405" lon="-4.1191167"><ele>72.5</ele><time>2026-04-23T08:25:25.675Z</time></trkpt><trkpt lat="48.4954033" lon="-4.1189833"><ele>71.66666666666666</ele><time>2026-04-23T08:25:26.675Z</time></trkpt><trkpt lat="48.4953917" lon="-4.11885"><ele>70.83333333333333</ele><time>2026-04-23T08:25:27.674Z</time></trkpt><trkpt lat="48.4953767" lon="-4.1187217"><ele>70.0</ele><time>2026-04-23T08:25:28.673Z</time></trkpt><trkpt lat="48.4953567" lon="-4.1185967"><ele>69.0</ele><time>2026-04-23T08:25:29.676Z</time></trkpt><trkpt lat="48.4953317" lon="-4.11847"><ele>68.0</ele><time>2026-04-23T08:25:30.674Z</time></trkpt><trkpt lat="48.4953" lon="-4.1183517"><ele>67.0</ele><time>2026-04-23T08:25:31.674Z</time></trkpt><trkpt lat="48.495255" lon="-4.1182533"><ele>66.0</ele><time>2026-04-23T08:25:32.676Z</time></trkpt><trkpt lat="48.4951883" lon="-4.1181783"><ele>65.0</ele><time>2026-04-23T08:25:33.677Z</time></trkpt><trkpt lat="48.495105" lon="-4.11812"><ele>64.0</ele><time>2026-04-23T08:25:34.678Z</time></trkpt><trkpt lat="48.49502" lon="-4.11807"><ele>62.99999999999999</ele><time>2026-04-23T08:25:35.675Z</time></trkpt><trkpt lat="48.49494" lon="-4.1180283"><ele>62.0</ele><time>2026-04-23T08:25:36.678Z</time></trkpt><trkpt lat="48.4948617" lon="-4.1179833"><ele>61.0</ele><time>2026-04-23T08:25:37.679Z</time></trkpt><trkpt lat="48.4947833" lon="-4.1179317"><ele>60.0</ele><time>2026-04-23T08:25:38.675Z</time></trkpt><trkpt lat="48.4947" lon="-4.11788"><ele>58.99999999999999</ele><time>2026-04-23T08:25:39.673Z</time></trkpt><trkpt lat="48.4946217" lon="-4.11783"><ele>58.0</ele><time>2026-04-23T08:25:40.673Z</time></trkpt><trkpt lat="48.49455" lon="-4.11777"><ele>57.33333333333333</ele><time>2026-04-23T08:25:41.675Z</time></trkpt><trkpt lat="48.49448" lon="-4.1177"><ele>56.666666666666664</ele><time>2026-04-23T08:25:42.672Z</time></trkpt><trkpt lat="48.494415" lon="-4.1176167"><ele>56.0</ele><time>2026-04-23T08:25:43.675Z</time></trkpt><trkpt lat="48.494355" lon="-4.11753"><ele>55.33333333333333</ele><time>2026-04-23T08:25:44.679Z</time></trkpt><trkpt lat="48.494305" lon="-4.11744"><ele>54.666666666666664</ele><time>2026-04-23T08:25:45.672Z</time></trkpt><trkpt lat="48.494265" lon="-4.1173467"><ele>54.0</ele><time>2026-04-23T08:25:46.672Z</time></trkpt><trkpt lat="48.4942333" lon="-4.1172567"><ele>53.166666666666664</ele><time>2026-04-23T08:25:47.673Z</time></trkpt><trkpt lat="48.494195" lon="-4.11716"><ele>52.33333333333333</ele><time>2026-04-23T08:25:48.674Z</time></trkpt><trkpt lat="48.4941617" lon="-4.117055"><ele>51.5</ele><time>2026-04-23T08:25:49.673Z</time></trkpt><trkpt lat="48.49412" lon="-4.1169483"><ele>50.666666666666664</ele><time>2026-04-23T08:25:50.672Z</time></trkpt><trkpt lat="48.4940767" lon="-4.1168367"><ele>49.83333333333333</ele><time>2026-04-23T08:25:51.674Z</time></trkpt><trkpt lat="48.4940317" lon="-4.1167333"><ele>49.0</ele><time>2026-04-23T08:25:52.67Z</time></trkpt><trkpt lat="48.4939883" lon="-4.1166283"><ele>47.83333333333333</ele><time>2026-04-23T08:25:53.671Z</time></trkpt><trkpt lat="48.4939467" lon="-4.1165217"><ele>46.666666666666664</ele><time>2026-04-23T08:25:54.678Z</time></trkpt><trkpt lat="48.4939067" lon="-4.1164217"><ele>45.5</ele><time>2026-04-23T08:25:55.673Z</time></trkpt><trkpt lat="48.4938683" lon="-4.1163183"><ele>44.33333333333333</ele><time>2026-04-23T08:25:56.675Z</time></trkpt><trkpt lat="48.493835" lon="-4.1162133"><ele>43.166666666666664</ele><time>2026-04-23T08:25:57.675Z</time></trkpt><trkpt lat="48.4938217" lon="-4.1161067"><ele>42.0</ele><time>2026-04-23T08:25:58.673Z</time></trkpt><trkpt lat="48.4938217" lon="-4.116"><ele>42.0</ele><time>2026-04-23T08:25:59.675Z</time></trkpt><trkpt lat="48.4938383" lon="-4.1158933"><ele>42.0</ele><time>2026-04-23T08:26:00.675Z</time></trkpt><trkpt lat="48.493865" lon="-4.115795"><ele>42.0</ele><time>2026-04-23T08:26:01.673Z</time></trkpt><trkpt lat="48.4939083" lon="-4.115615"><ele>42.0</ele><time>2026-04-23T08:26:03.675Z</time></trkpt><trkpt lat="48.493935" lon="-4.1155267"><ele>42.0</ele><time>2026-04-23T08:26:04.672Z</time></trkpt><trkpt lat="48.4939633" lon="-4.1154417"><ele>42.0</ele><time>2026-04-23T08:26:05.67Z</time></trkpt><trkpt lat="48.494" lon="-4.1153017"><ele>40.4</ele><time>2026-04-23T08:26:07.672Z</time></trkpt><trkpt lat="48.4940133" lon="-4.1151767"><ele>38.800000000000004</ele><time>2026-04-23T08:26:10.672Z</time></trkpt><trkpt lat="48.49407" lon="-4.1149883"><ele>37.2</ele><time>2026-04-23T08:26:12.674Z</time></trkpt><trkpt lat="48.4941167" lon="-4.114875"><ele>35.6</ele><time>2026-04-23T08:26:13.67Z</time></trkpt><trkpt lat="48.4941633" lon="-4.1147567"><ele>34.0</ele><time>2026-04-23T08:26:14.672Z</time></trkpt><trkpt lat="48.4942133" lon="-4.1146333"><ele>33.8</ele><time>2026-04-23T08:26:15.674Z</time></trkpt><trkpt lat="48.49426" lon="-4.1145117"><ele>33.599999999999994</ele><time>2026-04-23T08:26:16.671Z</time></trkpt><trkpt lat="48.4943083" lon="-4.11438"><ele>33.4</ele><time>2026-04-23T08:26:17.674Z</time></trkpt><trkpt lat="48.494355" lon="-4.1142467"><ele>33.199999999999996</ele><time>2026-04-23T08:26:18.672Z</time></trkpt><trkpt lat="48.494395" lon="-4.114125"><ele>33.0</ele><time>2026-04-23T08:26:19.672Z</time></trkpt><trkpt lat="48.49443" lon="-4.1140133"><ele>33.0</ele><time>2026-04-23T08:26:20.674Z</time></trkpt><trkpt lat="48.4944717" lon="-4.1139117"><ele>33.0</ele><time>2026-04-23T08:26:21.672Z</time></trkpt><trkpt lat="48.4945317" lon="-4.11381"><ele>33.0</ele><time>2026-04-23T08:26:22.674Z</time></trkpt><trkpt lat="48.49461" lon="-4.11371"><ele>33.0</ele><time>2026-04-23T08:26:23.674Z</time></trkpt><trkpt lat="48.4947017" lon="-4.11359"><ele>33.0</ele><time>2026-04-23T08:26:24.674Z</time></trkpt><trkpt lat="48.494805" lon="-4.1134683"><ele>34.5</ele><time>2026-04-23T08:26:25.674Z</time></trkpt><trkpt lat="48.4949" lon="-4.113335"><ele>36.0</ele><time>2026-04-23T08:26:26.674Z</time></trkpt><trkpt lat="48.4949933" lon="-4.1132033"><ele>37.5</ele><time>2026-04-23T08:26:27.674Z</time></trkpt><trkpt lat="48.495085" lon="-4.1130717"><ele>39.0</ele><time>2026-04-23T08:26:28.675Z</time></trkpt><trkpt lat="48.4951783" lon="-4.1129367"><ele>39.0</ele><time>2026-04-23T08:26:29.674Z</time></trkpt><trkpt lat="48.4952683" lon="-4.1128"><ele>39.0</ele><time>2026-04-23T08:26:30.672Z</time></trkpt><trkpt lat="48.4953567" lon="-4.1126667"><ele>39.0</ele><time>2026-04-23T08:26:31.675Z</time></trkpt><trkpt lat="48.4954433" lon="-4.1125333"><ele>39.0</ele><time>2026-04-23T08:26:32.676Z</time></trkpt><trkpt lat="48.49553" lon="-4.1124017"><ele>42.6</ele><time>2026-04-23T08:26:33.672Z</time></trkpt><trkpt lat="48.4956067" lon="-4.1122767"><ele>46.2</ele><time>2026-04-23T08:26:34.676Z</time></trkpt><trkpt lat="48.4956783" lon="-4.1121617"><ele>49.800000000000004</ele><time>2026-04-23T08:26:35.675Z</time></trkpt><trkpt lat="48.495745" lon="-4.1120633"><ele>53.4</ele><time>2026-04-23T08:26:36.673Z</time></trkpt><trkpt lat="48.4958117" lon="-4.1119783"><ele>57.0</ele><time>2026-04-23T08:26:37.671Z</time></trkpt><trkpt lat="48.4958783" lon="-4.1119083"><ele>57.0</ele><time>2026-04-23T08:26:38.673Z</time></trkpt><trkpt lat="48.4959533" lon="-4.111845"><ele>57.0</ele><time>2026-04-23T08:26:39.672Z</time></trkpt><trkpt lat="48.4960283" lon="-4.1117983"><ele>57.0</ele><time>2026-04-23T08:26:40.674Z</time></trkpt><trkpt lat="48.4961133" lon="-4.1117817"><ele>57.0</ele><time>2026-04-23T08:26:41.676Z</time></trkpt><trkpt lat="48.49621" lon="-4.1117933"><ele>57.0</ele><time>2026-04-23T08:26:42.672Z</time></trkpt><trkpt lat="48.4963133" lon="-4.1118233"><ele>58.400000000000006</ele><time>2026-04-23T08:26:43.677Z</time></trkpt><trkpt lat="48.4964217" lon="-4.11186"><ele>59.800000000000004</ele><time>2026-04-23T08:26:44.672Z</time></trkpt><trkpt lat="48.4965333" lon="-4.1119033"><ele>61.2</ele><time>2026-04-23T08:26:45.674Z</time></trkpt><trkpt lat="48.4966383" lon="-4.111945"><ele>62.6</ele><time>2026-04-23T08:26:46.671Z</time></trkpt><trkpt lat="48.4967233" lon="-4.11198"><ele>64.0</ele><time>2026-04-23T08:26:47.672Z</time></trkpt><trkpt lat="48.4967883" lon="-4.1120033"><ele>64.0</ele><time>2026-04-23T08:26:48.672Z</time></trkpt><trkpt lat="48.4968833" lon="-4.1120267"><ele>64.0</ele><time>2026-04-23T08:26:50.676Z</time></trkpt><trkpt lat="48.49698" lon="-4.1121233"><ele>64.0</ele><time>2026-04-23T08:26:52.672Z</time></trkpt><trkpt lat="48.4970217" lon="-4.1122067"><ele>64.0</ele><time>2026-04-23T08:26:53.67Z</time></trkpt><trkpt lat="48.4970567" lon="-4.1122917"><ele>64.0</ele><time>2026-04-23T08:26:54.669Z</time></trkpt><trkpt lat="48.4971283" lon="-4.1124333"><ele>63.99999999999999</ele><time>2026-04-23T08:26:56.672Z</time></trkpt><trkpt lat="48.497235" lon="-4.1124867"><ele>64.0</ele><time>2026-04-23T08:26:58.672Z</time></trkpt><trkpt lat="48.4973" lon="-4.1124567"><ele>64.0</ele><time>2026-04-23T08:26:59.674Z</time></trkpt><trkpt lat="48.4973667" lon="-4.1123933"><ele>64.0</ele><time>2026-04-23T08:27:00.675Z</time></trkpt><trkpt lat="48.49743" lon="-4.1123233"><ele>63.99999999999999</ele><time>2026-04-23T08:27:01.673Z</time></trkpt><trkpt lat="48.4974917" lon="-4.1122417"><ele>64.0</ele><time>2026-04-23T08:27:02.674Z</time></trkpt><trkpt lat="48.497545" lon="-4.1121567"><ele>64.0</ele><time>2026-04-23T08:27:03.677Z</time></trkpt><trkpt lat="48.4975883" lon="-4.11207"><ele>63.99999999999999</ele><time>2026-04-23T08:27:04.674Z</time></trkpt><trkpt lat="48.497625" lon="-4.1119833"><ele>64.0</ele><time>2026-04-23T08:27:05.676Z</time></trkpt><trkpt lat="48.497665" lon="-4.1119"><ele>64.0</ele><time>2026-04-23T08:27:06.677Z</time></trkpt><trkpt lat="48.4977083" lon="-4.1118183"><ele>63.99999999999999</ele><time>2026-04-23T08:27:07.677Z</time></trkpt><trkpt lat="48.4977583" lon="-4.1117433"><ele>64.0</ele><time>2026-04-23T08:27:08.674Z</time></trkpt><trkpt lat="48.497815" lon="-4.1116667"><ele>64.0</ele><time>2026-04-23T08:27:09.676Z</time></trkpt><trkpt lat="48.4978783" lon="-4.1115917"><ele>63.857142857142854</ele><time>2026-04-23T08:27:10.676Z</time></trkpt><trkpt lat="48.497945" lon="-4.1115217"><ele>63.71428571428571</ele><time>2026-04-23T08:27:11.674Z</time></trkpt><trkpt lat="48.4980083" lon="-4.1114583"><ele>63.57142857142857</ele><time>2026-04-23T08:27:12.675Z</time></trkpt><trkpt lat="48.4980683" lon="-4.111395"><ele>63.42857142857143</ele><time>2026-04-23T08:27:13.677Z</time></trkpt><trkpt lat="48.498125" lon="-4.11133"><ele>63.285714285714285</ele><time>2026-04-23T08:27:14.674Z</time></trkpt><trkpt lat="48.49818" lon="-4.11126"><ele>63.14285714285714</ele><time>2026-04-23T08:27:15.673Z</time></trkpt><trkpt lat="48.4982383" lon="-4.1111967"><ele>63.0</ele><time>2026-04-23T08:27:16.675Z</time></trkpt><trkpt lat="48.4983017" lon="-4.1111483"><ele>63.0</ele><time>2026-04-23T08:27:17.673Z</time></trkpt><trkpt lat="48.4983733" lon="-4.111115"><ele>63.0</ele><time>2026-04-23T08:27:18.68Z</time></trkpt><trkpt lat="48.4984533" lon="-4.1110967"><ele>63.0</ele><time>2026-04-23T08:27:19.679Z</time></trkpt><trkpt lat="48.498535" lon="-4.111095"><ele>63.0</ele><time>2026-04-23T08:27:20.675Z</time></trkpt><trkpt lat="48.4986133" lon="-4.1111033"><ele>63.0</ele><time>2026-04-23T08:27:21.673Z</time></trkpt><trkpt lat="48.49869" lon="-4.1111167"><ele>63.0</ele><time>2026-04-23T08:27:22.675Z</time></trkpt><trkpt lat="48.4987667" lon="-4.111135"><ele>63.5</ele><time>2026-04-23T08:27:23.674Z</time></trkpt><trkpt lat="48.498845" lon="-4.1111533"><ele>64.0</ele><time>2026-04-23T08:27:24.676Z</time></trkpt><trkpt lat="48.4989267" lon="-4.1111733"><ele>64.5</ele><time>2026-04-23T08:27:25.676Z</time></trkpt><trkpt lat="48.4990067" lon="-4.111195"><ele>65.0</ele><time>2026-04-23T08:27:26.674Z</time></trkpt><trkpt lat="48.4990867" lon="-4.1112217"><ele>65.5</ele><time>2026-04-23T08:27:27.678Z</time></trkpt><trkpt lat="48.4991633" lon="-4.111255"><ele>66.0</ele><time>2026-04-23T08:27:28.679Z</time></trkpt><trkpt lat="48.4992383" lon="-4.111295"><ele>66.0</ele><time>2026-04-23T08:27:29.677Z</time></trkpt><trkpt lat="48.499315" lon="-4.1113367"><ele>66.0</ele><time>2026-04-23T08:27:30.674Z</time></trkpt><trkpt lat="48.49939" lon="-4.1113883"><ele>66.0</ele><time>2026-04-23T08:27:31.674Z</time></trkpt><trkpt lat="48.4994667" lon="-4.1114417"><ele>66.0</ele><time>2026-04-23T08:27:32.676Z</time></trkpt><trkpt lat="48.4995433" lon="-4.111495"><ele>66.0</ele><time>2026-04-23T08:27:33.675Z</time></trkpt><trkpt lat="48.49962" lon="-4.11155"><ele>66.0</ele><time>2026-04-23T08:27:34.675Z</time></trkpt><trkpt lat="48.499695" lon="-4.1116017"><ele>66.16666666666667</ele><time>2026-04-23T08:27:35.676Z</time></trkpt><trkpt lat="48.4997733" lon="-4.11165"><ele>66.33333333333333</ele><time>2026-04-23T08:27:36.675Z</time></trkpt><trkpt lat="48.4998533" lon="-4.1116983"><ele>66.5</ele><time>2026-04-23T08:27:37.675Z</time></trkpt><trkpt lat="48.4999333" lon="-4.1117467"><ele>66.66666666666666</ele><time>2026-04-23T08:27:38.679Z</time></trkpt><trkpt lat="48.5000083" lon="-4.111785"><ele>66.83333333333333</ele><time>2026-04-23T08:27:39.678Z</time></trkpt><trkpt lat="48.5000833" lon="-4.11182"><ele>67.0</ele><time>2026-04-23T08:27:40.674Z</time></trkpt><trkpt lat="48.5001533" lon="-4.11185"><ele>67.0</ele><time>2026-04-23T08:27:41.674Z</time></trkpt><trkpt lat="48.5002267" lon="-4.1118783"><ele>67.0</ele><time>2026-04-23T08:27:42.677Z</time></trkpt><trkpt lat="48.500305" lon="-4.1119067"><ele>67.0</ele><time>2026-04-23T08:27:43.676Z</time></trkpt><trkpt lat="48.5003867" lon="-4.11192"><ele>67.0</ele><time>2026-04-23T08:27:44.678Z</time></trkpt><trkpt lat="48.5004667" lon="-4.111925"><ele>67.0</ele><time>2026-04-23T08:27:45.677Z</time></trkpt><trkpt lat="48.5005333" lon="-4.1119333"><ele>67.0</ele><time>2026-04-23T08:27:46.672Z</time></trkpt><trkpt lat="48.5006333" lon="-4.1119533"><ele>68.0</ele><time>2026-04-23T08:27:48.682Z</time></trkpt><trkpt lat="48.5007" lon="-4.1119133"><ele>69.0</ele><time>2026-04-23T08:29:42.675Z</time></trkpt><trkpt lat="48.5007233" lon="-4.1118067"><ele>70.0</ele><time>2026-04-23T08:29:44.677Z</time></trkpt><trkpt lat="48.5007733" lon="-4.1116633"><ele>71.0</ele><time>2026-04-23T08:29:46.675Z</time></trkpt><trkpt lat="48.5008333" lon="-4.111505"><ele>72.0</ele><time>2026-04-23T08:29:48.676Z</time></trkpt><trkpt lat="48.50086" lon="-4.1114133"><ele>73.0</ele><time>2026-04-23T08:29:49.679Z</time></trkpt><trkpt lat="48.5008933" lon="-4.1113217"><ele>73.66666666666666</ele><time>2026-04-23T08:29:50.676Z</time></trkpt><trkpt lat="48.500935" lon="-4.1111633"><ele>74.33333333333333</ele><time>2026-04-23T08:29:52.674Z</time></trkpt><trkpt lat="48.50096" lon="-4.11107"><ele>75.0</ele><time>2026-04-23T08:29:53.673Z</time></trkpt><trkpt lat="48.5009817" lon="-4.110965"><ele>75.66666666666667</ele><time>2026-04-23T08:29:54.676Z</time></trkpt><trkpt lat="48.5010133" lon="-4.1108533"><ele>76.33333333333334</ele><time>2026-04-23T08:29:55.676Z</time></trkpt><trkpt lat="48.5010467" lon="-4.1107317"><ele>77.0</ele><time>2026-04-23T08:29:56.675Z</time></trkpt><trkpt lat="48.5010867" lon="-4.11061"><ele>77.33333333333334</ele><time>2026-04-23T08:29:57.676Z</time></trkpt><trkpt lat="48.5011267" lon="-4.1104933"><ele>77.66666666666667</ele><time>2026-04-23T08:29:58.677Z</time></trkpt><trkpt lat="48.501165" lon="-4.1103817"><ele>78.0</ele><time>2026-04-23T08:29:59.672Z</time></trkpt><trkpt lat="48.5012" lon="-4.110275"><ele>78.33333333333333</ele><time>2026-04-23T08:30:00.676Z</time></trkpt><trkpt lat="48.5012333" lon="-4.1101683"><ele>78.66666666666666</ele><time>2026-04-23T08:30:01.677Z</time></trkpt><trkpt lat="48.50127" lon="-4.1100583"><ele>79.0</ele><time>2026-04-23T08:30:02.677Z</time></trkpt><trkpt lat="48.5013017" lon="-4.1099433"><ele>80.83333333333333</ele><time>2026-04-23T08:30:03.675Z</time></trkpt><trkpt lat="48.501335" lon="-4.109835"><ele>82.66666666666666</ele><time>2026-04-23T08:30:04.673Z</time></trkpt><trkpt lat="48.501365" lon="-4.1097317"><ele>84.5</ele><time>2026-04-23T08:30:05.68Z</time></trkpt><trkpt lat="48.5014" lon="-4.1096317"><ele>86.33333333333333</ele><time>2026-04-23T08:30:06.678Z</time></trkpt><trkpt lat="48.5014333" lon="-4.1095483"><ele>88.16666666666667</ele><time>2026-04-23T08:30:07.675Z</time></trkpt><trkpt lat="48.501475" lon="-4.1094483"><ele>90.0</ele><time>2026-04-23T08:30:09.68Z</time></trkpt><trkpt lat="48.5014517" lon="-4.1095933"><ele>90.0</ele><time>2026-04-23T08:30:20.678Z</time></trkpt><trkpt lat="48.5013967" lon="-4.1097567"><ele>90.0</ele><time>2026-04-23T08:30:22.676Z</time></trkpt><trkpt lat="48.5013683" lon="-4.10985"><ele>90.0</ele><time>2026-04-23T08:30:23.676Z</time></trkpt><trkpt lat="48.50134" lon="-4.1099567"><ele>90.0</ele><time>2026-04-23T08:30:24.676Z</time></trkpt><trkpt lat="48.5013033" lon="-4.1100833"><ele>90.0</ele><time>2026-04-23T08:30:25.674Z</time></trkpt><trkpt lat="48.501265" lon="-4.1102067"><ele>90.0</ele><time>2026-04-23T08:30:26.676Z</time></trkpt><trkpt lat="48.5012333" lon="-4.1103133"><ele>87.8</ele><time>2026-04-23T08:30:27.674Z</time></trkpt><trkpt lat="48.501205" lon="-4.1104083"><ele>85.6</ele><time>2026-04-23T08:30:28.676Z</time></trkpt><trkpt lat="48.50118" lon="-4.1105"><ele>83.4</ele><time>2026-04-23T08:30:29.676Z</time></trkpt><trkpt lat="48.50113" lon="-4.1106483"><ele>81.2</ele><time>2026-04-23T08:30:31.679Z</time></trkpt><trkpt lat="48.5010683" lon="-4.1108117"><ele>79.0</ele><time>2026-04-23T08:30:33.677Z</time></trkpt><trkpt lat="48.5010167" lon="-4.11099"><ele>78.66666666666666</ele><time>2026-04-23T08:30:35.675Z</time></trkpt><trkpt lat="48.500985" lon="-4.1110833"><ele>78.33333333333333</ele><time>2026-04-23T08:30:36.68Z</time></trkpt><trkpt lat="48.500955" lon="-4.1111767"><ele>78.0</ele><time>2026-04-23T08:30:37.676Z</time></trkpt><trkpt lat="48.5008967" lon="-4.11135"><ele>77.66666666666667</ele><time>2026-04-23T08:30:39.675Z</time></trkpt><trkpt lat="48.500865" lon="-4.111435"><ele>77.33333333333334</ele><time>2026-04-23T08:30:40.676Z</time></trkpt><trkpt lat="48.500835" lon="-4.1115217"><ele>77.0</ele><time>2026-04-23T08:30:41.675Z</time></trkpt><trkpt lat="48.5007783" lon="-4.111675"><ele>76.42857142857143</ele><time>2026-04-23T08:30:43.676Z</time></trkpt><trkpt lat="48.50074" lon="-4.1117833"><ele>75.85714285714286</ele><time>2026-04-23T08:30:45.676Z</time></trkpt><trkpt lat="48.500695" lon="-4.11187"><ele>75.28571428571428</ele><time>2026-04-23T08:30:48.678Z</time></trkpt><trkpt lat="48.500625" lon="-4.111925"><ele>74.71428571428572</ele><time>2026-04-23T08:30:51.68Z</time></trkpt><trkpt lat="48.5005433" lon="-4.1119217"><ele>74.14285714285714</ele><time>2026-04-23T08:30:53.675Z</time></trkpt><trkpt lat="48.50048" lon="-4.1119117"><ele>73.57142857142857</ele><time>2026-04-23T08:30:54.676Z</time></trkpt><trkpt lat="48.5004117" lon="-4.1118983"><ele>73.0</ele><time>2026-04-23T08:30:55.676Z</time></trkpt><trkpt lat="48.500335" lon="-4.11188"><ele>72.14285714285714</ele><time>2026-04-23T08:30:56.682Z</time></trkpt><trkpt lat="48.5002617" lon="-4.1118617"><ele>71.28571428571429</ele><time>2026-04-23T08:30:57.674Z</time></trkpt><trkpt lat="48.50019" lon="-4.1118367"><ele>70.42857142857143</ele><time>2026-04-23T08:30:58.674Z</time></trkpt><trkpt lat="48.5001183" lon="-4.1118083"><ele>69.57142857142857</ele><time>2026-04-23T08:30:59.675Z</time></trkpt><trkpt lat="48.5000433" lon="-4.111785"><ele>68.71428571428571</ele><time>2026-04-23T08:31:00.678Z</time></trkpt><trkpt lat="48.49997" lon="-4.1117583"><ele>67.85714285714286</ele><time>2026-04-23T08:31:01.684Z</time></trkpt><trkpt lat="48.4999033" lon="-4.1117117"><ele>67.0</ele><time>2026-04-23T08:31:02.677Z</time></trkpt><trkpt lat="48.4998317" lon="-4.111665"><ele>67.0</ele><time>2026-04-23T08:31:03.673Z</time></trkpt><trkpt lat="48.49976" lon="-4.11162"><ele>67.0</ele><time>2026-04-23T08:31:04.676Z</time></trkpt><trkpt lat="48.4996883" lon="-4.111575"><ele>67.0</ele><time>2026-04-23T08:31:05.675Z</time></trkpt><trkpt lat="48.4996167" lon="-4.1115283"><ele>67.0</ele><time>2026-04-23T08:31:06.676Z</time></trkpt><trkpt lat="48.4995317" lon="-4.11147"><ele>67.0</ele><time>2026-04-23T08:31:07.675Z</time></trkpt><trkpt lat="48.4994483" lon="-4.111415"><ele>67.0</ele><time>2026-04-23T08:31:08.673Z</time></trkpt><trkpt lat="48.4993683" lon="-4.1113617"><ele>66.83333333333333</ele><time>2026-04-23T08:31:09.676Z</time></trkpt><trkpt lat="48.499295" lon="-4.1113183"><ele>66.66666666666666</ele><time>2026-04-23T08:31:10.675Z</time></trkpt><trkpt lat="48.4992217" lon="-4.1112783"><ele>66.5</ele><time>2026-04-23T08:31:11.674Z</time></trkpt><trkpt lat="48.4991467" lon="-4.1112417"><ele>66.33333333333333</ele><time>2026-04-23T08:31:12.675Z</time></trkpt><trkpt lat="48.499065" lon="-4.11121"><ele>66.16666666666667</ele><time>2026-04-23T08:31:13.672Z</time></trkpt><trkpt lat="48.4989817" lon="-4.1111817"><ele>66.0</ele><time>2026-04-23T08:31:14.674Z</time></trkpt><trkpt lat="48.4988967" lon="-4.111165"><ele>66.0</ele><time>2026-04-23T08:31:15.675Z</time></trkpt><trkpt lat="48.4988117" lon="-4.111145"><ele>66.0</ele><time>2026-04-23T08:31:16.674Z</time></trkpt><trkpt lat="48.4987283" lon="-4.11113"><ele>66.0</ele><time>2026-04-23T08:31:17.674Z</time></trkpt><trkpt lat="48.4986467" lon="-4.11112"><ele>66.0</ele><time>2026-04-23T08:31:18.675Z</time></trkpt><trkpt lat="48.4985683" lon="-4.1111117"><ele>66.0</ele><time>2026-04-23T08:31:19.677Z</time></trkpt><trkpt lat="48.4984917" lon="-4.1111083"><ele>66.0</ele><time>2026-04-23T08:31:20.676Z</time></trkpt><trkpt lat="48.498415" lon="-4.11112"><ele>65.5</ele><time>2026-04-23T08:31:21.676Z</time></trkpt><trkpt lat="48.4983417" lon="-4.111145"><ele>65.0</ele><time>2026-04-23T08:31:22.675Z</time></trkpt><trkpt lat="48.498275" lon="-4.1111933"><ele>64.5</ele><time>2026-04-23T08:31:23.674Z</time></trkpt><trkpt lat="48.498225" lon="-4.11126"><ele>64.0</ele><time>2026-04-23T08:31:24.673Z</time></trkpt><trkpt lat="48.4981683" lon="-4.111345"><ele>63.5</ele><time>2026-04-23T08:31:25.677Z</time></trkpt><trkpt lat="48.4981" lon="-4.1114267"><ele>63.0</ele><time>2026-04-23T08:31:26.674Z</time></trkpt><trkpt lat="48.4980367" lon="-4.1114933"><ele>63.0</ele><time>2026-04-23T08:31:27.674Z</time></trkpt><trkpt lat="48.4979783" lon="-4.11155"><ele>63.0</ele><time>2026-04-23T08:31:28.677Z</time></trkpt><trkpt lat="48.4978833" lon="-4.1116533"><ele>63.0</ele><time>2026-04-23T08:31:30.68Z</time></trkpt><trkpt lat="48.4978283" lon="-4.1117233"><ele>63.0</ele><time>2026-04-23T08:31:32.676Z</time></trkpt><trkpt lat="48.4978618" lon="-4.1116368"><ele>63.0</ele><time>2026-04-23T08:33:35.686Z</time></trkpt><trkpt lat="48.4979669" lon="-4.1115488"><ele>63.0</ele><time>2026-04-23T08:33:36.675Z</time></trkpt><trkpt lat="48.4980212" lon="-4.1114935"><ele>63.0</ele><time>2026-04-23T08:33:37.676Z</time></trkpt><trkpt lat="48.4980857" lon="-4.1114178"><ele>63.0</ele><time>2026-04-23T08:33:39.676Z</time></trkpt><trkpt lat="48.4981445" lon="-4.1113193"><ele>63.0</ele><time>2026-04-23T08:33:41.676Z</time></trkpt><trkpt lat="48.4982234" lon="-4.1112127"><ele>63.0</ele><time>2026-04-23T08:33:43.675Z</time></trkpt><trkpt lat="48.4983362" lon="-4.1111284"><ele>63.0</ele><time>2026-04-23T08:33:45.674Z</time></trkpt><trkpt lat="48.4984061" lon="-4.1111107"><ele>63.0</ele><time>2026-04-23T08:33:46.677Z</time></trkpt><trkpt lat="48.4984872" lon="-4.1111038"><ele>63.0</ele><time>2026-04-23T08:33:47.676Z</time></trkpt><trkpt lat="48.4985731" lon="-4.1111075"><ele>63.0</ele><time>2026-04-23T08:33:48.679Z</time></trkpt><trkpt lat="48.4986566" lon="-4.1111229"><ele>63.0</ele><time>2026-04-23T08:33:49.676Z</time></trkpt><trkpt lat="48.498739" lon="-4.1111421"><ele>63.0</ele><time>2026-04-23T08:33:50.682Z</time></trkpt><trkpt lat="48.4988192" lon="-4.1111624"><ele>63.0</ele><time>2026-04-23T08:33:51.674Z</time></trkpt><trkpt lat="48.4989036" lon="-4.1111816"><ele>63.599999999999994</ele><time>2026-04-23T08:33:52.675Z</time></trkpt><trkpt lat="48.498992" lon="-4.1112044"><ele>64.19999999999999</ele><time>2026-04-23T08:33:53.678Z</time></trkpt><trkpt lat="48.4990823" lon="-4.1112338"><ele>64.8</ele><time>2026-04-23T08:33:54.675Z</time></trkpt><trkpt lat="48.4991701" lon="-4.1112718"><ele>65.39999999999999</ele><time>2026-04-23T08:33:55.676Z</time></trkpt><trkpt lat="48.4992565" lon="-4.1113173"><ele>66.0</ele><time>2026-04-23T08:33:56.675Z</time></trkpt><trkpt lat="48.499346" lon="-4.1113718"><ele>66.0</ele><time>2026-04-23T08:33:57.679Z</time></trkpt><trkpt lat="48.4994376" lon="-4.1114353"><ele>66.0</ele><time>2026-04-23T08:33:58.677Z</time></trkpt><trkpt lat="48.499531" lon="-4.1115016"><ele>66.0</ele><time>2026-04-23T08:33:59.676Z</time></trkpt><trkpt lat="48.4996247" lon="-4.1115657"><ele>66.0</ele><time>2026-04-23T08:34:00.674Z</time></trkpt><trkpt lat="48.499717" lon="-4.1116304"><ele>66.0</ele><time>2026-04-23T08:34:01.68Z</time></trkpt><trkpt lat="48.4998056" lon="-4.1116908"><ele>66.2</ele><time>2026-04-23T08:34:02.676Z</time></trkpt><trkpt lat="48.4998976" lon="-4.1117471"><ele>66.39999999999999</ele><time>2026-04-23T08:34:03.676Z</time></trkpt><trkpt lat="48.499994" lon="-4.111798"><ele>66.6</ele><time>2026-04-23T08:34:04.677Z</time></trkpt><trkpt lat="48.5000914" lon="-4.111842"><ele>66.8</ele><time>2026-04-23T08:34:05.677Z</time></trkpt><trkpt lat="48.5001881" lon="-4.1118862"><ele>67.0</ele><time>2026-04-23T08:34:06.676Z</time></trkpt><trkpt lat="48.5002817" lon="-4.1119209"><ele>67.0</ele><time>2026-04-23T08:34:07.672Z</time></trkpt><trkpt lat="48.5003683" lon="-4.1119448"><ele>67.0</ele><time>2026-04-23T08:34:08.679Z</time></trkpt><trkpt lat="48.5004518" lon="-4.1119557"><ele>67.0</ele><time>2026-04-23T08:34:09.677Z</time></trkpt><trkpt lat="48.5005362" lon="-4.1119634"><ele>67.0</ele><time>2026-04-23T08:34:10.675Z</time></trkpt><trkpt lat="48.5006236" lon="-4.111985"><ele>67.0</ele><time>2026-04-23T08:34:11.676Z</time></trkpt><trkpt lat="48.5007132" lon="-4.1120248"><ele>67.0</ele><time>2026-04-23T08:34:12.678Z</time></trkpt><trkpt lat="48.5008033" lon="-4.1120809"><ele>68.0</ele><time>2026-04-23T08:34:13.679Z</time></trkpt><trkpt lat="48.5008961" lon="-4.1121449"><ele>69.0</ele><time>2026-04-23T08:34:14.679Z</time></trkpt><trkpt lat="48.5009947" lon="-4.1122109"><ele>70.0</ele><time>2026-04-23T08:34:15.676Z</time></trkpt><trkpt lat="48.5010947" lon="-4.1122801"><ele>71.0</ele><time>2026-04-23T08:34:16.674Z</time></trkpt><trkpt lat="48.5011938" lon="-4.1123479"><ele>72.0</ele><time>2026-04-23T08:34:17.676Z</time></trkpt><trkpt lat="48.5012925" lon="-4.1124066"><ele>72.0</ele><time>2026-04-23T08:34:18.676Z</time></trkpt><trkpt lat="48.5013884" lon="-4.1124587"><ele>72.0</ele><time>2026-04-23T08:34:19.676Z</time></trkpt><trkpt lat="48.5014838" lon="-4.1125052"><ele>72.0</ele><time>2026-04-23T08:34:20.683Z</time></trkpt><trkpt lat="48.5015785" lon="-4.1125445"><ele>72.0</ele><time>2026-04-23T08:34:21.675Z</time></trkpt><trkpt lat="48.501675" lon="-4.1125838"><ele>72.0</ele><time>2026-04-23T08:34:22.676Z</time></trkpt><trkpt lat="48.5017691" lon="-4.1126202"><ele>72.0</ele><time>2026-04-23T08:34:23.677Z</time></trkpt><trkpt lat="48.5018609" lon="-4.1126569"><ele>72.0</ele><time>2026-04-23T08:34:24.673Z</time></trkpt><trkpt lat="48.5019498" lon="-4.1126865"><ele>72.0</ele><time>2026-04-23T08:34:25.675Z</time></trkpt><trkpt lat="48.5020348" lon="-4.1127069"><ele>72.0</ele><time>2026-04-23T08:34:26.678Z</time></trkpt><trkpt lat="48.5021164" lon="-4.112719"><ele>72.0</ele><time>2026-04-23T08:34:27.675Z</time></trkpt><trkpt lat="48.5021977" lon="-4.1127237"><ele>72.0</ele><time>2026-04-23T08:34:28.679Z</time></trkpt><trkpt lat="48.5022764" lon="-4.1127208"><ele>71.66666666666667</ele><time>2026-04-23T08:34:29.682Z</time></trkpt><trkpt lat="48.5023515" lon="-4.1127205"><ele>71.33333333333333</ele><time>2026-04-23T08:34:30.677Z</time></trkpt><trkpt lat="48.5024236" lon="-4.1127188"><ele>71.0</ele><time>2026-04-23T08:34:31.674Z</time></trkpt><trkpt lat="48.5024963" lon="-4.1127142"><ele>70.66666666666666</ele><time>2026-04-23T08:34:32.676Z</time></trkpt><trkpt lat="48.5025719" lon="-4.11271"><ele>70.33333333333333</ele><time>2026-04-23T08:34:33.674Z</time></trkpt><trkpt lat="48.5026509" lon="-4.1126999"><ele>70.0</ele><time>2026-04-23T08:34:34.678Z</time></trkpt><trkpt lat="48.5027295" lon="-4.1126899"><ele>70.0</ele><time>2026-04-23T08:34:35.675Z</time></trkpt><trkpt lat="48.5028082" lon="-4.1126755"><ele>70.0</ele><time>2026-04-23T08:34:36.678Z</time></trkpt><trkpt lat="48.5028892" lon="-4.1126518"><ele>70.0</ele><time>2026-04-23T08:34:37.677Z</time></trkpt><trkpt lat="48.5029695" lon="-4.1126273"><ele>70.0</ele><time>2026-04-23T08:34:38.678Z</time></trkpt><trkpt lat="48.5030456" lon="-4.1126062"><ele>70.0</ele><time>2026-04-23T08:34:39.679Z</time></trkpt><trkpt lat="48.5031177" lon="-4.1125826"><ele>70.0</ele><time>2026-04-23T08:34:40.677Z</time></trkpt><trkpt lat="48.5031848" lon="-4.1125604"><ele>69.14285714285714</ele><time>2026-04-23T08:34:41.677Z</time></trkpt><trkpt lat="48.5032524" lon="-4.1125374"><ele>68.28571428571428</ele><time>2026-04-23T08:34:42.678Z</time></trkpt><trkpt lat="48.5033217" lon="-4.1125166"><ele>67.42857142857143</ele><time>2026-04-23T08:34:43.674Z</time></trkpt><trkpt lat="48.5033907" lon="-4.1125032"><ele>66.57142857142857</ele><time>2026-04-23T08:34:44.682Z</time></trkpt><trkpt lat="48.503459" lon="-4.1124896"><ele>65.71428571428571</ele><time>2026-04-23T08:34:45.674Z</time></trkpt><trkpt lat="48.5035301" lon="-4.1124792"><ele>64.85714285714286</ele><time>2026-04-23T08:34:46.677Z</time></trkpt><trkpt lat="48.5035976" lon="-4.1124706"><ele>64.0</ele><time>2026-04-23T08:34:47.677Z</time></trkpt><trkpt lat="48.5036669" lon="-4.112461"><ele>64.0</ele><time>2026-04-23T08:34:48.681Z</time></trkpt><trkpt lat="48.5037354" lon="-4.1124534"><ele>63.99999999999999</ele><time>2026-04-23T08:34:49.676Z</time></trkpt><trkpt lat="48.50381" lon="-4.1124433"><ele>64.0</ele><time>2026-04-23T08:34:50.675Z</time></trkpt><trkpt lat="48.5038833" lon="-4.112435"><ele>64.0</ele><time>2026-04-23T08:34:51.677Z</time></trkpt><trkpt lat="48.5039533" lon="-4.1124317"><ele>63.99999999999999</ele><time>2026-04-23T08:34:52.674Z</time></trkpt><trkpt lat="48.50403" lon="-4.112415"><ele>64.0</ele><time>2026-04-23T08:34:53.677Z</time></trkpt><trkpt lat="48.5041033" lon="-4.1123967"><ele>64.0</ele><time>2026-04-23T08:34:54.674Z</time></trkpt><trkpt lat="48.50418" lon="-4.1123733"><ele>63.33333333333333</ele><time>2026-04-23T08:34:55.677Z</time></trkpt><trkpt lat="48.5042517" lon="-4.112355"><ele>62.666666666666664</ele><time>2026-04-23T08:34:56.676Z</time></trkpt><trkpt lat="48.5043233" lon="-4.1123367"><ele>62.0</ele><time>2026-04-23T08:34:57.679Z</time></trkpt><trkpt lat="48.5043933" lon="-4.11231"><ele>61.33333333333333</ele><time>2026-04-23T08:34:58.675Z</time></trkpt><trkpt lat="48.5044617" lon="-4.112285"><ele>60.666666666666664</ele><time>2026-04-23T08:34:59.675Z</time></trkpt><trkpt lat="48.5045267" lon="-4.1122633"><ele>60.0</ele><time>2026-04-23T08:35:00.677Z</time></trkpt><trkpt lat="48.5046283" lon="-4.112205"><ele>59.4</ele><time>2026-04-23T08:35:02.679Z</time></trkpt><trkpt lat="48.5047117" lon="-4.1121117"><ele>58.8</ele><time>2026-04-23T08:35:04.676Z</time></trkpt><trkpt lat="48.5047367" lon="-4.1119967"><ele>58.2</ele><time>2026-04-23T08:35:06.676Z</time></trkpt><trkpt lat="48.5047367" lon="-4.111795"><ele>57.6</ele><time>2026-04-23T08:37:00.677Z</time></trkpt><trkpt lat="48.50474" lon="-4.11161"><ele>57.0</ele><time>2026-04-23T08:37:02.678Z</time></trkpt><trkpt lat="48.5047433" lon="-4.1115067"><ele>57.0</ele><time>2026-04-23T08:37:03.676Z</time></trkpt><trkpt lat="48.5047483" lon="-4.1114017"><ele>56.99999999999999</ele><time>2026-04-23T08:37:04.675Z</time></trkpt><trkpt lat="48.5047533" lon="-4.1113017"><ele>57.0</ele><time>2026-04-23T08:37:05.673Z</time></trkpt><trkpt lat="48.5047567" lon="-4.1112"><ele>57.0</ele><time>2026-04-23T08:37:06.681Z</time></trkpt><trkpt lat="48.5047633" lon="-4.1110983"><ele>56.99999999999999</ele><time>2026-04-23T08:37:07.677Z</time></trkpt><trkpt lat="48.5047683" lon="-4.1109933"><ele>57.0</ele><time>2026-04-23T08:37:08.678Z</time></trkpt><trkpt lat="48.5047733" lon="-4.1108717"><ele>57.0</ele><time>2026-04-23T08:37:09.674Z</time></trkpt><trkpt lat="48.50478" lon="-4.1107467"><ele>57.5</ele><time>2026-04-23T08:37:10.676Z</time></trkpt><trkpt lat="48.5047867" lon="-4.11062"><ele>58.0</ele><time>2026-04-23T08:37:11.677Z</time></trkpt><trkpt lat="48.504795" lon="-4.1104883"><ele>58.5</ele><time>2026-04-23T08:37:12.674Z</time></trkpt><trkpt lat="48.5048017" lon="-4.1103567"><ele>59.0</ele><time>2026-04-23T08:37:13.677Z</time></trkpt><trkpt lat="48.5048067" lon="-4.1102267"><ele>59.5</ele><time>2026-04-23T08:37:14.679Z</time></trkpt><trkpt lat="48.5048083" lon="-4.1100983"><ele>60.0</ele><time>2026-04-23T08:37:15.671Z</time></trkpt><trkpt lat="48.5048117" lon="-4.109975"><ele>60.6</ele><time>2026-04-23T08:37:16.674Z</time></trkpt><trkpt lat="48.504815" lon="-4.10985"><ele>61.2</ele><time>2026-04-23T08:37:17.676Z</time></trkpt><trkpt lat="48.5048183" lon="-4.1097117"><ele>61.8</ele><time>2026-04-23T08:37:18.678Z</time></trkpt><trkpt lat="48.5048233" lon="-4.1095683"><ele>62.4</ele><time>2026-04-23T08:37:19.676Z</time></trkpt><trkpt lat="48.50483" lon="-4.1094233"><ele>63.0</ele><time>2026-04-23T08:37:20.679Z</time></trkpt><trkpt lat="48.504835" lon="-4.1092817"><ele>63.0</ele><time>2026-04-23T08:37:21.677Z</time></trkpt><trkpt lat="48.50484" lon="-4.1091467"><ele>63.0</ele><time>2026-04-23T08:37:22.675Z</time></trkpt><trkpt lat="48.5048467" lon="-4.1090133"><ele>63.0</ele><time>2026-04-23T08:37:23.675Z</time></trkpt><trkpt lat="48.50485" lon="-4.1088767"><ele>63.0</ele><time>2026-04-23T08:37:24.676Z</time></trkpt><trkpt lat="48.5048467" lon="-4.1087367"><ele>63.0</ele><time>2026-04-23T08:37:25.679Z</time></trkpt><trkpt lat="48.5048333" lon="-4.1085933"><ele>63.2</ele><time>2026-04-23T08:37:26.685Z</time></trkpt><trkpt lat="48.5048183" lon="-4.1084467"><ele>63.4</ele><time>2026-04-23T08:37:27.675Z</time></trkpt><trkpt lat="48.5047983" lon="-4.1083033"><ele>63.60000000000001</ele><time>2026-04-23T08:37:28.676Z</time></trkpt><trkpt lat="48.5047817" lon="-4.108155"><ele>63.800000000000004</ele><time>2026-04-23T08:37:29.674Z</time></trkpt><trkpt lat="48.5047633" lon="-4.1080017"><ele>64.0</ele><time>2026-04-23T08:37:30.673Z</time></trkpt><trkpt lat="48.5047467" lon="-4.1078467"><ele>64.0</ele><time>2026-04-23T08:37:31.675Z</time></trkpt><trkpt lat="48.5047267" lon="-4.1076933"><ele>64.0</ele><time>2026-04-23T08:37:32.678Z</time></trkpt><trkpt lat="48.5047083" lon="-4.10754"><ele>64.0</ele><time>2026-04-23T08:37:33.673Z</time></trkpt><trkpt lat="48.5046867" lon="-4.1073867"><ele>64.0</ele><time>2026-04-23T08:37:34.676Z</time></trkpt><trkpt lat="48.5046683" lon="-4.1072383"><ele>64.0</ele><time>2026-04-23T08:37:35.674Z</time></trkpt><trkpt lat="48.5046517" lon="-4.1070917"><ele>64.2</ele><time>2026-04-23T08:37:36.673Z</time></trkpt><trkpt lat="48.504635" lon="-4.1069483"><ele>64.4</ele><time>2026-04-23T08:37:37.674Z</time></trkpt><trkpt lat="48.50462" lon="-4.106805"><ele>64.6</ele><time>2026-04-23T08:37:38.675Z</time></trkpt><trkpt lat="48.5046033" lon="-4.10666"><ele>64.8</ele><time>2026-04-23T08:37:39.676Z</time></trkpt><trkpt lat="48.5045883" lon="-4.1065217"><ele>65.0</ele><time>2026-04-23T08:37:40.674Z</time></trkpt><trkpt lat="48.5045733" lon="-4.106385"><ele>66.2</ele><time>2026-04-23T08:37:41.672Z</time></trkpt><trkpt lat="48.5045567" lon="-4.106255"><ele>67.4</ele><time>2026-04-23T08:37:42.675Z</time></trkpt><trkpt lat="48.5045383" lon="-4.1061267"><ele>68.6</ele><time>2026-04-23T08:37:43.673Z</time></trkpt><trkpt lat="48.5045183" lon="-4.1059933"><ele>69.8</ele><time>2026-04-23T08:37:44.673Z</time></trkpt><trkpt lat="48.5045" lon="-4.1058533"><ele>71.0</ele><time>2026-04-23T08:37:45.674Z</time></trkpt><trkpt lat="48.5044817" lon="-4.1057083"><ele>71.25</ele><time>2026-04-23T08:37:46.675Z</time></trkpt><trkpt lat="48.5044633" lon="-4.105555"><ele>71.5</ele><time>2026-04-23T08:37:47.675Z</time></trkpt><trkpt lat="48.504445" lon="-4.10538"><ele>71.75</ele><time>2026-04-23T08:37:48.674Z</time></trkpt><trkpt lat="48.5044217" lon="-4.1051817"><ele>72.0</ele><time>2026-04-23T08:37:49.673Z</time></trkpt><trkpt lat="48.5043967" lon="-4.1049717"><ele>72.5</ele><time>2026-04-23T08:37:50.681Z</time></trkpt><trkpt lat="48.5043717" lon="-4.1047683"><ele>73.0</ele><time>2026-04-23T08:37:51.674Z</time></trkpt><trkpt lat="48.5043483" lon="-4.1045783"><ele>73.5</ele><time>2026-04-23T08:37:52.673Z</time></trkpt><trkpt lat="48.5043267" lon="-4.104405"><ele>74.0</ele><time>2026-04-23T08:37:53.677Z</time></trkpt><trkpt lat="48.5043083" lon="-4.1042317"><ele>73.8</ele><time>2026-04-23T08:37:54.673Z</time></trkpt><trkpt lat="48.5042867" lon="-4.1040633"><ele>73.60000000000001</ele><time>2026-04-23T08:37:55.672Z</time></trkpt><trkpt lat="48.5042667" lon="-4.1039033"><ele>73.4</ele><time>2026-04-23T08:37:56.679Z</time></trkpt><trkpt lat="48.5042467" lon="-4.1037533"><ele>73.2</ele><time>2026-04-23T08:37:57.674Z</time></trkpt><trkpt lat="48.5042333" lon="-4.1036383"><ele>73.0</ele><time>2026-04-23T08:37:58.673Z</time></trkpt><trkpt lat="48.5042133" lon="-4.1035083"><ele>73.0</ele><time>2026-04-23T08:38:00.671Z</time></trkpt><trkpt lat="48.50423" lon="-4.1033417"><ele>73.0</ele><time>2026-04-23T08:38:08.673Z</time></trkpt><trkpt lat="48.5042367" lon="-4.103225"><ele>73.0</ele><time>2026-04-23T08:38:09.674Z</time></trkpt><trkpt lat="48.5042433" lon="-4.1031083"><ele>73.0</ele><time>2026-04-23T08:38:10.673Z</time></trkpt><trkpt lat="48.5042467" lon="-4.10298"><ele>73.0</ele><time>2026-04-23T08:38:11.675Z</time></trkpt><trkpt lat="48.50425" lon="-4.10285"><ele>73.0</ele><time>2026-04-23T08:38:12.676Z</time></trkpt><trkpt lat="48.5042517" lon="-4.1027183"><ele>72.8</ele><time>2026-04-23T08:38:13.682Z</time></trkpt><trkpt lat="48.504255" lon="-4.1025833"><ele>72.6</ele><time>2026-04-23T08:38:14.676Z</time></trkpt><trkpt lat="48.5042583" lon="-4.1024433"><ele>72.4</ele><time>2026-04-23T08:38:15.675Z</time></trkpt><trkpt lat="48.5042633" lon="-4.102305"><ele>72.2</ele><time>2026-04-23T08:38:16.679Z</time></trkpt><trkpt lat="48.50427" lon="-4.102165"><ele>72.0</ele><time>2026-04-23T08:38:17.677Z</time></trkpt><trkpt lat="48.504275" lon="-4.102025"><ele>72.0</ele><time>2026-04-23T08:38:18.676Z</time></trkpt><trkpt lat="48.50428" lon="-4.10188"><ele>72.0</ele><time>2026-04-23T08:38:19.676Z</time></trkpt><trkpt lat="48.50429" lon="-4.10173"><ele>72.0</ele><time>2026-04-23T08:38:20.677Z</time></trkpt><trkpt lat="48.504295" lon="-4.1015783"><ele>72.0</ele><time>2026-04-23T08:38:21.673Z</time></trkpt><trkpt lat="48.5043" lon="-4.1014217"><ele>72.0</ele><time>2026-04-23T08:38:22.677Z</time></trkpt><trkpt lat="48.504305" lon="-4.101265"><ele>71.6</ele><time>2026-04-23T08:38:23.675Z</time></trkpt><trkpt lat="48.50431" lon="-4.1011067"><ele>71.2</ele><time>2026-04-23T08:38:24.673Z</time></trkpt><trkpt lat="48.504315" lon="-4.1009467"><ele>70.8</ele><time>2026-04-23T08:38:25.674Z</time></trkpt><trkpt lat="48.5043217" lon="-4.100785"><ele>70.4</ele><time>2026-04-23T08:38:26.674Z</time></trkpt><trkpt lat="48.5043283" lon="-4.1006217"><ele>70.0</ele><time>2026-04-23T08:38:27.674Z</time></trkpt><trkpt lat="48.5043333" lon="-4.10046"><ele>69.6</ele><time>2026-04-23T08:38:28.676Z</time></trkpt><trkpt lat="48.5043417" lon="-4.1002983"><ele>69.2</ele><time>2026-04-23T08:38:29.672Z</time></trkpt><trkpt lat="48.5043467" lon="-4.10014"><ele>68.8</ele><time>2026-04-23T08:38:30.673Z</time></trkpt><trkpt lat="48.5043517" lon="-4.09998"><ele>68.4</ele><time>2026-04-23T08:38:31.673Z</time></trkpt><trkpt lat="48.5043583" lon="-4.0998217"><ele>68.0</ele><time>2026-04-23T08:38:32.673Z</time></trkpt><trkpt lat="48.504365" lon="-4.0996633"><ele>67.6</ele><time>2026-04-23T08:38:33.673Z</time></trkpt><trkpt lat="48.5043717" lon="-4.09951"><ele>67.19999999999999</ele><time>2026-04-23T08:38:34.673Z</time></trkpt><trkpt lat="48.50438" lon="-4.0993583"><ele>66.8</ele><time>2026-04-23T08:38:35.675Z</time></trkpt><trkpt lat="48.5043833" lon="-4.09921"><ele>66.39999999999999</ele><time>2026-04-23T08:38:36.674Z</time></trkpt><trkpt lat="48.50439" lon="-4.0990667"><ele>66.0</ele><time>2026-04-23T08:38:37.672Z</time></trkpt><trkpt lat="48.504395" lon="-4.0989267"><ele>65.83333333333333</ele><time>2026-04-23T08:38:38.674Z</time></trkpt><trkpt lat="48.5044" lon="-4.09879"><ele>65.66666666666667</ele><time>2026-04-23T08:38:39.68Z</time></trkpt><trkpt lat="48.5044033" lon="-4.09866"><ele>65.5</ele><time>2026-04-23T08:38:40.672Z</time></trkpt><trkpt lat="48.504405" lon="-4.0985317"><ele>65.33333333333334</ele><time>2026-04-23T08:38:41.673Z</time></trkpt><trkpt lat="48.5044" lon="-4.098405"><ele>65.16666666666667</ele><time>2026-04-23T08:38:42.677Z</time></trkpt><trkpt lat="48.5044017" lon="-4.0982733"><ele>65.0</ele><time>2026-04-23T08:38:43.673Z</time></trkpt><trkpt lat="48.5044067" lon="-4.098135"><ele>64.83333333333334</ele><time>2026-04-23T08:38:44.675Z</time></trkpt><trkpt lat="48.5044117" lon="-4.0979983"><ele>64.66666666666667</ele><time>2026-04-23T08:38:45.673Z</time></trkpt><trkpt lat="48.5044183" lon="-4.0978717"><ele>64.5</ele><time>2026-04-23T08:38:46.674Z</time></trkpt><trkpt lat="48.5044267" lon="-4.097755"><ele>64.33333333333333</ele><time>2026-04-23T08:38:47.672Z</time></trkpt><trkpt lat="48.5044333" lon="-4.0976517"><ele>64.16666666666666</ele><time>2026-04-23T08:38:48.673Z</time></trkpt><trkpt lat="48.50444" lon="-4.097495"><ele>64.0</ele><time>2026-04-23T08:38:50.672Z</time></trkpt><trkpt lat="48.50445" lon="-4.097375"><ele>63.6</ele><time>2026-04-23T08:38:53.671Z</time></trkpt><trkpt lat="48.50437" lon="-4.0973733"><ele>63.2</ele><time>2026-04-23T08:38:58.675Z</time></trkpt><trkpt lat="48.5042833" lon="-4.0973967"><ele>62.800000000000004</ele><time>2026-04-23T08:39:00.676Z</time></trkpt><trkpt lat="48.5041867" lon="-4.0974083"><ele>62.400000000000006</ele><time>2026-04-23T08:39:02.677Z</time></trkpt><trkpt lat="48.5040733" lon="-4.0974167"><ele>62.0</ele><time>2026-04-23T08:39:04.673Z</time></trkpt><trkpt lat="48.50397" lon="-4.0974133"><ele>62.400000000000006</ele><time>2026-04-23T08:39:06.677Z</time></trkpt><trkpt lat="48.50387" lon="-4.0974233"><ele>62.800000000000004</ele><time>2026-04-23T08:39:08.677Z</time></trkpt><trkpt lat="48.5037633" lon="-4.0974367"><ele>63.2</ele><time>2026-04-23T08:39:10.679Z</time></trkpt><trkpt lat="48.5036517" lon="-4.0974467"><ele>63.6</ele><time>2026-04-23T08:39:12.673Z</time></trkpt><trkpt lat="48.5035317" lon="-4.09748"><ele>64.0</ele><time>2026-04-23T08:39:14.68Z</time></trkpt><trkpt lat="48.5034083" lon="-4.0975267"><ele>63.33333333333333</ele><time>2026-04-23T08:39:16.676Z</time></trkpt><trkpt lat="48.5033417" lon="-4.0975417"><ele>62.666666666666664</ele><time>2026-04-23T08:39:17.682Z</time></trkpt><trkpt lat="48.5032783" lon="-4.0975583"><ele>62.0</ele><time>2026-04-23T08:39:18.683Z</time></trkpt><trkpt lat="48.5032167" lon="-4.0975783"><ele>61.33333333333333</ele><time>2026-04-23T08:39:19.678Z</time></trkpt><trkpt lat="48.5031033" lon="-4.0976067"><ele>60.666666666666664</ele><time>2026-04-23T08:39:21.675Z</time></trkpt><trkpt lat="48.5029767" lon="-4.0976083"><ele>60.0</ele><time>2026-04-23T08:39:23.672Z</time></trkpt><trkpt lat="48.50291" lon="-4.0975983"><ele>59.5</ele><time>2026-04-23T08:39:24.674Z</time></trkpt><trkpt lat="48.5028433" lon="-4.0975883"><ele>59.0</ele><time>2026-04-23T08:39:25.673Z</time></trkpt><trkpt lat="48.502775" lon="-4.0975733"><ele>58.5</ele><time>2026-04-23T08:39:26.672Z</time></trkpt><trkpt lat="48.5026967" lon="-4.0975467"><ele>58.0</ele><time>2026-04-23T08:39:27.675Z</time></trkpt><trkpt lat="48.50261" lon="-4.0975117"><ele>57.5</ele><time>2026-04-23T08:39:28.67Z</time></trkpt><trkpt lat="48.5025217" lon="-4.0974783"><ele>57.0</ele><time>2026-04-23T08:39:29.67Z</time></trkpt><trkpt lat="48.5024383" lon="-4.097445"><ele>57.0</ele><time>2026-04-23T08:39:30.673Z</time></trkpt><trkpt lat="48.50236" lon="-4.0974183"><ele>57.0</ele><time>2026-04-23T08:39:31.674Z</time></trkpt><trkpt lat="48.5022933" lon="-4.0973983"><ele>57.0</ele><time>2026-04-23T08:39:32.675Z</time></trkpt><trkpt lat="48.5021883" lon="-4.0973633"><ele>57.0</ele><time>2026-04-23T08:39:34.673Z</time></trkpt><trkpt lat="48.502095" lon="-4.0973317"><ele>57.0</ele><time>2026-04-23T08:39:36.675Z</time></trkpt><trkpt lat="48.502025" lon="-4.0973233"><ele>57.0</ele><time>2026-04-23T08:39:39.674Z</time></trkpt><trkpt lat="48.50196" lon="-4.0972833"><ele>57.0</ele><time>2026-04-23T08:40:41.676Z</time></trkpt><trkpt lat="48.50188" lon="-4.0972483"><ele>57.0</ele><time>2026-04-23T08:40:43.677Z</time></trkpt><trkpt lat="48.5017733" lon="-4.0972117"><ele>57.0</ele><time>2026-04-23T08:40:45.674Z</time></trkpt><trkpt lat="48.5017117" lon="-4.09719"><ele>57.0</ele><time>2026-04-23T08:40:46.673Z</time></trkpt><trkpt lat="48.501595" lon="-4.0971417"><ele>57.0</ele><time>2026-04-23T08:40:48.674Z</time></trkpt><trkpt lat="48.5014817" lon="-4.0970917"><ele>57.0</ele><time>2026-04-23T08:40:50.675Z</time></trkpt><trkpt lat="48.5013683" lon="-4.0970483"><ele>57.0</ele><time>2026-04-23T08:40:52.675Z</time></trkpt><trkpt lat="48.5012583" lon="-4.0970133"><ele>57.0</ele><time>2026-04-23T08:40:54.676Z</time></trkpt><trkpt lat="48.5011517" lon="-4.0969817"><ele>57.0</ele><time>2026-04-23T08:40:56.675Z</time></trkpt><trkpt lat="48.5010433" lon="-4.0969667"><ele>57.0</ele><time>2026-04-23T08:40:58.679Z</time></trkpt><trkpt lat="48.500935" lon="-4.096965"><ele>57.0</ele><time>2026-04-23T08:41:00.673Z</time></trkpt><trkpt lat="48.500825" lon="-4.09698"><ele>57.0</ele><time>2026-04-23T08:41:02.677Z</time></trkpt><trkpt lat="48.500755" lon="-4.0969567"><ele>57.0</ele><time>2026-04-23T08:41:03.674Z</time></trkpt><trkpt lat="48.5006717" lon="-4.096925"><ele>57.0</ele><time>2026-04-23T08:41:04.671Z</time></trkpt><trkpt lat="48.5005817" lon="-4.0969"><ele>57.0</ele><time>2026-04-23T08:41:05.673Z</time></trkpt><trkpt lat="48.500495" lon="-4.096885"><ele>57.0</ele><time>2026-04-23T08:41:06.677Z</time></trkpt><trkpt lat="48.5004117" lon="-4.0968817"><ele>56.5</ele><time>2026-04-23T08:41:07.675Z</time></trkpt><trkpt lat="48.5003283" lon="-4.0968733"><ele>56.0</ele><time>2026-04-23T08:41:08.672Z</time></trkpt><trkpt lat="48.500245" lon="-4.0968633"><ele>55.5</ele><time>2026-04-23T08:41:09.674Z</time></trkpt><trkpt lat="48.5001617" lon="-4.096855"><ele>55.0</ele><time>2026-04-23T08:41:10.674Z</time></trkpt><trkpt lat="48.5000783" lon="-4.0968417"><ele>54.5</ele><time>2026-04-23T08:41:11.674Z</time></trkpt><trkpt lat="48.499995" lon="-4.0968217"><ele>54.0</ele><time>2026-04-23T08:41:12.67Z</time></trkpt><trkpt lat="48.49991" lon="-4.0968067"><ele>54.0</ele><time>2026-04-23T08:41:13.674Z</time></trkpt><trkpt lat="48.4998217" lon="-4.096805"><ele>54.0</ele><time>2026-04-23T08:41:14.677Z</time></trkpt><trkpt lat="48.4997333" lon="-4.096815"><ele>54.0</ele><time>2026-04-23T08:41:15.675Z</time></trkpt><trkpt lat="48.499645" lon="-4.0968033"><ele>54.0</ele><time>2026-04-23T08:41:16.679Z</time></trkpt><trkpt lat="48.499555" lon="-4.0968017"><ele>54.0</ele><time>2026-04-23T08:41:17.673Z</time></trkpt><trkpt lat="48.4994717" lon="-4.09681"><ele>54.0</ele><time>2026-04-23T08:41:18.671Z</time></trkpt><trkpt lat="48.49939" lon="-4.0968117"><ele>52.166666666666664</ele><time>2026-04-23T08:41:19.673Z</time></trkpt><trkpt lat="48.499315" lon="-4.096815"><ele>50.333333333333336</ele><time>2026-04-23T08:41:20.675Z</time></trkpt><trkpt lat="48.4992517" lon="-4.0968167"><ele>48.5</ele><time>2026-04-23T08:41:21.674Z</time></trkpt><trkpt lat="48.4991483" lon="-4.09683"><ele>46.66666666666667</ele><time>2026-04-23T08:41:23.673Z</time></trkpt><trkpt lat="48.4990767" lon="-4.09684"><ele>44.833333333333336</ele><time>2026-04-23T08:41:26.673Z</time></trkpt><trkpt lat="48.4990183" lon="-4.0967083"><ele>43.0</ele><time>2026-04-23T08:41:34.673Z</time></trkpt><trkpt lat="48.4990033" lon="-4.0965883"><ele>43.4</ele><time>2026-04-23T08:41:35.675Z</time></trkpt><trkpt lat="48.4989933" lon="-4.0964567"><ele>43.8</ele><time>2026-04-23T08:41:36.677Z</time></trkpt><trkpt lat="48.4989917" lon="-4.0962967"><ele>44.2</ele><time>2026-04-23T08:41:37.675Z</time></trkpt><trkpt lat="48.4989933" lon="-4.0961183"><ele>44.6</ele><time>2026-04-23T08:41:38.675Z</time></trkpt><trkpt lat="48.4989883" lon="-4.0959283"><ele>45.0</ele><time>2026-04-23T08:41:39.674Z</time></trkpt><trkpt lat="48.498985" lon="-4.0957333"><ele>45.0</ele><time>2026-04-23T08:41:40.673Z</time></trkpt><trkpt lat="48.49898" lon="-4.0955167"><ele>45.0</ele><time>2026-04-23T08:41:41.676Z</time></trkpt><trkpt lat="48.4989733" lon="-4.0953"><ele>45.0</ele><time>2026-04-23T08:41:42.676Z</time></trkpt><trkpt lat="48.4989667" lon="-4.0950817"><ele>45.0</ele><time>2026-04-23T08:41:43.675Z</time></trkpt><trkpt lat="48.49896" lon="-4.0948617"><ele>45.0</ele><time>2026-04-23T08:41:44.675Z</time></trkpt><trkpt lat="48.4989533" lon="-4.0946483"><ele>45.0</ele><time>2026-04-23T08:41:45.678Z</time></trkpt><trkpt lat="48.4989433" lon="-4.0944333"><ele>45.0</ele><time>2026-04-23T08:41:46.675Z</time></trkpt><trkpt lat="48.4989367" lon="-4.094215"><ele>45.0</ele><time>2026-04-23T08:41:47.677Z</time></trkpt><trkpt lat="48.4989317" lon="-4.0939883"><ele>46.0</ele><time>2026-04-23T08:41:48.677Z</time></trkpt><trkpt lat="48.498925" lon="-4.09375"><ele>47.0</ele><time>2026-04-23T08:41:49.68Z</time></trkpt><trkpt lat="48.49892" lon="-4.0935133"><ele>48.0</ele><time>2026-04-23T08:41:50.68Z</time></trkpt><trkpt lat="48.4989133" lon="-4.0932717"><ele>48.66666666666667</ele><time>2026-04-23T08:41:51.681Z</time></trkpt><trkpt lat="48.4989083" lon="-4.0930267"><ele>49.333333333333336</ele><time>2026-04-23T08:41:52.679Z</time></trkpt><trkpt lat="48.4989017" lon="-4.0927833"><ele>50.0</ele><time>2026-04-23T08:41:53.68Z</time></trkpt><trkpt lat="48.498895" lon="-4.09255"><ele>51.0</ele><time>2026-04-23T08:41:54.677Z</time></trkpt><trkpt lat="48.4988867" lon="-4.0923183"><ele>52.0</ele><time>2026-04-23T08:41:55.678Z</time></trkpt><trkpt lat="48.4988783" lon="-4.0920867"><ele>53.0</ele><time>2026-04-23T08:41:56.679Z</time></trkpt><trkpt lat="48.498875" lon="-4.0918583"><ele>53.0</ele><time>2026-04-23T08:41:57.676Z</time></trkpt><trkpt lat="48.4988683" lon="-4.09163"><ele>53.0</ele><time>2026-04-23T08:41:58.677Z</time></trkpt><trkpt lat="48.498855" lon="-4.0914"><ele>53.0</ele><time>2026-04-23T08:41:59.674Z</time></trkpt><trkpt lat="48.498835" lon="-4.09117"><ele>53.25</ele><time>2026-04-23T08:42:00.673Z</time></trkpt><trkpt lat="48.4988133" lon="-4.0909433"><ele>53.5</ele><time>2026-04-23T08:42:01.673Z</time></trkpt><trkpt lat="48.498785" lon="-4.0907267"><ele>53.75</ele><time>2026-04-23T08:42:02.674Z</time></trkpt><trkpt lat="48.4987567" lon="-4.0905133"><ele>54.0</ele><time>2026-04-23T08:42:03.675Z</time></trkpt><trkpt lat="48.4987233" lon="-4.0903083"><ele>52.75</ele><time>2026-04-23T08:42:04.677Z</time></trkpt><trkpt lat="48.4987117" lon="-4.0901"><ele>51.5</ele><time>2026-04-23T08:42:05.68Z</time></trkpt><trkpt lat="48.49872" lon="-4.089885"><ele>50.25</ele><time>2026-04-23T08:42:06.68Z</time></trkpt><trkpt lat="48.4987567" lon="-4.0896767"><ele>49.0</ele><time>2026-04-23T08:42:07.672Z</time></trkpt><trkpt lat="48.4988183" lon="-4.0894783"><ele>49.0</ele><time>2026-04-23T08:42:08.677Z</time></trkpt><trkpt lat="48.4989083" lon="-4.08931"><ele>49.0</ele><time>2026-04-23T08:42:09.679Z</time></trkpt><trkpt lat="48.4990183" lon="-4.0891617"><ele>49.0</ele><time>2026-04-23T08:42:10.677Z</time></trkpt><trkpt lat="48.4991417" lon="-4.08903"><ele>49.0</ele><time>2026-04-23T08:42:11.674Z</time></trkpt><trkpt lat="48.4992817" lon="-4.0889283"><ele>49.33333333333333</ele><time>2026-04-23T08:42:12.676Z</time></trkpt><trkpt lat="48.49943" lon="-4.0888583"><ele>49.66666666666667</ele><time>2026-04-23T08:42:13.675Z</time></trkpt><trkpt lat="48.4995967" lon="-4.0888267"><ele>50.0</ele><time>2026-04-23T08:42:14.676Z</time></trkpt><trkpt lat="48.4997767" lon="-4.088815"><ele>50.0</ele><time>2026-04-23T08:42:15.675Z</time></trkpt><trkpt lat="48.4999583" lon="-4.0888117"><ele>50.0</ele><time>2026-04-23T08:42:16.675Z</time></trkpt><trkpt lat="48.5001433" lon="-4.0888017"><ele>50.0</ele><time>2026-04-23T08:42:17.673Z</time></trkpt><trkpt lat="48.5003283" lon="-4.0887783"><ele>50.66666666666667</ele><time>2026-04-23T08:42:18.678Z</time></trkpt><trkpt lat="48.5005083" lon="-4.088735"><ele>51.33333333333333</ele><time>2026-04-23T08:42:19.676Z</time></trkpt><trkpt lat="48.500685" lon="-4.088665"><ele>52.0</ele><time>2026-04-23T08:42:20.679Z</time></trkpt><trkpt lat="48.500865" lon="-4.08857"><ele>52.0</ele><time>2026-04-23T08:42:21.673Z</time></trkpt><trkpt lat="48.5010433" lon="-4.0884633"><ele>52.0</ele><time>2026-04-23T08:42:22.674Z</time></trkpt><trkpt lat="48.5012183" lon="-4.088365"><ele>52.0</ele><time>2026-04-23T08:42:23.676Z</time></trkpt><trkpt lat="48.5013883" lon="-4.0882617"><ele>53.0</ele><time>2026-04-23T08:42:24.678Z</time></trkpt><trkpt lat="48.5015567" lon="-4.0881683"><ele>54.0</ele><time>2026-04-23T08:42:25.672Z</time></trkpt><trkpt lat="48.50172" lon="-4.0880833"><ele>55.0</ele><time>2026-04-23T08:42:26.677Z</time></trkpt><trkpt lat="48.5018533" lon="-4.0879783"><ele>55.0</ele><time>2026-04-23T08:42:27.675Z</time></trkpt><trkpt lat="48.5019983" lon="-4.0878483"><ele>55.0</ele><time>2026-04-23T08:42:28.672Z</time></trkpt><trkpt lat="48.5021217" lon="-4.0877017"><ele>55.0</ele><time>2026-04-23T08:42:29.677Z</time></trkpt><trkpt lat="48.502225" lon="-4.08754"><ele>54.75</ele><time>2026-04-23T08:42:30.676Z</time></trkpt><trkpt lat="48.50232" lon="-4.0873917"><ele>54.5</ele><time>2026-04-23T08:42:31.678Z</time></trkpt><trkpt lat="48.5024133" lon="-4.0872667"><ele>54.25</ele><time>2026-04-23T08:42:32.674Z</time></trkpt><trkpt lat="48.5025067" lon="-4.0871667"><ele>54.0</ele><time>2026-04-23T08:42:33.675Z</time></trkpt><trkpt lat="48.5026" lon="-4.0870883"><ele>54.0</ele><time>2026-04-23T08:42:34.676Z</time></trkpt><trkpt lat="48.5026917" lon="-4.08703"><ele>54.00000000000001</ele><time>2026-04-23T08:42:35.678Z</time></trkpt><trkpt lat="48.5027917" lon="-4.0869917"><ele>54.00000000000001</ele><time>2026-04-23T08:42:36.679Z</time></trkpt><trkpt lat="48.5028933" lon="-4.08697"><ele>54.0</ele><time>2026-04-23T08:42:37.675Z</time></trkpt><trkpt lat="48.5029967" lon="-4.0869617"><ele>54.0</ele><time>2026-04-23T08:42:38.676Z</time></trkpt><trkpt lat="48.5031017" lon="-4.086965"><ele>53.800000000000004</ele><time>2026-04-23T08:42:39.68Z</time></trkpt><trkpt lat="48.5032117" lon="-4.086975"><ele>53.60000000000001</ele><time>2026-04-23T08:42:40.677Z</time></trkpt><trkpt lat="48.503325" lon="-4.086985"><ele>53.4</ele><time>2026-04-23T08:42:41.676Z</time></trkpt><trkpt lat="48.5034333" lon="-4.08699"><ele>53.2</ele><time>2026-04-23T08:42:42.678Z</time></trkpt><trkpt lat="48.5035383" lon="-4.0869933"><ele>53.0</ele><time>2026-04-23T08:42:43.676Z</time></trkpt><trkpt lat="48.5036417" lon="-4.0869933"><ele>53.4</ele><time>2026-04-23T08:42:44.678Z</time></trkpt><trkpt lat="48.5037483" lon="-4.0869833"><ele>53.8</ele><time>2026-04-23T08:42:45.676Z</time></trkpt><trkpt lat="48.5038633" lon="-4.0869667"><ele>54.2</ele><time>2026-04-23T08:42:46.679Z</time></trkpt><trkpt lat="48.503975" lon="-4.0869367"><ele>54.6</ele><time>2026-04-23T08:42:47.677Z</time></trkpt><trkpt lat="48.50408" lon="-4.086905"><ele>55.0</ele><time>2026-04-23T08:42:48.678Z</time></trkpt><trkpt lat="48.5041833" lon="-4.086875"><ele>54.99999999999999</ele><time>2026-04-23T08:42:49.674Z</time></trkpt><trkpt lat="48.5042833" lon="-4.0868383"><ele>55.0</ele><time>2026-04-23T08:42:50.675Z</time></trkpt><trkpt lat="48.5043717" lon="-4.0868017"><ele>55.0</ele><time>2026-04-23T08:42:51.673Z</time></trkpt><trkpt lat="48.50446" lon="-4.0867583"><ele>55.0</ele><time>2026-04-23T08:42:52.674Z</time></trkpt><trkpt lat="48.504525" lon="-4.0866817"><ele>54.99999999999999</ele><time>2026-04-23T08:42:53.677Z</time></trkpt><trkpt lat="48.5045667" lon="-4.0865883"><ele>55.0</ele><time>2026-04-23T08:42:54.681Z</time></trkpt><trkpt lat="48.5045867" lon="-4.0864817"><ele>54.8</ele><time>2026-04-23T08:42:55.681Z</time></trkpt><trkpt lat="48.5045983" lon="-4.0863567"><ele>54.6</ele><time>2026-04-23T08:42:56.674Z</time></trkpt><trkpt lat="48.5046283" lon="-4.08623"><ele>54.400000000000006</ele><time>2026-04-23T08:42:57.678Z</time></trkpt><trkpt lat="48.50468" lon="-4.08612"><ele>54.2</ele><time>2026-04-23T08:42:58.676Z</time></trkpt><trkpt lat="48.5047683" lon="-4.0860617"><ele>54.0</ele><time>2026-04-23T08:42:59.679Z</time></trkpt><trkpt lat="48.5048733" lon="-4.0860533"><ele>54.0</ele><time>2026-04-23T08:43:00.677Z</time></trkpt><trkpt lat="48.5049783" lon="-4.0860217"><ele>54.0</ele><time>2026-04-23T08:43:01.676Z</time></trkpt><trkpt lat="48.5050683" lon="-4.0859383"><ele>54.0</ele><time>2026-04-23T08:43:02.677Z</time></trkpt><trkpt lat="48.5051517" lon="-4.085795"><ele>54.0</ele><time>2026-04-23T08:43:03.677Z</time></trkpt><trkpt lat="48.5052333" lon="-4.0856183"><ele>54.5</ele><time>2026-04-23T08:43:04.677Z</time></trkpt><trkpt lat="48.5053183" lon="-4.0854483"><ele>55.0</ele><time>2026-04-23T08:43:05.676Z</time></trkpt><trkpt lat="48.5054033" lon="-4.0852817"><ele>55.5</ele><time>2026-04-23T08:43:06.677Z</time></trkpt><trkpt lat="48.50549" lon="-4.0851067"><ele>56.0</ele><time>2026-04-23T08:43:07.678Z</time></trkpt><trkpt lat="48.5055733" lon="-4.08493"><ele>56.5</ele><time>2026-04-23T08:43:08.677Z</time></trkpt><trkpt lat="48.5056567" lon="-4.0847583"><ele>57.0</ele><time>2026-04-23T08:43:09.676Z</time></trkpt><trkpt lat="48.5057417" lon="-4.0845967"><ele>57.5</ele><time>2026-04-23T08:43:10.678Z</time></trkpt><trkpt lat="48.5058267" lon="-4.0844367"><ele>58.0</ele><time>2026-04-23T08:43:11.677Z</time></trkpt><trkpt lat="48.5059133" lon="-4.0842883"><ele>58.0</ele><time>2026-04-23T08:43:12.677Z</time></trkpt><trkpt lat="48.5059967" lon="-4.0841317"><ele>58.0</ele><time>2026-04-23T08:43:13.678Z</time></trkpt><trkpt lat="48.5060733" lon="-4.0839767"><ele>58.0</ele><time>2026-04-23T08:43:14.678Z</time></trkpt><trkpt lat="48.5061533" lon="-4.0838267"><ele>58.0</ele><time>2026-04-23T08:43:15.678Z</time></trkpt><trkpt lat="48.5062283" lon="-4.0836783"><ele>59.0</ele><time>2026-04-23T08:43:16.676Z</time></trkpt><trkpt lat="48.5062933" lon="-4.0835167"><ele>60.0</ele><time>2026-04-23T08:43:17.677Z</time></trkpt><trkpt lat="48.5063417" lon="-4.0833433"><ele>61.0</ele><time>2026-04-23T08:43:18.678Z</time></trkpt><trkpt lat="48.5063817" lon="-4.0831583"><ele>62.0</ele><time>2026-04-23T08:43:19.676Z</time></trkpt><trkpt lat="48.50641" lon="-4.0829633"><ele>62.0</ele><time>2026-04-23T08:43:20.677Z</time></trkpt><trkpt lat="48.50643" lon="-4.0827667"><ele>62.0</ele><time>2026-04-23T08:43:21.681Z</time></trkpt><trkpt lat="48.5064483" lon="-4.0825683"><ele>62.0</ele><time>2026-04-23T08:43:22.681Z</time></trkpt><trkpt lat="48.506465" lon="-4.082375"><ele>62.0</ele><time>2026-04-23T08:43:23.678Z</time></trkpt><trkpt lat="48.5064833" lon="-4.082185"><ele>61.75</ele><time>2026-04-23T08:43:24.678Z</time></trkpt><trkpt lat="48.5065017" lon="-4.0819967"><ele>61.5</ele><time>2026-04-23T08:43:25.677Z</time></trkpt><trkpt lat="48.506525" lon="-4.08181"><ele>61.25</ele><time>2026-04-23T08:43:26.678Z</time></trkpt><trkpt lat="48.5065467" lon="-4.0816233"><ele>61.0</ele><time>2026-04-23T08:43:27.676Z</time></trkpt><trkpt lat="48.5065783" lon="-4.0814367"><ele>60.75</ele><time>2026-04-23T08:43:28.676Z</time></trkpt><trkpt lat="48.5066217" lon="-4.08126"><ele>60.5</ele><time>2026-04-23T08:43:29.679Z</time></trkpt><trkpt lat="48.5066833" lon="-4.081105"><ele>60.25</ele><time>2026-04-23T08:43:30.679Z</time></trkpt><trkpt lat="48.5067717" lon="-4.08098"><ele>60.0</ele><time>2026-04-23T08:43:31.678Z</time></trkpt><trkpt lat="48.5068767" lon="-4.080885"><ele>60.0</ele><time>2026-04-23T08:43:32.678Z</time></trkpt><trkpt lat="48.507" lon="-4.0808217"><ele>60.0</ele><time>2026-04-23T08:43:33.676Z</time></trkpt><trkpt lat="48.5071383" lon="-4.080785"><ele>60.0</ele><time>2026-04-23T08:43:34.676Z</time></trkpt><trkpt lat="48.5072717" lon="-4.08075"><ele>60.0</ele><time>2026-04-23T08:43:35.677Z</time></trkpt><trkpt lat="48.5073967" lon="-4.080705"><ele>60.75</ele><time>2026-04-23T08:43:36.679Z</time></trkpt><trkpt lat="48.5075117" lon="-4.0806383"><ele>61.5</ele><time>2026-04-23T08:43:37.678Z</time></trkpt><trkpt lat="48.5076233" lon="-4.0805533"><ele>62.25</ele><time>2026-04-23T08:43:38.68Z</time></trkpt><trkpt lat="48.507725" lon="-4.0804533"><ele>63.0</ele><time>2026-04-23T08:43:39.678Z</time></trkpt><trkpt lat="48.5078267" lon="-4.0803483"><ele>62.8</ele><time>2026-04-23T08:43:40.677Z</time></trkpt><trkpt lat="48.5079233" lon="-4.0802367"><ele>62.599999999999994</ele><time>2026-04-23T08:43:41.676Z</time></trkpt><trkpt lat="48.5080117" lon="-4.080125"><ele>62.400000000000006</ele><time>2026-04-23T08:43:42.677Z</time></trkpt><trkpt lat="48.508085" lon="-4.0800233"><ele>62.2</ele><time>2026-04-23T08:43:43.677Z</time></trkpt><trkpt lat="48.5081433" lon="-4.079925"><ele>62.0</ele><time>2026-04-23T08:43:44.677Z</time></trkpt><trkpt lat="48.5081783" lon="-4.079825"><ele>62.00000000000001</ele><time>2026-04-23T08:43:45.678Z</time></trkpt><trkpt lat="48.5081933" lon="-4.0797267"><ele>62.0</ele><time>2026-04-23T08:43:46.677Z</time></trkpt><trkpt lat="48.50821" lon="-4.079635"><ele>62.0</ele><time>2026-04-23T08:43:47.679Z</time></trkpt><trkpt lat="48.50825" lon="-4.0795567"><ele>62.0</ele><time>2026-04-23T08:43:48.679Z</time></trkpt><trkpt lat="48.50837" lon="-4.079485"><ele>62.00000000000001</ele><time>2026-04-23T08:43:50.679Z</time></trkpt><trkpt lat="48.5084417" lon="-4.0794433"><ele>62.0</ele><time>2026-04-23T08:43:51.677Z</time></trkpt><trkpt lat="48.5085167" lon="-4.0793617"><ele>62.0</ele><time>2026-04-23T08:43:52.68Z</time></trkpt><trkpt lat="48.508595" lon="-4.0792633"><ele>62.0</ele><time>2026-04-23T08:43:53.676Z</time></trkpt><trkpt lat="48.50867" lon="-4.0791417"><ele>62.0</ele><time>2026-04-23T08:43:54.677Z</time></trkpt><trkpt lat="48.5087433" lon="-4.07901"><ele>62.0</ele><time>2026-04-23T08:43:55.676Z</time></trkpt><trkpt lat="48.508815" lon="-4.078875"><ele>62.0</ele><time>2026-04-23T08:43:56.677Z</time></trkpt><trkpt lat="48.50888" lon="-4.07873"><ele>62.5</ele><time>2026-04-23T08:43:57.676Z</time></trkpt><trkpt lat="48.508945" lon="-4.0785833"><ele>63.0</ele><time>2026-04-23T08:43:58.675Z</time></trkpt><trkpt lat="48.5090067" lon="-4.078435"><ele>63.5</ele><time>2026-04-23T08:43:59.678Z</time></trkpt><trkpt lat="48.50907" lon="-4.07829"><ele>64.0</ele><time>2026-04-23T08:44:00.677Z</time></trkpt><trkpt lat="48.5091317" lon="-4.0781467"><ele>64.0</ele><time>2026-04-23T08:44:01.676Z</time></trkpt><trkpt lat="48.5091933" lon="-4.0780033"><ele>64.0</ele><time>2026-04-23T08:44:02.678Z</time></trkpt><trkpt lat="48.5092533" lon="-4.077865"><ele>64.0</ele><time>2026-04-23T08:44:03.677Z</time></trkpt><trkpt lat="48.5093117" lon="-4.07773"><ele>64.0</ele><time>2026-04-23T08:44:04.677Z</time></trkpt><trkpt lat="48.5093683" lon="-4.077595"><ele>64.0</ele><time>2026-04-23T08:44:05.677Z</time></trkpt><trkpt lat="48.50942" lon="-4.0774633"><ele>64.5</ele><time>2026-04-23T08:44:06.676Z</time></trkpt><trkpt lat="48.5094667" lon="-4.0773333"><ele>65.0</ele><time>2026-04-23T08:44:07.677Z</time></trkpt><trkpt lat="48.5095017" lon="-4.0772133"><ele>65.5</ele><time>2026-04-23T08:44:08.677Z</time></trkpt><trkpt lat="48.5095283" lon="-4.0771033"><ele>66.0</ele><time>2026-04-23T08:44:09.676Z</time></trkpt><trkpt lat="48.50955" lon="-4.077005"><ele>66.5</ele><time>2026-04-23T08:44:10.678Z</time></trkpt><trkpt lat="48.5095717" lon="-4.07691"><ele>67.0</ele><time>2026-04-23T08:44:11.677Z</time></trkpt><trkpt lat="48.5095917" lon="-4.0768067"><ele>67.0</ele><time>2026-04-23T08:44:12.677Z</time></trkpt><trkpt lat="48.5096" lon="-4.0767"><ele>67.0</ele><time>2026-04-23T08:44:13.676Z</time></trkpt><trkpt lat="48.5096017" lon="-4.07659"><ele>67.0</ele><time>2026-04-23T08:44:14.676Z</time></trkpt><trkpt lat="48.5096067" lon="-4.07647"><ele>67.0</ele><time>2026-04-23T08:44:15.677Z</time></trkpt><trkpt lat="48.5096117" lon="-4.0763333"><ele>67.0</ele><time>2026-04-23T08:44:16.677Z</time></trkpt><trkpt lat="48.5096217" lon="-4.0761817"><ele>67.0</ele><time>2026-04-23T08:44:17.676Z</time></trkpt><trkpt lat="48.509635" lon="-4.0760167"><ele>66.8</ele><time>2026-04-23T08:44:18.679Z</time></trkpt><trkpt lat="48.50965" lon="-4.0758433"><ele>66.6</ele><time>2026-04-23T08:44:19.683Z</time></trkpt><trkpt lat="48.5096667" lon="-4.0756717"><ele>66.39999999999999</ele><time>2026-04-23T08:44:20.68Z</time></trkpt><trkpt lat="48.50968" lon="-4.0755083"><ele>66.2</ele><time>2026-04-23T08:44:21.677Z</time></trkpt><trkpt lat="48.5096933" lon="-4.0753467"><ele>66.0</ele><time>2026-04-23T08:44:22.678Z</time></trkpt><trkpt lat="48.5097083" lon="-4.0751833"><ele>66.39999999999999</ele><time>2026-04-23T08:44:23.675Z</time></trkpt><trkpt lat="48.5097217" lon="-4.07502"><ele>66.8</ele><time>2026-04-23T08:44:24.682Z</time></trkpt><trkpt lat="48.509735" lon="-4.0748633"><ele>67.19999999999999</ele><time>2026-04-23T08:44:25.676Z</time></trkpt><trkpt lat="48.509745" lon="-4.0747217"><ele>67.6</ele><time>2026-04-23T08:44:26.678Z</time></trkpt><trkpt lat="48.509755" lon="-4.074595"><ele>68.0</ele><time>2026-04-23T08:44:27.677Z</time></trkpt><trkpt lat="48.509765" lon="-4.0744817"><ele>68.8</ele><time>2026-04-23T08:44:28.676Z</time></trkpt><trkpt lat="48.5097717" lon="-4.07438"><ele>69.6</ele><time>2026-04-23T08:44:29.676Z</time></trkpt><trkpt lat="48.509785" lon="-4.0742083"><ele>70.4</ele><time>2026-04-23T08:44:31.676Z</time></trkpt><trkpt lat="48.5098" lon="-4.07407"><ele>71.2</ele><time>2026-04-23T08:44:33.677Z</time></trkpt><trkpt lat="48.5098133" lon="-4.073935"><ele>72.0</ele><time>2026-04-23T08:44:35.678Z</time></trkpt><trkpt lat="48.50982" lon="-4.0737383"><ele>72.66666666666667</ele><time>2026-04-23T08:44:37.676Z</time></trkpt><trkpt lat="48.5098317" lon="-4.073625"><ele>73.33333333333333</ele><time>2026-04-23T08:44:38.68Z</time></trkpt><trkpt lat="48.5098467" lon="-4.0735017"><ele>74.0</ele><time>2026-04-23T08:44:39.678Z</time></trkpt><trkpt lat="48.5098683" lon="-4.0733717"><ele>74.66666666666666</ele><time>2026-04-23T08:44:40.677Z</time></trkpt><trkpt lat="48.5098833" lon="-4.0732483"><ele>75.33333333333333</ele><time>2026-04-23T08:44:41.678Z</time></trkpt><trkpt lat="48.5098917" lon="-4.0731417"><ele>76.0</ele><time>2026-04-23T08:44:42.68Z</time></trkpt><trkpt lat="48.5099033" lon="-4.0730483"><ele>76.33333333333333</ele><time>2026-04-23T08:44:43.679Z</time></trkpt><trkpt lat="48.5099283" lon="-4.0729017"><ele>76.66666666666666</ele><time>2026-04-23T08:44:45.677Z</time></trkpt><trkpt lat="48.50995" lon="-4.0727783"><ele>77.0</ele><time>2026-04-23T08:44:47.679Z</time></trkpt><trkpt lat="48.509965" lon="-4.0726583"><ele>77.33333333333333</ele><time>2026-04-23T08:44:50.68Z</time></trkpt><trkpt lat="48.50998" lon="-4.07255"><ele>77.66666666666667</ele><time>2026-04-23T08:44:53.679Z</time></trkpt><trkpt lat="48.50999" lon="-4.0724217"><ele>78.0</ele><time>2026-04-23T08:44:55.677Z</time></trkpt><trkpt lat="48.50996" lon="-4.0722833"><ele>78.6</ele><time>2026-04-23T08:44:57.677Z</time></trkpt><trkpt lat="48.5098983" lon="-4.07215"><ele>79.19999999999999</ele><time>2026-04-23T08:44:59.678Z</time></trkpt><trkpt lat="48.509845" lon="-4.0720317"><ele>79.8</ele><time>2026-04-23T08:45:01.683Z</time></trkpt><trkpt lat="48.5097967" lon="-4.071915"><ele>80.39999999999999</ele><time>2026-04-23T08:45:03.679Z</time></trkpt><trkpt lat="48.5097467" lon="-4.0717983"><ele>81.0</ele><time>2026-04-23T08:45:05.678Z</time></trkpt><trkpt lat="48.5097267" lon="-4.0716483"><ele>81.4</ele><time>2026-04-23T08:45:07.676Z</time></trkpt><trkpt lat="48.509755" lon="-4.07149"><ele>81.8</ele><time>2026-04-23T08:45:09.676Z</time></trkpt><trkpt lat="48.5097983" lon="-4.0713783"><ele>82.2</ele><time>2026-04-23T08:45:11.679Z</time></trkpt><trkpt lat="48.50985" lon="-4.0712717"><ele>82.60000000000001</ele><time>2026-04-23T08:45:14.68Z</time></trkpt><trkpt lat="48.5098933" lon="-4.0711667"><ele>83.0</ele><time>2026-04-23T08:45:23.677Z</time></trkpt><trkpt lat="48.50995" lon="-4.0710633"><ele>83.0</ele><time>2026-04-23T08:45:25.677Z</time></trkpt><trkpt lat="48.510025" lon="-4.070925"><ele>83.0</ele><time>2026-04-23T08:45:27.68Z</time></trkpt><trkpt lat="48.5100933" lon="-4.0707717"><ele>83.0</ele><time>2026-04-23T08:45:29.677Z</time></trkpt><trkpt lat="48.5101517" lon="-4.0706283"><ele>83.0</ele><time>2026-04-23T08:45:31.677Z</time></trkpt><trkpt lat="48.5102067" lon="-4.0704767"><ele>83.2</ele><time>2026-04-23T08:45:33.678Z</time></trkpt><trkpt lat="48.5102583" lon="-4.0703217"><ele>83.4</ele><time>2026-04-23T08:45:35.676Z</time></trkpt><trkpt lat="48.5103117" lon="-4.0701783"><ele>83.60000000000001</ele><time>2026-04-23T08:45:37.676Z</time></trkpt><trkpt lat="48.5103433" lon="-4.0700783"><ele>83.80000000000001</ele><time>2026-04-23T08:45:39.678Z</time></trkpt><trkpt lat="48.5103917" lon="-4.07"><ele>84.0</ele><time>2026-04-23T08:45:43.677Z</time></trkpt><trkpt lat="48.5104433" lon="-4.069885"><ele>84.0</ele><time>2026-04-23T08:45:46.679Z</time></trkpt><trkpt lat="48.510495" lon="-4.06978"><ele>84.0</ele><time>2026-04-23T08:45:48.679Z</time></trkpt><trkpt lat="48.5105333" lon="-4.06964"><ele>84.0</ele><time>2026-04-23T08:45:50.677Z</time></trkpt><trkpt lat="48.5105767" lon="-4.0694667"><ele>84.0</ele><time>2026-04-23T08:45:52.677Z</time></trkpt><trkpt lat="48.5106183" lon="-4.0693467"><ele>84.0</ele><time>2026-04-23T08:45:54.679Z</time></trkpt><trkpt lat="48.5106633" lon="-4.0692283"><ele>84.0</ele><time>2026-04-23T08:45:56.678Z</time></trkpt><trkpt lat="48.510705" lon="-4.069135"><ele>84.0</ele><time>2026-04-23T08:45:58.68Z</time></trkpt><trkpt lat="48.510785" lon="-4.069105"><ele>84.0</ele><time>2026-04-23T08:46:01.678Z</time></trkpt><trkpt lat="48.510845" lon="-4.069135"><ele>84.0</ele><time>2026-04-23T08:46:03.677Z</time></trkpt><trkpt lat="48.5109117" lon="-4.0691867"><ele>84.0</ele><time>2026-04-23T08:46:05.684Z</time></trkpt><trkpt lat="48.5109733" lon="-4.0692217"><ele>84.0</ele><time>2026-04-23T08:46:07.679Z</time></trkpt><trkpt lat="48.5110783" lon="-4.069285"><ele>84.0</ele><time>2026-04-23T08:46:11.68Z</time></trkpt><trkpt lat="48.5111267" lon="-4.0693683"><ele>84.0</ele><time>2026-04-23T08:46:14.679Z</time></trkpt><trkpt lat="48.5111283" lon="-4.06949"><ele>84.0</ele><time>2026-04-23T08:46:17.677Z</time></trkpt><trkpt lat="48.5110767" lon="-4.069545"><ele>84.0</ele><time>2026-04-23T08:46:20.679Z</time></trkpt><trkpt lat="48.5110817" lon="-4.0694217"><ele>84.0</ele><time>2026-04-23T08:46:24.679Z</time></trkpt><trkpt lat="48.5110767" lon="-4.06931"><ele>84.0</ele><time>2026-04-23T08:46:27.678Z</time></trkpt><trkpt lat="48.5109617" lon="-4.0692517"><ele>84.0</ele><time>2026-04-23T08:46:29.678Z</time></trkpt><trkpt lat="48.5108917" lon="-4.06922"><ele>84.0</ele><time>2026-04-23T08:46:30.68Z</time></trkpt><trkpt lat="48.5108267" lon="-4.06919"><ele>84.0</ele><time>2026-04-23T08:46:31.68Z</time></trkpt><trkpt lat="48.5107417" lon="-4.0691417"><ele>84.0</ele><time>2026-04-23T08:46:33.679Z</time></trkpt><trkpt lat="48.5106667" lon="-4.0691567"><ele>84.0</ele><time>2026-04-23T08:46:36.679Z</time></trkpt><trkpt lat="48.5106217" lon="-4.0692467"><ele>84.0</ele><time>2026-04-23T08:46:38.684Z</time></trkpt><trkpt lat="48.5105617" lon="-4.0693533"><ele>84.0</ele><time>2026-04-23T08:46:44.679Z</time></trkpt><trkpt lat="48.51053" lon="-4.0694833"><ele>84.0</ele><time>2026-04-23T08:46:48.679Z</time></trkpt><trkpt lat="48.5104933" lon="-4.06959"><ele>84.0</ele><time>2026-04-23T08:46:50.679Z</time></trkpt><trkpt lat="48.5105" lon="-4.0696967"><ele>84.0</ele><time>2026-04-23T08:46:53.679Z</time></trkpt><trkpt lat="48.51058" lon="-4.0697917"><ele>84.0</ele><time>2026-04-23T08:46:57.678Z</time></trkpt><trkpt lat="48.5106383" lon="-4.0698317"><ele>84.0</ele><time>2026-04-23T08:46:58.679Z</time></trkpt><trkpt lat="48.510705" lon="-4.0698717"><ele>84.0</ele><time>2026-04-23T08:46:59.68Z</time></trkpt><trkpt lat="48.5107733" lon="-4.069915"><ele>84.0</ele><time>2026-04-23T08:47:00.679Z</time></trkpt><trkpt lat="48.510845" lon="-4.0699617"><ele>84.0</ele><time>2026-04-23T08:47:01.682Z</time></trkpt><trkpt lat="48.51092" lon="-4.0700067"><ele>84.0</ele><time>2026-04-23T08:47:02.68Z</time></trkpt><trkpt lat="48.5109967" lon="-4.0700483"><ele>84.0</ele><time>2026-04-23T08:47:03.68Z</time></trkpt><trkpt lat="48.5110683" lon="-4.07008"><ele>84.0</ele><time>2026-04-23T08:47:04.678Z</time></trkpt><trkpt lat="48.5111383" lon="-4.07011"><ele>83.85714285714286</ele><time>2026-04-23T08:47:05.68Z</time></trkpt><trkpt lat="48.5112067" lon="-4.0701383"><ele>83.71428571428572</ele><time>2026-04-23T08:47:06.68Z</time></trkpt><trkpt lat="48.5112783" lon="-4.0701717"><ele>83.57142857142857</ele><time>2026-04-23T08:47:07.68Z</time></trkpt><trkpt lat="48.51135" lon="-4.070205"><ele>83.42857142857143</ele><time>2026-04-23T08:47:08.681Z</time></trkpt><trkpt lat="48.5114167" lon="-4.070245"><ele>83.28571428571429</ele><time>2026-04-23T08:47:09.679Z</time></trkpt><trkpt lat="48.5114783" lon="-4.0702833"><ele>83.14285714285714</ele><time>2026-04-23T08:47:10.678Z</time></trkpt><trkpt lat="48.5115433" lon="-4.0703183"><ele>83.0</ele><time>2026-04-23T08:47:11.682Z</time></trkpt><trkpt lat="48.51161" lon="-4.07036"><ele>82.66666666666667</ele><time>2026-04-23T08:47:12.682Z</time></trkpt><trkpt lat="48.5116817" lon="-4.0704017"><ele>82.33333333333334</ele><time>2026-04-23T08:47:13.678Z</time></trkpt><trkpt lat="48.5117567" lon="-4.0704433"><ele>82.0</ele><time>2026-04-23T08:47:14.68Z</time></trkpt><trkpt lat="48.5118317" lon="-4.0704933"><ele>81.66666666666667</ele><time>2026-04-23T08:47:15.678Z</time></trkpt><trkpt lat="48.511905" lon="-4.070535"><ele>81.33333333333333</ele><time>2026-04-23T08:47:16.678Z</time></trkpt><trkpt lat="48.5119767" lon="-4.070575"><ele>81.0</ele><time>2026-04-23T08:47:17.677Z</time></trkpt><trkpt lat="48.5120433" lon="-4.0706217"><ele>81.16666666666667</ele><time>2026-04-23T08:47:18.677Z</time></trkpt><trkpt lat="48.512115" lon="-4.07066"><ele>81.33333333333333</ele><time>2026-04-23T08:47:19.678Z</time></trkpt><trkpt lat="48.5121867" lon="-4.0706967"><ele>81.5</ele><time>2026-04-23T08:47:20.678Z</time></trkpt><trkpt lat="48.5122633" lon="-4.0707367"><ele>81.66666666666666</ele><time>2026-04-23T08:47:21.679Z</time></trkpt><trkpt lat="48.5123417" lon="-4.07078"><ele>81.83333333333333</ele><time>2026-04-23T08:47:22.676Z</time></trkpt><trkpt lat="48.5124217" lon="-4.070825"><ele>82.0</ele><time>2026-04-23T08:47:23.679Z</time></trkpt><trkpt lat="48.5125" lon="-4.070865"><ele>82.16666666666666</ele><time>2026-04-23T08:47:24.679Z</time></trkpt><trkpt lat="48.5125733" lon="-4.070905"><ele>82.33333333333333</ele><time>2026-04-23T08:47:25.679Z</time></trkpt><trkpt lat="48.5126433" lon="-4.0709433"><ele>82.5</ele><time>2026-04-23T08:47:26.678Z</time></trkpt><trkpt lat="48.51271" lon="-4.070975"><ele>82.66666666666667</ele><time>2026-04-23T08:47:27.678Z</time></trkpt><trkpt lat="48.51279" lon="-4.0710067"><ele>82.83333333333334</ele><time>2026-04-23T08:47:28.676Z</time></trkpt><trkpt lat="48.5128883" lon="-4.07106"><ele>83.0</ele><time>2026-04-23T08:47:29.678Z</time></trkpt><trkpt lat="48.513" lon="-4.0711117"><ele>83.25</ele><time>2026-04-23T08:47:30.677Z</time></trkpt><trkpt lat="48.513125" lon="-4.071155"><ele>83.5</ele><time>2026-04-23T08:47:31.675Z</time></trkpt><trkpt lat="48.513255" lon="-4.0712"><ele>83.75</ele><time>2026-04-23T08:47:32.682Z</time></trkpt><trkpt lat="48.5133817" lon="-4.0712467"><ele>84.0</ele><time>2026-04-23T08:47:33.678Z</time></trkpt><trkpt lat="48.513505" lon="-4.0713"><ele>84.0</ele><time>2026-04-23T08:47:34.677Z</time></trkpt><trkpt lat="48.513625" lon="-4.07136"><ele>84.0</ele><time>2026-04-23T08:47:35.678Z</time></trkpt><trkpt lat="48.51374" lon="-4.0714217"><ele>84.0</ele><time>2026-04-23T08:47:36.678Z</time></trkpt><trkpt lat="48.513855" lon="-4.0714833"><ele>84.0</ele><time>2026-04-23T08:47:37.678Z</time></trkpt><trkpt lat="48.5139683" lon="-4.0715517"><ele>84.75</ele><time>2026-04-23T08:47:38.679Z</time></trkpt><trkpt lat="48.5140833" lon="-4.0716133"><ele>85.5</ele><time>2026-04-23T08:47:39.68Z</time></trkpt><trkpt lat="48.5142" lon="-4.07167"><ele>86.25</ele><time>2026-04-23T08:47:40.678Z</time></trkpt><trkpt lat="48.51432" lon="-4.0717267"><ele>87.0</ele><time>2026-04-23T08:47:41.677Z</time></trkpt><trkpt lat="48.5144417" lon="-4.0717767"><ele>87.0</ele><time>2026-04-23T08:47:42.678Z</time></trkpt><trkpt lat="48.514565" lon="-4.0718267"><ele>87.0</ele><time>2026-04-23T08:47:43.677Z</time></trkpt><trkpt lat="48.5146867" lon="-4.0718667"><ele>87.0</ele><time>2026-04-23T08:47:44.679Z</time></trkpt><trkpt lat="48.5148083" lon="-4.0719033"><ele>87.0</ele><time>2026-04-23T08:47:45.678Z</time></trkpt><trkpt lat="48.5149383" lon="-4.07192"><ele>87.0</ele><time>2026-04-23T08:47:46.676Z</time></trkpt><trkpt lat="48.5150733" lon="-4.0719217"><ele>87.0</ele><time>2026-04-23T08:47:47.677Z</time></trkpt><trkpt lat="48.5152133" lon="-4.0719133"><ele>87.0</ele><time>2026-04-23T08:47:48.678Z</time></trkpt><trkpt lat="48.5153533" lon="-4.0719"><ele>87.0</ele><time>2026-04-23T08:47:49.677Z</time></trkpt><trkpt lat="48.5154883" lon="-4.071885"><ele>86.5</ele><time>2026-04-23T08:47:50.68Z</time></trkpt><trkpt lat="48.5156217" lon="-4.071875"><ele>86.0</ele><time>2026-04-23T08:47:51.678Z</time></trkpt><trkpt lat="48.515755" lon="-4.07186"><ele>85.5</ele><time>2026-04-23T08:47:52.677Z</time></trkpt><trkpt lat="48.515885" lon="-4.0718483"><ele>85.0</ele><time>2026-04-23T08:47:53.678Z</time></trkpt><trkpt lat="48.5160183" lon="-4.071835"><ele>85.0</ele><time>2026-04-23T08:47:54.677Z</time></trkpt><trkpt lat="48.5161517" lon="-4.0718233"><ele>85.0</ele><time>2026-04-23T08:47:55.672Z</time></trkpt><trkpt lat="48.5162867" lon="-4.07181"><ele>85.0</ele><time>2026-04-23T08:47:56.678Z</time></trkpt><trkpt lat="48.5164217" lon="-4.0717983"><ele>85.0</ele><time>2026-04-23T08:47:57.676Z</time></trkpt><trkpt lat="48.51656" lon="-4.071785"><ele>84.25</ele><time>2026-04-23T08:47:58.676Z</time></trkpt><trkpt lat="48.5166983" lon="-4.0717717"><ele>83.5</ele><time>2026-04-23T08:47:59.676Z</time></trkpt><trkpt lat="48.51684" lon="-4.0717533"><ele>82.75</ele><time>2026-04-23T08:48:00.679Z</time></trkpt><trkpt lat="48.5169867" lon="-4.07174"><ele>82.0</ele><time>2026-04-23T08:48:01.678Z</time></trkpt><trkpt lat="48.5171333" lon="-4.07172"><ele>82.0</ele><time>2026-04-23T08:48:02.678Z</time></trkpt><trkpt lat="48.5172817" lon="-4.0717"><ele>82.0</ele><time>2026-04-23T08:48:03.677Z</time></trkpt><trkpt lat="48.5174267" lon="-4.0716817"><ele>82.0</ele><time>2026-04-23T08:48:04.676Z</time></trkpt><trkpt lat="48.51757" lon="-4.0716617"><ele>82.0</ele><time>2026-04-23T08:48:05.677Z</time></trkpt><trkpt lat="48.5177133" lon="-4.0716533"><ele>82.0</ele><time>2026-04-23T08:48:06.677Z</time></trkpt><trkpt lat="48.517855" lon="-4.07164"><ele>82.0</ele><time>2026-04-23T08:48:07.679Z</time></trkpt><trkpt lat="48.51799" lon="-4.0716233"><ele>82.0</ele><time>2026-04-23T08:48:08.678Z</time></trkpt><trkpt lat="48.5181217" lon="-4.071605"><ele>82.0</ele><time>2026-04-23T08:48:09.676Z</time></trkpt><trkpt lat="48.518255" lon="-4.0715867"><ele>82.5</ele><time>2026-04-23T08:48:10.676Z</time></trkpt><trkpt lat="48.51839" lon="-4.0715717"><ele>83.0</ele><time>2026-04-23T08:48:11.678Z</time></trkpt><trkpt lat="48.518525" lon="-4.071555"><ele>83.5</ele><time>2026-04-23T08:48:12.676Z</time></trkpt><trkpt lat="48.5186617" lon="-4.0715383"><ele>84.0</ele><time>2026-04-23T08:48:13.676Z</time></trkpt><trkpt lat="48.5188" lon="-4.0715217"><ele>84.5</ele><time>2026-04-23T08:48:14.678Z</time></trkpt><trkpt lat="48.51894" lon="-4.071505"><ele>85.0</ele><time>2026-04-23T08:48:15.677Z</time></trkpt><trkpt lat="48.51908" lon="-4.0714867"><ele>85.5</ele><time>2026-04-23T08:48:16.678Z</time></trkpt><trkpt lat="48.5192133" lon="-4.0714683"><ele>86.0</ele><time>2026-04-23T08:48:17.678Z</time></trkpt><trkpt lat="48.5193483" lon="-4.0714383"><ele>86.0</ele><time>2026-04-23T08:48:18.679Z</time></trkpt><trkpt lat="48.5194783" lon="-4.0714017"><ele>86.0</ele><time>2026-04-23T08:48:19.68Z</time></trkpt><trkpt lat="48.5196067" lon="-4.0713567"><ele>86.0</ele><time>2026-04-23T08:48:20.681Z</time></trkpt><trkpt lat="48.5197283" lon="-4.0713"><ele>86.0</ele><time>2026-04-23T08:48:21.677Z</time></trkpt><trkpt lat="48.519845" lon="-4.071235"><ele>86.6</ele><time>2026-04-23T08:48:22.678Z</time></trkpt><trkpt lat="48.51995" lon="-4.071175"><ele>87.19999999999999</ele><time>2026-04-23T08:48:23.68Z</time></trkpt><trkpt lat="48.5200433" lon="-4.07112"><ele>87.80000000000001</ele><time>2026-04-23T08:48:24.677Z</time></trkpt><trkpt lat="48.520125" lon="-4.07107"><ele>88.4</ele><time>2026-04-23T08:48:25.677Z</time></trkpt><trkpt lat="48.5202033" lon="-4.0710233"><ele>89.0</ele><time>2026-04-23T08:48:26.677Z</time></trkpt><trkpt lat="48.5202917" lon="-4.0709583"><ele>89.0</ele><time>2026-04-23T08:48:27.677Z</time></trkpt><trkpt lat="48.5203933" lon="-4.0708683"><ele>89.0</ele><time>2026-04-23T08:48:28.677Z</time></trkpt><trkpt lat="48.5205017" lon="-4.0707917"><ele>89.0</ele><time>2026-04-23T08:48:29.678Z</time></trkpt><trkpt lat="48.5206217" lon="-4.0707517"><ele>89.0</ele><time>2026-04-23T08:48:30.676Z</time></trkpt><trkpt lat="48.520745" lon="-4.0706933"><ele>90.25</ele><time>2026-04-23T08:48:31.677Z</time></trkpt><trkpt lat="48.5208567" lon="-4.0706083"><ele>91.5</ele><time>2026-04-23T08:48:32.679Z</time></trkpt><trkpt lat="48.5209617" lon="-4.0705217"><ele>92.75</ele><time>2026-04-23T08:48:33.676Z</time></trkpt><trkpt lat="48.52106" lon="-4.0704383"><ele>94.0</ele><time>2026-04-23T08:48:34.677Z</time></trkpt><trkpt lat="48.5211583" lon="-4.0703633"><ele>94.80000000000001</ele><time>2026-04-23T08:48:35.678Z</time></trkpt><trkpt lat="48.521255" lon="-4.070285"><ele>95.60000000000001</ele><time>2026-04-23T08:48:36.678Z</time></trkpt><trkpt lat="48.5213567" lon="-4.0702083"><ele>96.4</ele><time>2026-04-23T08:48:37.677Z</time></trkpt><trkpt lat="48.5214583" lon="-4.0701333"><ele>97.2</ele><time>2026-04-23T08:48:38.678Z</time></trkpt><trkpt lat="48.5215583" lon="-4.07006"><ele>98.0</ele><time>2026-04-23T08:48:39.677Z</time></trkpt><trkpt lat="48.52165" lon="-4.06999"><ele>97.80000000000001</ele><time>2026-04-23T08:48:40.677Z</time></trkpt><trkpt lat="48.5217383" lon="-4.0699267"><ele>97.6</ele><time>2026-04-23T08:48:41.677Z</time></trkpt><trkpt lat="48.5218317" lon="-4.069865"><ele>97.4</ele><time>2026-04-23T08:48:42.676Z</time></trkpt><trkpt lat="48.5219433" lon="-4.0698"><ele>97.19999999999999</ele><time>2026-04-23T08:48:43.677Z</time></trkpt><trkpt lat="48.5220617" lon="-4.06974"><ele>97.0</ele><time>2026-04-23T08:48:44.678Z</time></trkpt><trkpt lat="48.5221833" lon="-4.0696783"><ele>97.5</ele><time>2026-04-23T08:48:45.678Z</time></trkpt><trkpt lat="48.5223083" lon="-4.0696133"><ele>98.0</ele><time>2026-04-23T08:48:46.676Z</time></trkpt><trkpt lat="48.5224383" lon="-4.0695483"><ele>98.5</ele><time>2026-04-23T08:48:47.678Z</time></trkpt><trkpt lat="48.5225733" lon="-4.06948"><ele>99.0</ele><time>2026-04-23T08:48:48.677Z</time></trkpt><trkpt lat="48.5227083" lon="-4.0694133"><ele>99.0</ele><time>2026-04-23T08:48:49.678Z</time></trkpt><trkpt lat="48.5228417" lon="-4.0693517"><ele>99.0</ele><time>2026-04-23T08:48:50.681Z</time></trkpt><trkpt lat="48.522975" lon="-4.0692917"><ele>99.0</ele><time>2026-04-23T08:48:51.678Z</time></trkpt><trkpt lat="48.5231083" lon="-4.06924"><ele>99.0</ele><time>2026-04-23T08:48:52.678Z</time></trkpt><trkpt lat="48.5232383" lon="-4.0691917"><ele>99.25</ele><time>2026-04-23T08:48:53.68Z</time></trkpt><trkpt lat="48.523365" lon="-4.069145"><ele>99.5</ele><time>2026-04-23T08:48:54.676Z</time></trkpt><trkpt lat="48.523495" lon="-4.0691"><ele>99.75</ele><time>2026-04-23T08:48:55.676Z</time></trkpt><trkpt lat="48.52362" lon="-4.0690583"><ele>100.0</ele><time>2026-04-23T08:48:56.679Z</time></trkpt><trkpt lat="48.523745" lon="-4.0690183"><ele>101.25</ele><time>2026-04-23T08:48:57.676Z</time></trkpt><trkpt lat="48.5238717" lon="-4.06898"><ele>102.5</ele><time>2026-04-23T08:48:58.677Z</time></trkpt><trkpt lat="48.5239983" lon="-4.06894"><ele>103.75</ele><time>2026-04-23T08:48:59.676Z</time></trkpt><trkpt lat="48.52413" lon="-4.0689"><ele>105.0</ele><time>2026-04-23T08:49:00.676Z</time></trkpt><trkpt lat="48.5242633" lon="-4.0688633"><ele>105.0</ele><time>2026-04-23T08:49:01.679Z</time></trkpt><trkpt lat="48.5243983" lon="-4.0688283"><ele>105.0</ele><time>2026-04-23T08:49:02.677Z</time></trkpt><trkpt lat="48.5245283" lon="-4.0687883"><ele>105.0</ele><time>2026-04-23T08:49:03.677Z</time></trkpt><trkpt lat="48.5246633" lon="-4.0687483"><ele>105.0</ele><time>2026-04-23T08:49:04.678Z</time></trkpt><trkpt lat="48.5247967" lon="-4.0687083"><ele>105.75</ele><time>2026-04-23T08:49:05.676Z</time></trkpt><trkpt lat="48.5249283" lon="-4.0686617"><ele>106.5</ele><time>2026-04-23T08:49:06.677Z</time></trkpt><trkpt lat="48.5250617" lon="-4.0686183"><ele>107.25</ele><time>2026-04-23T08:49:07.677Z</time></trkpt><trkpt lat="48.5251917" lon="-4.068575"><ele>108.0</ele><time>2026-04-23T08:49:08.678Z</time></trkpt><trkpt lat="48.5253233" lon="-4.06853"><ele>108.0</ele><time>2026-04-23T08:49:09.673Z</time></trkpt><trkpt lat="48.5254533" lon="-4.068485"><ele>108.0</ele><time>2026-04-23T08:49:10.674Z</time></trkpt><trkpt lat="48.52558" lon="-4.0684367"><ele>108.0</ele><time>2026-04-23T08:49:11.676Z</time></trkpt><trkpt lat="48.525705" lon="-4.068385"><ele>108.0</ele><time>2026-04-23T08:49:12.676Z</time></trkpt><trkpt lat="48.52583" lon="-4.06833"><ele>108.0</ele><time>2026-04-23T08:49:13.677Z</time></trkpt><trkpt lat="48.5259517" lon="-4.0682633"><ele>108.0</ele><time>2026-04-23T08:49:14.677Z</time></trkpt><trkpt lat="48.5260633" lon="-4.068175"><ele>108.0</ele><time>2026-04-23T08:49:15.678Z</time></trkpt><trkpt lat="48.526165" lon="-4.0680733"><ele>108.0</ele><time>2026-04-23T08:49:16.676Z</time></trkpt><trkpt lat="48.526255" lon="-4.067965"><ele>108.4</ele><time>2026-04-23T08:49:17.678Z</time></trkpt><trkpt lat="48.5263367" lon="-4.0678533"><ele>108.80000000000001</ele><time>2026-04-23T08:49:18.679Z</time></trkpt><trkpt lat="48.5264067" lon="-4.06774"><ele>109.2</ele><time>2026-04-23T08:49:19.678Z</time></trkpt><trkpt lat="48.526465" lon="-4.0676267"><ele>109.6</ele><time>2026-04-23T08:49:20.68Z</time></trkpt><trkpt lat="48.5265067" lon="-4.0675033"><ele>110.0</ele><time>2026-04-23T08:49:21.678Z</time></trkpt><trkpt lat="48.52653" lon="-4.0673617"><ele>110.2</ele><time>2026-04-23T08:49:22.677Z</time></trkpt><trkpt lat="48.526555" lon="-4.0672167"><ele>110.4</ele><time>2026-04-23T08:49:23.678Z</time></trkpt><trkpt lat="48.5265933" lon="-4.0670867"><ele>110.6</ele><time>2026-04-23T08:49:24.678Z</time></trkpt><trkpt lat="48.52666" lon="-4.0669883"><ele>110.8</ele><time>2026-04-23T08:49:25.677Z</time></trkpt><trkpt lat="48.52673" lon="-4.066895"><ele>111.0</ele><time>2026-04-23T08:49:26.678Z</time></trkpt><trkpt lat="48.52681" lon="-4.066825"><ele>111.0</ele><time>2026-04-23T08:49:27.677Z</time></trkpt><trkpt lat="48.5269167" lon="-4.0667983"><ele>111.0</ele><time>2026-04-23T08:49:28.677Z</time></trkpt><trkpt lat="48.5270267" lon="-4.0667483"><ele>111.0</ele><time>2026-04-23T08:49:29.678Z</time></trkpt><trkpt lat="48.5271433" lon="-4.06667"><ele>111.0</ele><time>2026-04-23T08:49:30.676Z</time></trkpt><trkpt lat="48.5272583" lon="-4.066565"><ele>111.5</ele><time>2026-04-23T08:49:31.678Z</time></trkpt><trkpt lat="48.5273767" lon="-4.0664567"><ele>112.0</ele><time>2026-04-23T08:49:32.679Z</time></trkpt><trkpt lat="48.5275017" lon="-4.0663417"><ele>112.5</ele><time>2026-04-23T08:49:33.676Z</time></trkpt><trkpt lat="48.5276317" lon="-4.0662183"><ele>113.0</ele><time>2026-04-23T08:49:34.676Z</time></trkpt><trkpt lat="48.52777" lon="-4.0660833"><ele>113.33333333333333</ele><time>2026-04-23T08:49:35.678Z</time></trkpt><trkpt lat="48.52791" lon="-4.0659433"><ele>113.66666666666666</ele><time>2026-04-23T08:49:36.676Z</time></trkpt><trkpt lat="48.5280483" lon="-4.0658"><ele>114.0</ele><time>2026-04-23T08:49:37.677Z</time></trkpt><trkpt lat="48.5281883" lon="-4.0656633"><ele>114.66666666666666</ele><time>2026-04-23T08:49:38.68Z</time></trkpt><trkpt lat="48.528335" lon="-4.0655283"><ele>115.33333333333333</ele><time>2026-04-23T08:49:39.677Z</time></trkpt><trkpt lat="48.5284867" lon="-4.0653917"><ele>116.0</ele><time>2026-04-23T08:49:40.677Z</time></trkpt><trkpt lat="48.5286383" lon="-4.0652617"><ele>115.66666666666666</ele><time>2026-04-23T08:49:41.678Z</time></trkpt><trkpt lat="48.528795" lon="-4.0651383"><ele>115.33333333333334</ele><time>2026-04-23T08:49:42.677Z</time></trkpt><trkpt lat="48.5289517" lon="-4.065035"><ele>115.0</ele><time>2026-04-23T08:49:43.677Z</time></trkpt><trkpt lat="48.5291083" lon="-4.064945"><ele>115.66666666666667</ele><time>2026-04-23T08:49:44.677Z</time></trkpt><trkpt lat="48.52927" lon="-4.06486"><ele>116.33333333333334</ele><time>2026-04-23T08:49:45.678Z</time></trkpt><trkpt lat="48.5294317" lon="-4.0647883"><ele>117.0</ele><time>2026-04-23T08:49:46.677Z</time></trkpt><trkpt lat="48.5295967" lon="-4.0647167"><ele>117.66666666666666</ele><time>2026-04-23T08:49:47.677Z</time></trkpt><trkpt lat="48.5297583" lon="-4.0646467"><ele>118.33333333333333</ele><time>2026-04-23T08:49:48.678Z</time></trkpt><trkpt lat="48.5299217" lon="-4.0645783"><ele>119.0</ele><time>2026-04-23T08:49:49.678Z</time></trkpt><trkpt lat="48.530085" lon="-4.06451"><ele>119.0</ele><time>2026-04-23T08:49:50.678Z</time></trkpt><trkpt lat="48.5302483" lon="-4.06444"><ele>119.0</ele><time>2026-04-23T08:49:51.677Z</time></trkpt><trkpt lat="48.5304133" lon="-4.0643667"><ele>119.0</ele><time>2026-04-23T08:49:52.677Z</time></trkpt><trkpt lat="48.53057" lon="-4.0642983"><ele>118.75</ele><time>2026-04-23T08:49:53.677Z</time></trkpt><trkpt lat="48.53071" lon="-4.06424"><ele>118.5</ele><time>2026-04-23T08:49:54.677Z</time></trkpt><trkpt lat="48.5308317" lon="-4.0641917"><ele>118.25</ele><time>2026-04-23T08:49:55.677Z</time></trkpt><trkpt lat="48.5309533" lon="-4.0641433"><ele>118.0</ele><time>2026-04-23T08:49:56.677Z</time></trkpt><trkpt lat="48.5310933" lon="-4.0640883"><ele>118.66666666666667</ele><time>2026-04-23T08:49:57.677Z</time></trkpt><trkpt lat="48.5312483" lon="-4.064025"><ele>119.33333333333334</ele><time>2026-04-23T08:49:58.676Z</time></trkpt><trkpt lat="48.5314133" lon="-4.063955"><ele>120.0</ele><time>2026-04-23T08:49:59.676Z</time></trkpt><trkpt lat="48.5315817" lon="-4.06389"><ele>120.0</ele><time>2026-04-23T08:50:00.676Z</time></trkpt><trkpt lat="48.5317517" lon="-4.06383"><ele>120.0</ele><time>2026-04-23T08:50:01.677Z</time></trkpt><trkpt lat="48.5319217" lon="-4.06378"><ele>120.0</ele><time>2026-04-23T08:50:02.68Z</time></trkpt><trkpt lat="48.5320967" lon="-4.0637383"><ele>120.33333333333334</ele><time>2026-04-23T08:50:03.671Z</time></trkpt><trkpt lat="48.5322767" lon="-4.0637083"><ele>120.66666666666667</ele><time>2026-04-23T08:50:04.676Z</time></trkpt><trkpt lat="48.5324583" lon="-4.0636917"><ele>121.0</ele><time>2026-04-23T08:50:05.677Z</time></trkpt><trkpt lat="48.532645" lon="-4.06369"><ele>121.0</ele><time>2026-04-23T08:50:06.676Z</time></trkpt><trkpt lat="48.5328333" lon="-4.0637033"><ele>121.0</ele><time>2026-04-23T08:50:07.678Z</time></trkpt><trkpt lat="48.53302" lon="-4.06372"><ele>121.0</ele><time>2026-04-23T08:50:08.678Z</time></trkpt><trkpt lat="48.5332083" lon="-4.0637467"><ele>121.66666666666667</ele><time>2026-04-23T08:50:09.676Z</time></trkpt><trkpt lat="48.5333983" lon="-4.06378"><ele>122.33333333333334</ele><time>2026-04-23T08:50:10.677Z</time></trkpt><trkpt lat="48.5335867" lon="-4.063815"><ele>123.0</ele><time>2026-04-23T08:50:11.677Z</time></trkpt><trkpt lat="48.5337733" lon="-4.06385"><ele>123.0</ele><time>2026-04-23T08:50:12.677Z</time></trkpt><trkpt lat="48.53396" lon="-4.063885"><ele>123.0</ele><time>2026-04-23T08:50:13.678Z</time></trkpt><trkpt lat="48.534145" lon="-4.06392"><ele>123.0</ele><time>2026-04-23T08:50:14.678Z</time></trkpt><trkpt lat="48.534325" lon="-4.063955"><ele>123.0</ele><time>2026-04-23T08:50:15.677Z</time></trkpt><trkpt lat="48.5345067" lon="-4.06399"><ele>123.0</ele><time>2026-04-23T08:50:16.678Z</time></trkpt><trkpt lat="48.5346867" lon="-4.0640233"><ele>123.0</ele><time>2026-04-23T08:50:17.675Z</time></trkpt><trkpt lat="48.5348667" lon="-4.0640567"><ele>123.0</ele><time>2026-04-23T08:50:18.679Z</time></trkpt><trkpt lat="48.535045" lon="-4.06409"><ele>123.0</ele><time>2026-04-23T08:50:19.678Z</time></trkpt><trkpt lat="48.53522" lon="-4.06412"><ele>123.0</ele><time>2026-04-23T08:50:20.678Z</time></trkpt><trkpt lat="48.535395" lon="-4.06415"><ele>123.33333333333334</ele><time>2026-04-23T08:50:21.678Z</time></trkpt><trkpt lat="48.53557" lon="-4.0641817"><ele>123.66666666666667</ele><time>2026-04-23T08:50:22.677Z</time></trkpt><trkpt lat="48.535745" lon="-4.0642117"><ele>124.0</ele><time>2026-04-23T08:50:23.677Z</time></trkpt><trkpt lat="48.5359183" lon="-4.06424"><ele>124.0</ele><time>2026-04-23T08:50:24.677Z</time></trkpt><trkpt lat="48.5360917" lon="-4.0642683"><ele>124.0</ele><time>2026-04-23T08:50:25.676Z</time></trkpt><trkpt lat="48.536265" lon="-4.0643"><ele>124.0</ele><time>2026-04-23T08:50:26.678Z</time></trkpt><trkpt lat="48.53644" lon="-4.0643317"><ele>124.33333333333334</ele><time>2026-04-23T08:50:27.677Z</time></trkpt><trkpt lat="48.5366133" lon="-4.06436"><ele>124.66666666666666</ele><time>2026-04-23T08:50:28.676Z</time></trkpt><trkpt lat="48.536785" lon="-4.0643867"><ele>125.0</ele><time>2026-04-23T08:50:29.674Z</time></trkpt><trkpt lat="48.5369554" lon="-4.0644191"><ele>125.0</ele><time>2026-04-23T08:50:30.678Z</time></trkpt><trkpt lat="48.537121" lon="-4.0644493"><ele>125.0</ele><time>2026-04-23T08:50:31.676Z</time></trkpt><trkpt lat="48.5372842" lon="-4.0644767"><ele>125.0</ele><time>2026-04-23T08:50:32.677Z</time></trkpt><trkpt lat="48.537442" lon="-4.0645022"><ele>125.0</ele><time>2026-04-23T08:50:33.677Z</time></trkpt><trkpt lat="48.5375902" lon="-4.0645209"><ele>125.0</ele><time>2026-04-23T08:50:34.677Z</time></trkpt><trkpt lat="48.5377287" lon="-4.064532"><ele>125.0</ele><time>2026-04-23T08:50:35.677Z</time></trkpt><trkpt lat="48.5378556" lon="-4.0645363"><ele>125.0</ele><time>2026-04-23T08:50:36.676Z</time></trkpt><trkpt lat="48.5379735" lon="-4.0645387"><ele>125.0</ele><time>2026-04-23T08:50:37.677Z</time></trkpt><trkpt lat="48.5380808" lon="-4.0645403"><ele>125.0</ele><time>2026-04-23T08:50:38.678Z</time></trkpt><trkpt lat="48.5381801" lon="-4.064543"><ele>125.0</ele><time>2026-04-23T08:50:39.676Z</time></trkpt><trkpt lat="48.538271" lon="-4.0645433"><ele>125.0</ele><time>2026-04-23T08:50:40.677Z</time></trkpt><trkpt lat="48.5383583" lon="-4.0645293"><ele>125.0</ele><time>2026-04-23T08:50:41.677Z</time></trkpt><trkpt lat="48.5384382" lon="-4.0644824"><ele>125.0</ele><time>2026-04-23T08:50:42.676Z</time></trkpt><trkpt lat="48.5384968" lon="-4.0643932"><ele>125.0</ele><time>2026-04-23T08:50:43.676Z</time></trkpt><trkpt lat="48.5385292" lon="-4.0642671"><ele>125.0</ele><time>2026-04-23T08:50:44.679Z</time></trkpt><trkpt lat="48.5385396" lon="-4.0641079"><ele>125.0</ele><time>2026-04-23T08:50:45.677Z</time></trkpt><trkpt lat="48.5385324" lon="-4.0639202"><ele>125.0</ele><time>2026-04-23T08:50:46.678Z</time></trkpt><trkpt lat="48.5385136" lon="-4.0637177"><ele>125.0</ele><time>2026-04-23T08:50:47.676Z</time></trkpt><trkpt lat="48.5384877" lon="-4.0634829"><ele>125.0</ele><time>2026-04-23T08:50:48.676Z</time></trkpt><trkpt lat="48.538464" lon="-4.0632315"><ele>125.0</ele><time>2026-04-23T08:50:49.676Z</time></trkpt><trkpt lat="48.5384409" lon="-4.0629798"><ele>125.0</ele><time>2026-04-23T08:50:50.677Z</time></trkpt><trkpt lat="48.5384198" lon="-4.062728"><ele>125.0</ele><time>2026-04-23T08:50:51.676Z</time></trkpt><trkpt lat="48.5383978" lon="-4.0624886"><ele>125.0</ele><time>2026-04-23T08:50:52.677Z</time></trkpt><trkpt lat="48.5383764" lon="-4.0622627"><ele>125.0</ele><time>2026-04-23T08:50:53.676Z</time></trkpt><trkpt lat="48.5383591" lon="-4.0620428"><ele>125.0</ele><time>2026-04-23T08:50:54.678Z</time></trkpt><trkpt lat="48.5383466" lon="-4.0618258"><ele>125.0</ele><time>2026-04-23T08:50:55.676Z</time></trkpt><trkpt lat="48.5383342" lon="-4.0616151"><ele>125.0</ele><time>2026-04-23T08:50:56.677Z</time></trkpt><trkpt lat="48.5383219" lon="-4.0614177"><ele>125.0</ele><time>2026-04-23T08:50:57.677Z</time></trkpt><trkpt lat="48.5383074" lon="-4.0612322"><ele>125.0</ele><time>2026-04-23T08:50:58.677Z</time></trkpt><trkpt lat="48.5382963" lon="-4.0610617"><ele>125.0</ele><time>2026-04-23T08:50:59.676Z</time></trkpt><trkpt lat="48.5382853" lon="-4.060899"><ele>125.0</ele><time>2026-04-23T08:51:00.678Z</time></trkpt><trkpt lat="48.5382748" lon="-4.0607397"><ele>125.0</ele><time>2026-04-23T08:51:01.679Z</time></trkpt><trkpt lat="48.5382664" lon="-4.060588"><ele>125.0</ele><time>2026-04-23T08:51:02.678Z</time></trkpt><trkpt lat="48.5382567" lon="-4.0604533"><ele>125.0</ele><time>2026-04-23T08:51:03.678Z</time></trkpt><trkpt lat="48.538245" lon="-4.060325"><ele>125.0</ele><time>2026-04-23T08:51:04.676Z</time></trkpt><trkpt lat="48.5382333" lon="-4.060175"><ele>125.0</ele><time>2026-04-23T08:51:05.678Z</time></trkpt><trkpt lat="48.53822" lon="-4.0599933"><ele>125.0</ele><time>2026-04-23T08:51:06.676Z</time></trkpt><trkpt lat="48.5382" lon="-4.059785"><ele>125.0</ele><time>2026-04-23T08:51:07.676Z</time></trkpt><trkpt lat="48.53818" lon="-4.0595583"><ele>125.0</ele><time>2026-04-23T08:51:08.678Z</time></trkpt><trkpt lat="48.53816" lon="-4.059325"><ele>125.0</ele><time>2026-04-23T08:51:09.677Z</time></trkpt><trkpt lat="48.5381483" lon="-4.0590917"><ele>124.75</ele><time>2026-04-23T08:51:10.676Z</time></trkpt><trkpt lat="48.5381367" lon="-4.0588617"><ele>124.5</ele><time>2026-04-23T08:51:11.676Z</time></trkpt><trkpt lat="48.538125" lon="-4.05864"><ele>124.25</ele><time>2026-04-23T08:51:12.676Z</time></trkpt><trkpt lat="48.5381133" lon="-4.0584317"><ele>124.0</ele><time>2026-04-23T08:51:13.677Z</time></trkpt><trkpt lat="48.538105" lon="-4.058235"><ele>124.0</ele><time>2026-04-23T08:51:14.68Z</time></trkpt><trkpt lat="48.5380917" lon="-4.058055"><ele>124.0</ele><time>2026-04-23T08:51:15.676Z</time></trkpt><trkpt lat="48.5380583" lon="-4.0578783"><ele>124.0</ele><time>2026-04-23T08:51:16.677Z</time></trkpt><trkpt lat="48.538" lon="-4.0577133"><ele>124.0</ele><time>2026-04-23T08:51:17.676Z</time></trkpt><trkpt lat="48.5379217" lon="-4.0575583"><ele>123.75</ele><time>2026-04-23T08:51:18.68Z</time></trkpt><trkpt lat="48.53783" lon="-4.05741"><ele>123.5</ele><time>2026-04-23T08:51:19.678Z</time></trkpt><trkpt lat="48.5377217" lon="-4.057265"><ele>123.25</ele><time>2026-04-23T08:51:20.679Z</time></trkpt><trkpt lat="48.5376083" lon="-4.0571267"><ele>123.0</ele><time>2026-04-23T08:51:21.68Z</time></trkpt><trkpt lat="48.5374933" lon="-4.0569967"><ele>123.0</ele><time>2026-04-23T08:51:22.678Z</time></trkpt><trkpt lat="48.5373783" lon="-4.0568733"><ele>123.0</ele><time>2026-04-23T08:51:23.677Z</time></trkpt><trkpt lat="48.5372733" lon="-4.0567483"><ele>123.0</ele><time>2026-04-23T08:51:24.681Z</time></trkpt><trkpt lat="48.5371767" lon="-4.0566083"><ele>123.0</ele><time>2026-04-23T08:51:25.678Z</time></trkpt><trkpt lat="48.5370933" lon="-4.0564383"><ele>123.5</ele><time>2026-04-23T08:51:26.677Z</time></trkpt><trkpt lat="48.5370217" lon="-4.05625"><ele>124.0</ele><time>2026-04-23T08:51:27.678Z</time></trkpt><trkpt lat="48.53695" lon="-4.0560567"><ele>124.5</ele><time>2026-04-23T08:51:28.676Z</time></trkpt><trkpt lat="48.5368783" lon="-4.0558583"><ele>125.0</ele><time>2026-04-23T08:51:29.677Z</time></trkpt><trkpt lat="48.5368117" lon="-4.0556567"><ele>125.0</ele><time>2026-04-23T08:51:30.68Z</time></trkpt><trkpt lat="48.5367467" lon="-4.055455"><ele>125.0</ele><time>2026-04-23T08:51:31.678Z</time></trkpt><trkpt lat="48.5366833" lon="-4.0552617"><ele>125.0</ele><time>2026-04-23T08:51:32.679Z</time></trkpt><trkpt lat="48.5366217" lon="-4.0550633"><ele>125.0</ele><time>2026-04-23T08:51:33.68Z</time></trkpt><trkpt lat="48.5365567" lon="-4.0548683"><ele>124.5</ele><time>2026-04-23T08:51:34.677Z</time></trkpt><trkpt lat="48.536495" lon="-4.054675"><ele>124.0</ele><time>2026-04-23T08:51:35.679Z</time></trkpt><trkpt lat="48.5364283" lon="-4.0544817"><ele>123.5</ele><time>2026-04-23T08:51:36.677Z</time></trkpt><trkpt lat="48.5363683" lon="-4.0543017"><ele>123.0</ele><time>2026-04-23T08:51:37.673Z</time></trkpt><trkpt lat="48.536305" lon="-4.05411"><ele>122.75</ele><time>2026-04-23T08:51:38.678Z</time></trkpt><trkpt lat="48.5362467" lon="-4.05392"><ele>122.5</ele><time>2026-04-23T08:51:39.678Z</time></trkpt><trkpt lat="48.5361967" lon="-4.053735"><ele>122.25</ele><time>2026-04-23T08:51:40.676Z</time></trkpt><trkpt lat="48.5361483" lon="-4.0535433"><ele>122.0</ele><time>2026-04-23T08:51:41.678Z</time></trkpt><trkpt lat="48.5361" lon="-4.0533467"><ele>123.0</ele><time>2026-04-23T08:51:42.677Z</time></trkpt><trkpt lat="48.5360533" lon="-4.05315"><ele>124.0</ele><time>2026-04-23T08:51:43.676Z</time></trkpt><trkpt lat="48.5360083" lon="-4.05295"><ele>125.0</ele><time>2026-04-23T08:51:44.678Z</time></trkpt><trkpt lat="48.5359683" lon="-4.052745"><ele>126.0</ele><time>2026-04-23T08:51:45.676Z</time></trkpt><trkpt lat="48.535935" lon="-4.0525417"><ele>125.75</ele><time>2026-04-23T08:51:46.676Z</time></trkpt><trkpt lat="48.535905" lon="-4.05234"><ele>125.5</ele><time>2026-04-23T08:51:47.681Z</time></trkpt><trkpt lat="48.53587" lon="-4.0521433"><ele>125.25</ele><time>2026-04-23T08:51:48.678Z</time></trkpt><trkpt lat="48.5358367" lon="-4.05195"><ele>125.0</ele><time>2026-04-23T08:51:49.679Z</time></trkpt><trkpt lat="48.5358067" lon="-4.051765"><ele>124.8</ele><time>2026-04-23T08:51:50.679Z</time></trkpt><trkpt lat="48.5357783" lon="-4.0516"><ele>124.6</ele><time>2026-04-23T08:51:51.678Z</time></trkpt><trkpt lat="48.5357583" lon="-4.0514367"><ele>124.4</ele><time>2026-04-23T08:51:52.679Z</time></trkpt><trkpt lat="48.5357433" lon="-4.0512833"><ele>124.2</ele><time>2026-04-23T08:51:53.677Z</time></trkpt><trkpt lat="48.53573" lon="-4.051135"><ele>124.0</ele><time>2026-04-23T08:51:54.679Z</time></trkpt><trkpt lat="48.5357233" lon="-4.0509983"><ele>124.00000000000001</ele><time>2026-04-23T08:51:55.678Z</time></trkpt><trkpt lat="48.53571" lon="-4.0508683"><ele>124.0</ele><time>2026-04-23T08:51:56.68Z</time></trkpt><trkpt lat="48.5356983" lon="-4.0507483"><ele>124.0</ele><time>2026-04-23T08:51:57.677Z</time></trkpt><trkpt lat="48.5356867" lon="-4.0506283"><ele>124.0</ele><time>2026-04-23T08:51:58.682Z</time></trkpt><trkpt lat="48.5356767" lon="-4.0505117"><ele>124.00000000000001</ele><time>2026-04-23T08:51:59.677Z</time></trkpt><trkpt lat="48.5356683" lon="-4.050405"><ele>124.0</ele><time>2026-04-23T08:52:00.676Z</time></trkpt><trkpt lat="48.5356633" lon="-4.0503083"><ele>124.0</ele><time>2026-04-23T08:52:01.677Z</time></trkpt><trkpt lat="48.5356533" lon="-4.0501317"><ele>124.0</ele><time>2026-04-23T08:52:03.679Z</time></trkpt><trkpt lat="48.5356467" lon="-4.04998"><ele>124.0</ele><time>2026-04-23T08:52:05.676Z</time></trkpt><trkpt lat="48.5356483" lon="-4.0498367"><ele>124.0</ele><time>2026-04-23T08:52:07.676Z</time></trkpt><trkpt lat="48.5356467" lon="-4.0496433"><ele>124.0</ele><time>2026-04-23T08:52:09.677Z</time></trkpt><trkpt lat="48.53564" lon="-4.0495133"><ele>124.25</ele><time>2026-04-23T08:52:10.677Z</time></trkpt><trkpt lat="48.5356183" lon="-4.0493533"><ele>124.5</ele><time>2026-04-23T08:52:11.676Z</time></trkpt><trkpt lat="48.5355883" lon="-4.0491817"><ele>124.75</ele><time>2026-04-23T08:52:12.676Z</time></trkpt><trkpt lat="48.5355583" lon="-4.0490083"><ele>125.0</ele><time>2026-04-23T08:52:13.676Z</time></trkpt><trkpt lat="48.5355267" lon="-4.048835"><ele>125.0</ele><time>2026-04-23T08:52:14.679Z</time></trkpt><trkpt lat="48.5354967" lon="-4.0486567"><ele>125.0</ele><time>2026-04-23T08:52:15.676Z</time></trkpt><trkpt lat="48.5354633" lon="-4.0484817"><ele>125.0</ele><time>2026-04-23T08:52:16.676Z</time></trkpt><trkpt lat="48.535425" lon="-4.04832"><ele>125.0</ele><time>2026-04-23T08:52:17.679Z</time></trkpt><trkpt lat="48.5353783" lon="-4.048175"><ele>125.0</ele><time>2026-04-23T08:52:18.68Z</time></trkpt><trkpt lat="48.5353283" lon="-4.04805"><ele>125.0</ele><time>2026-04-23T08:52:19.677Z</time></trkpt><trkpt lat="48.5352833" lon="-4.0479517"><ele>125.0</ele><time>2026-04-23T08:52:20.68Z</time></trkpt><trkpt lat="48.5352183" lon="-4.0478067"><ele>125.0</ele><time>2026-04-23T08:52:22.677Z</time></trkpt><trkpt lat="48.5352017" lon="-4.0476717"><ele>125.0</ele><time>2026-04-23T08:52:24.678Z</time></trkpt><trkpt lat="48.5351783" lon="-4.0475183"><ele>124.66666666666666</ele><time>2026-04-23T08:52:26.678Z</time></trkpt><trkpt lat="48.5351467" lon="-4.0473517"><ele>124.33333333333333</ele><time>2026-04-23T08:52:28.677Z</time></trkpt><trkpt lat="48.5351283" lon="-4.0472583"><ele>124.0</ele><time>2026-04-23T08:52:29.678Z</time></trkpt><trkpt lat="48.5351117" lon="-4.0471617"><ele>123.66666666666666</ele><time>2026-04-23T08:52:30.682Z</time></trkpt><trkpt lat="48.5350833" lon="-4.0470617"><ele>123.33333333333333</ele><time>2026-04-23T08:52:31.678Z</time></trkpt><trkpt lat="48.53505" lon="-4.046955"><ele>123.0</ele><time>2026-04-23T08:52:32.678Z</time></trkpt><trkpt lat="48.5350167" lon="-4.0468483"><ele>123.0</ele><time>2026-04-23T08:52:33.678Z</time></trkpt><trkpt lat="48.5349817" lon="-4.0467517"><ele>123.00000000000001</ele><time>2026-04-23T08:52:34.678Z</time></trkpt><trkpt lat="48.53493" lon="-4.0466533"><ele>123.00000000000001</ele><time>2026-04-23T08:52:35.677Z</time></trkpt><trkpt lat="48.534855" lon="-4.04654"><ele>123.0</ele><time>2026-04-23T08:52:36.677Z</time></trkpt><trkpt lat="48.534755" lon="-4.0464183"><ele>123.0</ele><time>2026-04-23T08:52:37.677Z</time></trkpt><trkpt lat="48.534655" lon="-4.0462917"><ele>122.75</ele><time>2026-04-23T08:52:38.676Z</time></trkpt><trkpt lat="48.5345517" lon="-4.0461533"><ele>122.5</ele><time>2026-04-23T08:52:39.675Z</time></trkpt><trkpt lat="48.53445" lon="-4.04601"><ele>122.25</ele><time>2026-04-23T08:52:40.678Z</time></trkpt><trkpt lat="48.5343483" lon="-4.0458567"><ele>122.0</ele><time>2026-04-23T08:52:41.677Z</time></trkpt><trkpt lat="48.534245" lon="-4.04571"><ele>122.0</ele><time>2026-04-23T08:52:42.677Z</time></trkpt><trkpt lat="48.53414" lon="-4.045565"><ele>122.0</ele><time>2026-04-23T08:52:43.676Z</time></trkpt><trkpt lat="48.534035" lon="-4.0454283"><ele>122.0</ele><time>2026-04-23T08:52:44.679Z</time></trkpt><trkpt lat="48.533935" lon="-4.045295"><ele>122.0</ele><time>2026-04-23T08:52:45.677Z</time></trkpt><trkpt lat="48.53384" lon="-4.0451683"><ele>122.0</ele><time>2026-04-23T08:52:46.677Z</time></trkpt><trkpt lat="48.5337533" lon="-4.0450583"><ele>121.99999999999999</ele><time>2026-04-23T08:52:47.678Z</time></trkpt><trkpt lat="48.5336767" lon="-4.0449633"><ele>121.99999999999999</ele><time>2026-04-23T08:52:48.679Z</time></trkpt><trkpt lat="48.5335967" lon="-4.0448683"><ele>122.0</ele><time>2026-04-23T08:52:49.677Z</time></trkpt><trkpt lat="48.533515" lon="-4.0447617"><ele>122.0</ele><time>2026-04-23T08:52:50.677Z</time></trkpt><trkpt lat="48.5334383" lon="-4.0446617"><ele>121.39999999999999</ele><time>2026-04-23T08:52:51.679Z</time></trkpt><trkpt lat="48.5333583" lon="-4.044565"><ele>120.79999999999998</ele><time>2026-04-23T08:52:52.676Z</time></trkpt><trkpt lat="48.5332733" lon="-4.0444717"><ele>120.2</ele><time>2026-04-23T08:52:53.679Z</time></trkpt><trkpt lat="48.5331817" lon="-4.0443867"><ele>119.6</ele><time>2026-04-23T08:52:54.679Z</time></trkpt><trkpt lat="48.5330917" lon="-4.0443083"><ele>119.0</ele><time>2026-04-23T08:52:55.679Z</time></trkpt><trkpt lat="48.5330017" lon="-4.0442317"><ele>119.0</ele><time>2026-04-23T08:52:56.678Z</time></trkpt><trkpt lat="48.5329183" lon="-4.04416"><ele>119.0</ele><time>2026-04-23T08:52:57.677Z</time></trkpt><trkpt lat="48.5328283" lon="-4.04409"><ele>119.0</ele><time>2026-04-23T08:52:58.674Z</time></trkpt><trkpt lat="48.532735" lon="-4.0440233"><ele>119.0</ele><time>2026-04-23T08:52:59.678Z</time></trkpt><trkpt lat="48.5326417" lon="-4.04396"><ele>119.0</ele><time>2026-04-23T08:53:00.679Z</time></trkpt><trkpt lat="48.532545" lon="-4.0439"><ele>118.2</ele><time>2026-04-23T08:53:01.677Z</time></trkpt><trkpt lat="48.5324517" lon="-4.0438383"><ele>117.4</ele><time>2026-04-23T08:53:02.679Z</time></trkpt><trkpt lat="48.532365" lon="-4.043785"><ele>116.6</ele><time>2026-04-23T08:53:03.678Z</time></trkpt><trkpt lat="48.53228" lon="-4.0437467"><ele>115.8</ele><time>2026-04-23T08:53:04.678Z</time></trkpt><trkpt lat="48.53219" lon="-4.0437183"><ele>115.0</ele><time>2026-04-23T08:53:05.677Z</time></trkpt><trkpt lat="48.5320983" lon="-4.0436917"><ele>114.8</ele><time>2026-04-23T08:53:06.68Z</time></trkpt><trkpt lat="48.53201" lon="-4.04367"><ele>114.6</ele><time>2026-04-23T08:53:07.676Z</time></trkpt><trkpt lat="48.5319233" lon="-4.0436383"><ele>114.4</ele><time>2026-04-23T08:53:08.679Z</time></trkpt><trkpt lat="48.5318317" lon="-4.0435783"><ele>114.2</ele><time>2026-04-23T08:53:09.678Z</time></trkpt><trkpt lat="48.531745" lon="-4.0435083"><ele>114.0</ele><time>2026-04-23T08:53:10.677Z</time></trkpt><trkpt lat="48.5316633" lon="-4.0434433"><ele>114.0</ele><time>2026-04-23T08:53:11.677Z</time></trkpt><trkpt lat="48.53159" lon="-4.043395"><ele>114.0</ele><time>2026-04-23T08:53:12.676Z</time></trkpt><trkpt lat="48.53152" lon="-4.0433533"><ele>114.0</ele><time>2026-04-23T08:53:13.676Z</time></trkpt><trkpt lat="48.531425" lon="-4.0433117"><ele>114.0</ele><time>2026-04-23T08:53:15.677Z</time></trkpt></trkseg></trk></gpx>